Date StartTime U_cm/s V_cm/s W_cm/s Ustd_cm/s Vstd_cm/s Wstd_cm/s Uvar_(cm/s)^2 Vvar_(cm/s)^2 Wvar_(cm/s)^2 KE_(m/s)^2 TurbulentKE_(m/s)^2 HorizWindSpeed_cm/s FrictionSpeec_cm/s DragCoef SpeedOfSound_m/s SonicTemperature_C Pressure_mb 
11/11/2014  00:00:00     -104.322      -41.272      -17.160       13.878       10.805        8.762      192.591      116.751       76.769        0.663        0.019      112.190        4.829        0.002      334.696        4.838      857.487
11/11/2014  00:01:00      -78.890      -24.317      -12.143       14.679       15.819       13.855      215.476      250.255      191.964        0.381        0.033       82.553        8.216        0.010      334.638        4.743      857.506
11/11/2014  00:02:00      -89.694      -13.284       -5.386       23.560       16.111       14.291      555.064      259.572      204.233        0.463        0.051       90.672       12.994        0.021      334.614        4.701      857.511
11/11/2014  00:03:00     -103.887       -8.037      -12.994       19.459       13.862       10.894      378.645      192.165      118.686        0.586        0.034      104.198        7.505        0.005      334.569        4.626      857.511
11/11/2014  00:04:00      -80.481       -3.002      -10.749       46.435       21.809       14.856     2156.234      475.638      220.697        0.473        0.143       80.537       20.330        0.064      334.578        4.645      857.514
11/11/2014  00:05:00      -55.648      -16.388       -4.436       44.434       17.614       15.100     1974.397      310.257      227.997        0.295        0.126       58.011       19.994        0.119      334.526        4.557      857.518
11/11/2014  00:06:00      -77.528      -23.850      -11.052       34.297       25.270       14.596     1176.302      638.570      213.056        0.436        0.101       81.113       13.240        0.027      334.559        4.612      857.540
11/11/2014  00:07:00      -55.531      -16.084       -4.357       34.956       22.506       18.443     1221.902      506.518      340.149        0.271        0.103       57.813       15.315        0.070      334.509        4.529      857.556
11/11/2014  00:08:00      -86.934       -8.471      -10.522       39.426       20.964       21.109     1554.377      439.499      445.602        0.509        0.122       87.346       21.580        0.061      334.519        4.543      857.561
11/11/2014  00:09:00      -88.088       -9.253       -8.496       27.928       20.205       15.654      779.987      408.227      245.053        0.468        0.072       88.573       12.966        0.021      334.592        4.666      857.561
11/11/2014  00:10:00     -111.722      -13.523      -11.915       23.645       19.608       18.264      559.109      384.487      333.576        0.704        0.064      112.537       12.565        0.012      334.608        4.692      857.560
11/11/2014  00:11:00      -87.240       -8.126      -11.351       22.015       22.743       18.527      484.681      517.247      343.254        0.458        0.067       87.617       10.052        0.013      334.603        4.685      857.569
11/11/2014  00:12:00      -78.986      -13.980       -7.805       25.307       26.424       16.201      640.433      698.209      262.473        0.405        0.080       80.214       12.470        0.024      334.621        4.715      857.572
11/11/2014  00:13:00     -102.127      -21.066      -13.588       22.800       18.475       14.351      519.849      341.336      205.938        0.606        0.053      104.278        7.895        0.006      334.694        4.835      857.571
11/11/2014  00:14:00      -92.196      -24.460       -2.668       32.352       29.861       15.901     1046.646      891.668      252.833        0.565        0.110       95.385       17.421        0.033      334.623        4.717      857.571
11/11/2014  00:15:00      -92.258      -30.138       -6.229       24.894       22.360       18.168      619.734      499.950      330.090        0.545        0.072       97.056       15.969        0.027      334.583        4.651      857.575
11/11/2014  00:16:00     -114.489      -19.570       -7.090       15.976       19.014       11.491      255.236      361.549      132.053        0.714        0.037      116.149        7.910        0.005      334.556        4.606      857.584
11/11/2014  00:17:00      -90.837      -19.517       -4.279       30.077       24.987       16.024      904.604      624.341      256.757        0.522        0.089       92.910       14.425        0.024      334.559        4.612      857.593
11/11/2014  00:18:00      -76.657      -10.872       -7.233       44.304       36.363       24.725     1962.809     1322.258      611.318        0.497        0.195       77.424       24.681        0.102      334.563        4.617      857.589
11/11/2014  00:19:00     -104.166        1.299       -6.127       49.333       27.408       22.100     2433.786      751.215      488.413        0.728        0.184      104.175       26.646        0.065      334.636        4.739      857.585
11/11/2014  00:20:00     -112.320      -22.580       -2.472       31.099       25.965       14.259      967.131      674.176      203.327        0.749        0.092      114.567       10.206        0.008      334.642        4.750      857.590
11/11/2014  00:21:00     -108.826      -45.992       -3.671       24.268       28.254       18.628      588.927      798.276      347.017        0.785        0.087      118.145       15.159        0.016      334.567        4.624      857.604
11/11/2014  00:22:00      -95.157      -40.801       -8.221       28.405       25.483       12.245      806.868      649.395      149.936        0.620        0.080      103.536       12.537        0.015      334.549        4.593      857.616
11/11/2014  00:23:00     -112.326      -18.738       -5.127       36.161       27.140       17.453     1307.639      736.599      304.594        0.767        0.117      113.878       14.791        0.017      334.549        4.594      857.625
11/11/2014  00:24:00     -123.576      -28.970       -6.034       29.790       20.308       14.764      887.457      412.413      217.971        0.883        0.076      126.927       14.405        0.013      334.513        4.536      857.636
11/11/2014  00:25:00      -82.117       -9.068       -3.485       41.026       24.151       18.961     1683.142      583.283      359.506        0.473        0.131       82.616       19.433        0.055      334.490        4.496      857.649
11/11/2014  00:26:00      -80.505      -35.771       -6.800       15.189       17.527       11.515      230.705      307.191      132.596        0.424        0.034       88.095        7.228        0.007      334.564        4.621      857.661
11/11/2014  00:27:00      -92.485      -48.967       -5.034       15.463       23.842       10.372      239.120      568.462      107.570        0.595        0.046      104.648        6.118        0.003      334.606        4.688      857.653
11/11/2014  00:28:00     -107.596      -38.379       -7.353       19.085       18.245       13.125      364.249      332.892      172.271        0.699        0.043      114.236       10.588        0.009      334.606        4.688      857.643
11/11/2014  00:29:00     -113.624      -36.400       -9.108       21.606       18.944       12.357      466.805      358.884      152.686        0.765        0.049      119.312        7.679        0.004      334.587        4.658      857.648
11/11/2014  00:30:00     -104.059      -46.455       -7.305       27.585       16.993       11.118      760.932      288.770      123.615        0.711        0.059      113.958       11.066        0.009      334.599        4.679      857.654
11/11/2014  00:31:00      -55.686      -35.053        4.834       38.978       25.971       16.641     1519.271      674.496      276.933        0.341        0.124       65.800       20.204        0.094      334.571        4.631      857.656
11/11/2014  00:32:00     -104.959      -49.472       -1.142       27.388       23.588       16.114      750.121      556.411      259.674        0.752        0.078      116.034       13.102        0.013      334.620        4.712      857.645
11/11/2014  00:33:00     -107.010      -50.419       -1.441       29.527       20.104       15.953      871.824      404.158      254.504        0.776        0.077      118.293       13.567        0.013      334.546        4.590      857.649
11/11/2014  00:34:00      -71.755      -39.247        5.414       43.467       26.876       18.616     1889.363      722.345      346.566        0.484        0.148       81.787       19.037        0.054      334.530        4.565      857.662
11/11/2014  00:35:00      -82.675      -61.826        3.457       38.820       30.746       17.331     1507.010      945.328      300.376        0.671        0.138      103.236       18.082        0.031      334.489        4.496      857.670
11/11/2014  00:36:00      -39.955      -34.752       -0.622       37.062       26.087       17.350     1373.621      680.528      301.033        0.258        0.118       52.954       13.455        0.065      334.497        4.508      857.664
11/11/2014  00:37:00      -35.447      -39.061       -2.364       21.181       16.312       14.746      448.648      266.080      217.451        0.186        0.047       52.747       12.320        0.055      334.486        4.491      857.633
11/11/2014  00:38:00      -71.764      -40.937      -11.387       11.342       13.593       10.151      128.639      184.756      103.053        0.369        0.021       82.619        2.733        0.001      334.505        4.521      857.605
11/11/2014  00:39:00      -89.986      -28.092      -11.346       15.241       17.008        8.485      232.294      289.266       71.987        0.480        0.030       94.269        2.878        0.001      334.560        4.613      857.598
11/11/2014  00:40:00     -104.776      -33.362       -8.964       13.234       19.400       11.595      175.140      376.375      134.449        0.643        0.034      109.959        7.903        0.005      334.544        4.587      857.604
11/11/2014  00:41:00      -90.326      -43.016       -2.248       21.056       21.956       14.778      443.340      482.054      218.379        0.558        0.057      100.046        9.106        0.008      334.468        4.460      857.615
11/11/2014  00:42:00      -69.468      -40.336        0.913       35.044       25.610       16.049     1228.055      655.857      257.557        0.430        0.107       80.330       19.370        0.058      334.425        4.391      857.629
11/11/2014  00:43:00      -86.370      -40.922       -9.813       24.892       20.812       13.191      619.615      433.147      174.000        0.523        0.061       95.574       11.710        0.015      334.448        4.427      857.627
11/11/2014  00:44:00      -95.811      -54.350       -7.902       18.022       14.179       11.504      324.796      201.051      132.350        0.643        0.033      110.153        8.162        0.005      334.348        4.261      857.621
11/11/2014  00:45:00     -127.719      -51.940      -11.096       24.292       24.323       15.126      590.103      591.614      228.799        1.027        0.071      137.877        3.892        0.001      334.278        4.145      857.613
11/11/2014  00:46:00     -105.450      -45.862       -4.813       28.920       19.798       18.335      836.376      391.960      336.154        0.741        0.078      114.991       14.910        0.017      334.219        4.047      857.611
11/11/2014  00:47:00      -86.891      -57.592       -8.173       18.531       19.226       11.564      343.410      369.658      133.736        0.589        0.042      104.245        8.376        0.006      334.223        4.054      857.606
11/11/2014  00:48:00      -81.444      -46.945       -9.500       18.304       15.883       14.417      335.036      252.280      207.863        0.486        0.040       94.005       11.254        0.014      334.266        4.125      857.601
11/11/2014  00:49:00      -77.930      -45.086       -8.422       17.270       10.893       11.674      298.256      118.666      136.282        0.436        0.028       90.033        9.685        0.012      334.270        4.133      857.596
11/11/2014  00:50:00      -49.418      -41.964        2.787       32.220       20.978       16.589     1038.144      440.057      275.196        0.298        0.088       64.831       19.520        0.091      334.320        4.216      857.601
11/11/2014  00:51:00      -64.052      -51.175        0.878       32.269       24.308       18.288     1041.298      590.865      334.438        0.434        0.098       81.985       18.121        0.049      334.245        4.089      857.615
11/11/2014  00:52:00      -76.512      -51.113       -5.816       37.080       25.938       14.199     1374.894      672.799      201.601        0.537        0.112       92.014       18.039        0.038      334.196        4.010      857.624
11/11/2014  00:53:00      -86.101      -51.553       -9.902       10.070       10.078        8.677      101.406      101.562       75.299        0.522        0.014      100.355        5.123        0.003      334.152        3.936      857.632
11/11/2014  00:54:00      -66.504      -50.167       -9.612       12.862        9.794        8.850      165.436       95.927       78.317        0.369        0.017       83.304        3.678        0.002      334.271        4.135      857.626
11/11/2014  00:55:00      -74.108      -54.595       -7.187       13.180       15.587       10.268      173.719      242.962      105.435        0.452        0.026       92.047        3.788        0.002      334.312        4.202      857.613
11/11/2014  00:56:00      -77.982      -45.698        3.997       29.282       16.043       14.815      857.441      257.365      219.483        0.476        0.067       90.385       16.109        0.032      334.247        4.094      857.598
11/11/2014  00:57:00      -84.832      -49.044       -5.990       20.898       17.785       16.734      436.716      316.322      280.017        0.534        0.052       97.989       10.651        0.012      334.182        3.986      857.594
11/11/2014  00:58:00      -74.840      -52.647       -5.487       24.140       19.713       15.220      582.728      388.617      231.649        0.480        0.060       91.503        6.388        0.005      334.185        3.989      857.602
11/11/2014  00:59:00      -81.310      -36.004       -8.492       16.146       14.344        6.496      260.688      205.751       42.202        0.424        0.025       88.924        4.811        0.003      334.148        3.931      857.598
11/11/2014  01:00:00      -81.974      -34.537      -16.956        8.540       11.306        6.644       72.939      127.815       44.147        0.422        0.012       88.952        4.979        0.003      334.074        3.807      857.603
11/11/2014  01:01:00      -88.206      -48.212      -14.708       16.507       10.599       10.547      272.493      112.335      111.245        0.541        0.025      100.522        4.244        0.002      334.063        3.789      857.624
11/11/2014  01:02:00      -38.338      -20.741       -2.946       24.826       11.504       11.135      616.328      132.343      123.993        0.139        0.044       43.589       12.833        0.087      334.034        3.742      857.637
11/11/2014  01:03:00       -8.214      -14.994       -3.894        8.335        5.811        7.617       69.470       33.767       58.012        0.023        0.008       17.096        4.648        0.074      334.161        3.952      857.642
11/11/2014  01:04:00       12.246        3.318       -6.509       12.588       17.674       14.273      158.450      312.377      203.710        0.044        0.034       12.687        9.148        0.520      334.281        4.152      857.662
11/11/2014  01:05:00       23.040       26.521        3.908       20.552       10.648       14.983      422.389      113.373      224.486        0.100        0.038       35.131        6.312        0.032      334.254        4.106      857.675
11/11/2014  01:06:00       53.623       49.721      -12.010       28.269       18.292       18.593      799.155      334.614      345.685        0.349        0.074       73.127        8.847        0.015      333.905        3.526      857.680
11/11/2014  01:07:00       34.707       41.529       -2.590       23.697       25.288       23.006      561.549      639.468      529.279        0.233        0.087       54.122       19.694        0.132      333.732        3.239      857.699
11/11/2014  01:08:00       54.735       44.634        3.017       28.897       21.454       20.742      835.036      460.253      430.239        0.336        0.086       70.626        6.793        0.009      333.657        3.115      857.716
11/11/2014  01:09:00       49.142       40.043        2.271       24.082       18.953       19.016      579.948      359.209      361.619        0.266        0.065       63.390       16.206        0.065      333.585        2.997      857.724
11/11/2014  01:10:00       39.197       17.360        4.744       26.940       14.162       13.394      725.767      200.563      179.412        0.148        0.055       42.869        9.363        0.048      333.643        3.093      857.716
11/11/2014  01:11:00       74.902       42.869        5.885       22.570       16.301       15.359      509.395      265.732      235.893        0.425        0.051       86.302       12.799        0.022      333.625        3.063      857.699
11/11/2014  01:12:00       29.008       33.847       -1.803       17.842       15.790       11.774      318.348      249.335      138.626        0.135        0.035       44.577       10.126        0.052      333.627        3.066      857.687
11/11/2014  01:13:00        4.650       41.018       -5.187        7.456        7.444        4.670       55.599       55.406       21.809        0.093        0.007       41.280        4.551        0.012      333.923        3.556      857.684
11/11/2014  01:14:00        4.227       41.975        1.774       12.970       25.662       10.544      168.212      658.519      111.176        0.136        0.047       42.187        8.416        0.040      333.923        3.557      857.669
11/11/2014  01:15:00       12.875       18.726        4.026       12.368       22.257        9.473      152.969      495.356       89.739        0.064        0.037       22.725       10.003        0.194      333.961        3.619      857.651
11/11/2014  01:16:00        3.742       25.915       -2.981       13.809       23.561        9.723      190.678      555.109       94.534        0.077        0.042       26.184       12.233        0.218      333.884        3.493      857.660
11/11/2014  01:17:00       21.262       66.457      -10.486       12.896       13.270        7.544      166.319      176.094       56.918        0.269        0.020       69.776        5.976        0.007      333.850        3.436      857.688
11/11/2014  01:18:00       21.070       44.719       -8.193       14.284       34.293       10.490      204.034     1175.992      110.041        0.200        0.075       49.434       13.724        0.077      333.777        3.316      857.692
11/11/2014  01:19:00       31.813       11.747       -9.262       13.622       13.679       11.277      185.563      187.109      127.169        0.087        0.025       33.912        9.350        0.076      333.743        3.258      857.684
11/11/2014  01:20:00        4.068        2.352       -3.686        8.645       15.357        9.033       74.735      235.826       81.596        0.021        0.020        4.699        9.426        4.024      333.823        3.391      857.661
11/11/2014  01:21:00       -7.203       20.374       -7.135       17.730       14.035       10.448      314.356      196.984      109.156        0.057        0.031       21.610        5.788        0.072      333.836        3.411      857.659
11/11/2014  01:22:00      -42.138       24.777       -7.512       12.174        8.751        6.923      148.200       76.580       47.928        0.136        0.014       48.883        4.350        0.008      333.835        3.410      857.663
11/11/2014  01:23:00      -51.263       20.004       -7.975        8.664        7.296        6.112       75.071       53.226       37.352        0.163        0.008       55.028        4.689        0.007      333.869        3.469      857.664
11/11/2014  01:24:00      -38.173        6.876       -2.673       12.857       10.634        7.764      165.315      113.086       60.276        0.093        0.017       38.788        7.442        0.037      334.016        3.711      857.646
11/11/2014  01:25:00      -47.162      -15.180       -5.795        9.033       11.253        8.344       81.593      126.631       69.620        0.138        0.014       49.545        5.188        0.011      334.072        3.803      857.641
11/11/2014  01:26:00      -80.317      -26.096      -13.177       14.649       11.127        8.324      214.583      123.821       69.283        0.386        0.020       84.450        4.751        0.003      334.057        3.779      857.661
11/11/2014  01:27:00      -93.261      -22.063      -14.669       13.951       12.220        8.962      194.632      149.319       80.312        0.491        0.021       95.835        6.738        0.005      333.880        3.486      857.700
11/11/2014  01:28:00      -72.547       -5.466      -13.173       15.750       15.427       10.419      248.049      238.007      108.554        0.303        0.030       72.753        3.177        0.002      333.899        3.518      857.704
11/11/2014  01:29:00      -25.307       -2.056       -4.738       10.826       12.323       10.346      117.207      151.866      107.031        0.052        0.019       25.391        8.903        0.123      334.058        3.781      857.680
11/11/2014  01:30:00      -13.243        0.141       -7.359       11.543        8.706        9.000      133.233       75.789       81.004        0.026        0.015       13.244        4.875        0.135      334.045        3.759      857.676
11/11/2014  01:31:00       -8.036       23.511      -10.627       23.550       24.650       14.108      554.581      607.600      199.048        0.105        0.068       24.846        8.434        0.115      334.352        4.268      857.697
11/11/2014  01:32:00       12.667       21.427        4.140       19.842       21.763       11.158      393.701      473.621      124.500        0.081        0.050       24.891       10.579        0.181      334.231        4.066      857.713
11/11/2014  01:33:00       23.164        8.493        9.078       14.535       19.522       11.276      211.255      381.123      127.142        0.071        0.036       24.672       12.078        0.240      334.059        3.782      857.693
11/11/2014  01:34:00       -1.748        0.825       19.648        5.546        8.610        5.987       30.758       74.131       35.846        0.027        0.007        1.933        1.649        0.728      333.988        3.667      857.672
11/11/2014  01:35:00      -10.460      -11.650       -8.493        9.851        7.283        8.845       97.040       53.039       78.227        0.027        0.011       15.656        6.608        0.178      334.095        3.842      857.664
11/11/2014  01:36:00      -33.669       -9.859       -2.521       11.649       12.253        8.022      135.710      150.128       64.349        0.079        0.018       35.083        5.412        0.024      334.012        3.704      857.662
11/11/2014  01:37:00      -67.633       -6.274       -8.654       22.056       15.706       11.714      486.458      246.692      137.215        0.278        0.044       67.923       10.993        0.026      333.811        3.371      857.634
11/11/2014  01:38:00      -92.327      -20.949      -12.314       19.024       17.737       14.071      361.911      314.594      197.999        0.499        0.044       94.674        9.628        0.010      333.531        2.906      857.606
11/11/2014  01:39:00      -55.735      -31.678       -7.732       32.339       22.584       11.493     1045.811      510.059      132.088        0.293        0.084       64.108        9.278        0.021      333.740        3.253      857.589
11/11/2014  01:40:00        7.575      -31.981        1.788       13.716       10.170       12.660      188.130      103.428      160.281        0.077        0.023       32.865       10.257        0.097      333.972        3.637      857.587
11/11/2014  01:41:00        3.708      -37.465        0.404       10.885       11.936        9.712      118.485      142.458       94.317        0.089        0.018       37.648        5.125        0.019      334.218        4.047      857.609
11/11/2014  01:42:00      -16.263      -25.190       -2.601       24.746       18.014       11.448      612.355      324.504      131.068        0.099        0.053       29.983        5.250        0.031      334.317        4.212      857.617
11/11/2014  01:43:00      -56.893        9.664        0.285       11.679       14.324        8.596      136.400      205.178       73.889        0.187        0.021       57.708        8.805        0.023      334.083        3.821      857.613
11/11/2014  01:44:00      -55.028        3.635       -7.850        8.039       11.723        7.662       64.627      137.418       58.703        0.168        0.013       55.148        4.240        0.006      333.959        3.617      857.613
11/11/2014  01:45:00      -20.870      -29.723        1.945       20.458       14.077       11.543      418.513      198.152      133.235        0.104        0.037       36.318       11.263        0.096      333.868        3.465      857.629
11/11/2014  01:46:00      -21.654      -38.903       -1.796       22.846       20.166       15.189      521.921      406.686      230.695        0.157        0.058       44.523        8.703        0.038      333.893        3.506      857.643
11/11/2014  01:47:00     -101.474      -24.963       -3.058       30.354       15.784       11.762      921.384      249.136      138.355        0.612        0.065      104.499       11.665        0.012      333.766        3.296      857.639
11/11/2014  01:48:00     -100.195      -40.109       -2.411       16.201       21.438       12.701      262.461      459.583      161.310        0.627        0.044      107.925       10.246        0.009      333.794        3.342      857.636
11/11/2014  01:49:00     -110.083      -50.360       -9.506       13.406       12.359        9.411      179.722      152.736       88.574        0.758        0.021      121.056        5.444        0.002      333.846        3.428      857.639
11/11/2014  01:50:00      -97.019      -67.453       -7.680       15.309       12.867       10.177      234.376      165.557      103.581        0.726        0.025      118.164        6.558        0.003      333.832        3.406      857.652
11/11/2014  01:51:00      -66.882      -41.935        6.619       33.940       27.110       19.265     1151.904      734.931      371.146        0.427        0.113       78.941       19.843        0.063      333.861        3.453      857.675
11/11/2014  01:52:00      -45.432      -30.504        5.944       31.051       20.217       16.252      964.158      408.708      264.121        0.233        0.082       54.723       15.390        0.079      333.863        3.458      857.684
11/11/2014  01:53:00      -63.007      -38.574        2.009       29.500       20.274       15.544      870.270      411.045      241.623        0.349        0.076       73.877       14.463        0.038      333.882        3.490      857.685
11/11/2014  01:54:00      -49.727      -34.199       -1.658       26.810       16.487       12.339      718.783      271.833      152.261        0.239        0.057       60.352        9.288        0.024      333.879        3.484      857.684
11/11/2014  01:55:00      -40.992      -14.590        0.207       17.347       12.686        8.427      300.928      160.925       71.014        0.121        0.027       43.512        8.776        0.041      333.920        3.551      857.682
11/11/2014  01:56:00      -71.807       11.359       -6.157       17.552       14.509        8.154      308.078      210.503       66.492        0.295        0.029       72.700        7.617        0.011      333.855        3.446      857.690
11/11/2014  01:57:00      -91.520      -12.588       -9.091       13.072       18.648        8.860      170.866      347.749       78.502        0.461        0.030       92.382        7.082        0.006      333.915        3.544      857.713
11/11/2014  01:58:00      -79.802      -40.948      -17.272       18.664       12.642        9.577      348.334      159.824       91.728        0.447        0.030       89.694        4.738        0.003      333.790        3.336      857.728
11/11/2014  01:59:00      -70.619      -33.464       -8.333       27.237       20.705       12.593      741.828      428.707      158.580        0.375        0.066       78.147        7.299        0.009      333.642        3.090      857.740
11/11/2014  02:00:00     -112.789      -15.770       -9.257       26.088       20.339       15.250      680.595      413.661      232.565        0.719        0.066      113.886       15.482        0.018      333.573        2.976      857.760
11/11/2014  02:01:00      -83.528      -63.038      -11.139       28.014       25.281       19.845      784.808      639.140      393.842        0.645        0.091      104.645       16.860        0.026      333.542        2.925      857.754
11/11/2014  02:02:00      -11.616      -19.405       19.102       27.804       21.843       26.068      773.036      477.097      679.532        0.140        0.096       22.616       18.701        0.684      333.610        3.039      857.747
11/11/2014  02:03:00      -16.798      -18.401       10.898       33.964       26.625       18.179     1153.540      708.912      330.469        0.147        0.110       24.916       12.636        0.257      333.630        3.071      857.750
11/11/2014  02:04:00      -45.402      -18.559        0.648       39.334       16.148       18.366     1547.129      260.752      337.307        0.228        0.107       49.049       10.864        0.049      333.614        3.045      857.754
11/11/2014  02:05:00      -37.889      -25.080        0.795       38.551       20.375       16.130     1486.144      415.161      260.171        0.211        0.108       45.437       22.029        0.235      333.531        2.908      857.769
11/11/2014  02:06:00      -86.327      -44.321       -9.258       28.346       22.949       15.161      803.478      526.663      229.852        0.553        0.078       97.040        9.310        0.009      333.536        2.914      857.769
11/11/2014  02:07:00      -80.910      -17.243       -9.298       36.829       23.164       14.506     1356.371      536.584      210.429        0.452        0.105       82.727        9.337        0.013      333.473        2.811      857.770
11/11/2014  02:08:00      -87.898      -28.892      -10.819       40.786       22.882       17.345     1663.474      523.598      300.842        0.558        0.124       92.524       15.734        0.029      333.451        2.775      857.777
11/11/2014  02:09:00        6.109      -22.624       10.997       31.067       16.895       19.152      965.160      285.451      366.791        0.114        0.081       23.434       19.406        0.686      333.456        2.782      857.789
11/11/2014  02:10:00       13.654      -10.094        1.737       17.425       15.766       16.156      303.614      248.570      261.012        0.055        0.041       16.980        9.807        0.334      333.481        2.823      857.796
11/11/2014  02:11:00      -48.322      -19.984       -4.996       26.306       27.591       15.184      692.027      761.264      230.564        0.222        0.084       52.291       15.737        0.091      333.446        2.765      857.795
11/11/2014  02:12:00      -71.124      -38.182      -10.057       30.630       19.300       15.655      938.189      372.474      245.094        0.409        0.078       80.725        7.330        0.008      333.440        2.755      857.788
11/11/2014  02:13:00      -28.722      -27.141        2.323       25.449       21.811       17.882      647.627      475.732      319.762        0.150        0.072       39.517       10.961        0.077      333.400        2.688      857.795
11/11/2014  02:14:00      -33.072      -34.800       -1.747       23.376       15.920       13.280      546.457      253.453      176.366        0.164        0.049       48.009       12.983        0.073      333.497        2.850      857.796
11/11/2014  02:15:00        5.536      -29.092        6.970       19.738       16.889       11.672      389.604      285.227      136.232        0.087        0.041       29.614       10.245        0.120      333.523        2.893      857.795
11/11/2014  02:16:00      -29.761      -24.948        4.121       25.673       16.514       14.948      659.096      272.707      223.439        0.134        0.058       38.834       16.107        0.172      333.511        2.872      857.805
11/11/2014  02:17:00      -81.131      -29.259       -8.416       15.383       12.469        8.178      236.622      155.480       66.882        0.398        0.023       86.246        6.629        0.006      333.600        3.022      857.818
11/11/2014  02:18:00      -97.708      -28.892      -14.436        7.765        9.158        8.072       60.295       83.861       65.154        0.540        0.010      101.890        4.801        0.002      333.628        3.067      857.834
11/11/2014  02:19:00      -94.517      -34.065      -15.170        8.857       11.027        6.127       78.445      121.586       37.537        0.528        0.012      100.468        5.671        0.003      333.563        2.961      857.835
11/11/2014  02:20:00      -82.191      -42.048      -12.617       11.783        9.313        7.143      138.850       86.726       51.018        0.448        0.014       92.322        4.969        0.003      333.582        2.989      857.841
11/11/2014  02:21:00      -43.846      -44.875       -6.284       31.061       13.874        8.985      964.798      192.498       80.729        0.261        0.062       62.740        3.876        0.004      333.681        3.154      857.847
11/11/2014  02:22:00       -6.362      -34.270        3.956       21.778       13.172       16.636      474.301      173.499      276.748        0.108        0.046       34.855       11.192        0.103      333.718        3.216      857.833
11/11/2014  02:23:00      -28.073      -22.746       -0.729       18.079       10.098        9.483      326.855      101.966       89.933        0.091        0.026       36.131        7.343        0.041      333.825        3.395      857.821
11/11/2014  02:24:00      -58.298      -16.159       -6.503       15.649       12.727        7.893      244.883      161.982       62.298        0.209        0.023       60.496        3.494        0.003      333.766        3.295      857.824
11/11/2014  02:25:00      -86.491      -43.684       -0.022       28.011       21.892       15.435      784.633      479.254      238.230        0.545        0.075       96.896        9.714        0.010      333.561        2.957      857.832
11/11/2014  02:26:00      -89.413      -27.578      -10.137       17.925       21.068       16.084      321.301      443.841      258.710        0.494        0.051       93.569        8.165        0.008      333.474        2.812      857.835
11/11/2014  02:27:00      -87.357      -13.804      -11.468       24.022       17.786       16.635      577.042      316.329      276.731        0.456        0.059       88.441       15.390        0.030      333.486        2.830      857.834
11/11/2014  02:28:00      -91.023      -38.058      -12.413       19.685       15.155       12.290      387.507      229.671      151.056        0.533        0.038       98.659        9.158        0.009      333.414        2.712      857.833
11/11/2014  02:29:00     -113.126      -41.882       -5.792       15.756       21.778       11.557      248.236      474.290      133.563        0.772        0.043      120.630        5.575        0.002      333.395        2.681      857.841
11/11/2014  02:30:00     -100.722      -33.224       -5.355       21.521       17.433       15.873      463.147      303.895      251.938        0.615        0.051      106.060        9.397        0.008      333.386        2.666      857.853
11/11/2014  02:31:00      -79.091      -42.158        4.000       41.162       23.058       17.665     1694.277      531.661      312.048        0.529        0.127       89.626       17.679        0.039      333.358        2.620      857.866
11/11/2014  02:32:00      -82.228      -47.188        6.839       49.501       31.416       20.376     2450.301      986.973      415.183        0.644        0.193       94.805       22.993        0.059      333.408        2.703      857.895
11/11/2014  02:33:00     -103.049      -60.334        0.206       31.846       28.755       18.084     1014.162      826.822      327.020        0.821        0.108      119.413       15.669        0.017      333.467        2.801      857.898
11/11/2014  02:34:00      -72.677      -47.323        5.992       45.886       30.102       22.733     2105.560      906.137      516.789        0.554        0.176       86.726       24.307        0.079      333.390        2.673      857.912
11/11/2014  02:35:00      -46.925      -42.372       12.663       43.249       30.873       21.266     1870.433      953.123      452.232        0.372        0.164       63.224       21.866        0.120      333.431        2.742      857.916
11/11/2014  02:36:00      -46.673      -53.152        8.359       39.348       25.838       22.526     1548.301      667.577      507.438        0.390        0.136       70.735       24.555        0.121      333.585        2.995      857.916
11/11/2014  02:37:00      -56.348      -40.953        6.029       35.742       25.225       18.693     1277.459      636.307      349.446        0.358        0.113       69.658       19.067        0.075      333.651        3.105      857.919
11/11/2014  02:38:00      -10.936      -40.006       12.773       53.453       33.025       25.621     2857.190     1090.627      656.443        0.324        0.230       41.473       27.156        0.429      333.621        3.054      857.941
11/11/2014  02:39:00      -84.699      -86.886       -4.219       44.694       37.421       20.452     1997.575     1400.305      418.292        0.928        0.191      121.339       23.293        0.037      333.571        2.972      857.953
11/11/2014  02:40:00     -105.221      -71.564      -11.360       22.753       25.388       14.058      517.721      644.547      197.639        0.884        0.068      127.252        4.706        0.001      333.536        2.914      857.959
11/11/2014  02:41:00      -71.005      -54.951        3.452       43.771       33.955       23.747     1915.858     1152.939      563.932        0.585        0.182       89.785       22.022        0.060      333.463        2.794      857.963
11/11/2014  02:42:00     -101.931      -53.051       -2.936       28.645       18.708       15.047      820.528      349.976      226.418        0.730        0.070      114.910       12.929        0.013      333.322        2.564      857.979
11/11/2014  02:43:00      -47.548      -42.696       -1.110       43.648       21.385       21.155     1905.129      457.339      447.547        0.345        0.141       63.904       22.949        0.129      333.410        2.707      857.984
11/11/2014  02:44:00      -29.949      -39.131        7.373       32.742       28.676       18.675     1072.060      822.334      348.758        0.236        0.112       49.277       15.605        0.100      333.462        2.794      857.974
11/11/2014  02:45:00      -51.109      -71.028        3.821       34.867       34.852       21.975     1215.732     1214.671      482.896        0.529        0.146       87.505       21.306        0.059      333.480        2.822      857.975
11/11/2014  02:46:00      -78.414      -46.768        4.903       49.325       29.859       20.273     2432.969      891.547      410.978        0.605        0.187       91.302       18.372        0.040      333.422        2.725      857.970
11/11/2014  02:47:00      -80.695      -43.440        6.234       36.530       24.521       19.987     1334.445      601.259      399.485        0.539        0.117       91.644       20.137        0.048      333.380        2.656      857.962
11/11/2014  02:48:00      -73.051      -36.542        5.619       35.232       32.153       18.294     1241.296     1033.845      334.667        0.466        0.130       81.681       19.515        0.057      333.394        2.681      857.973
11/11/2014  02:49:00      -16.352      -18.289        7.799       35.460       32.434       25.664     1257.427     1051.978      658.653        0.181        0.148       24.533       20.759        0.716      333.406        2.700      857.998
11/11/2014  02:50:00       -8.054      -26.887       12.894       30.795       21.807       20.771      948.342      475.562      431.426        0.140        0.093       28.067       18.703        0.444      333.499        2.853      858.004
11/11/2014  02:51:00      -31.400      -35.059        5.447       32.017       22.524       20.837     1025.089      507.341      434.180        0.211        0.098       47.065       17.278        0.135      333.460        2.789      858.001
11/11/2014  02:52:00      -43.579      -17.665        0.953       30.863       18.724       13.335      952.501      350.576      177.817        0.185        0.074       47.023       16.985        0.130      333.500        2.854      858.004
11/11/2014  02:53:00      -54.493      -29.068        5.600       31.473       13.643       14.183      990.566      186.140      201.147        0.261        0.069       61.761       13.086        0.045      333.505        2.863      858.016
11/11/2014  02:54:00      -75.613      -26.990       -2.655       24.162       16.208       14.064      583.787      262.689      197.788        0.375        0.052       80.286       11.380        0.020      333.485        2.831      858.036
11/11/2014  02:55:00     -104.048      -21.122       -1.933       31.155       25.364       16.721      970.607      643.339      279.599        0.658        0.095      106.171       13.758        0.017      333.337        2.585      858.062
11/11/2014  02:56:00     -120.507      -38.541       -9.483       28.189       25.574       14.965      794.644      654.010      223.957        0.888        0.084      126.521       15.920        0.016      333.198        2.355      858.082
11/11/2014  02:57:00      -95.108      -26.972       -2.528       37.974       21.635       19.542     1442.016      468.087      381.903        0.604        0.115       98.858       20.816        0.044      333.141        2.261      858.087
11/11/2014  02:58:00      -95.156      -29.964       -2.805       34.497       19.305       17.099     1190.022      372.680      292.387        0.591        0.093       99.762       17.678        0.031      333.144        2.267      858.087
11/11/2014  02:59:00     -108.317      -17.902       -1.768       21.320       18.719       17.285      454.560      350.385      298.759        0.658        0.055      109.786       12.352        0.013      333.197        2.353      858.093
11/11/2014  03:00:00     -103.572      -18.572       -1.487       33.938       24.455       15.874     1151.779      598.036      251.994        0.654        0.100      105.224       17.570        0.028      333.147        2.270      858.092
11/11/2014  03:01:00      -93.960      -34.902       -1.438       24.559       17.896       16.762      603.161      320.282      280.951        0.563        0.060      100.233       14.427        0.021      333.254        2.447      858.074
11/11/2014  03:02:00      -78.486      -45.914        4.858       28.464       21.243       19.522      810.181      451.282      381.089        0.497        0.082       90.929       17.848        0.039      333.367        2.634      858.051
11/11/2014  03:03:00      -74.295      -28.309        0.447       31.549       21.230       15.884      995.338      450.725      252.292        0.401        0.085       79.506       10.630        0.018      333.282        2.495      858.034
11/11/2014  03:04:00      -98.016      -33.116       -9.277       17.823       20.380       12.777      317.654      415.325      163.262        0.584        0.045      103.459       10.565        0.010      333.216        2.385      858.032
11/11/2014  03:05:00      -84.830      -33.069       -2.495       17.111       16.711       11.503      292.786      279.244      132.314        0.450        0.035       91.048        8.788        0.009      333.321        2.561      858.036
11/11/2014  03:06:00      -49.744      -27.888        3.876       15.655       16.407       10.480      245.066      269.197      109.822        0.195        0.031       57.028        8.109        0.020      333.394        2.679      858.041
11/11/2014  03:07:00      -46.213      -16.097       -2.688       16.987       17.170       10.570      288.557      294.798      111.723        0.155        0.035       48.936       11.150        0.052      333.330        2.573      858.032
11/11/2014  03:08:00      -12.129       -2.104        2.094       14.646       12.802        9.250      214.519      163.897       85.560        0.031        0.023       12.310        7.861        0.408      333.248        2.438      858.030
11/11/2014  03:09:00      -46.192       -1.254       -3.997       14.565       12.554        8.619      212.128      157.613       74.290        0.130        0.022       46.209        5.588        0.015      333.338        2.587      858.017
11/11/2014  03:10:00      -62.934      -23.544       -2.367       20.530       11.173        8.231      421.467      124.837       67.757        0.257        0.031       67.193        9.470        0.020      333.367        2.636      858.009
11/11/2014  03:11:00      -76.761      -26.914      -11.117        9.361       11.403        8.774       87.631      130.034       76.983        0.352        0.015       81.343        5.106        0.004      333.242        2.428      857.998
11/11/2014  03:12:00      -69.784      -28.149       -4.681       34.432       23.127       11.613     1185.580      534.875      134.869        0.377        0.093       75.248        9.829        0.017      333.184        2.331      857.992
11/11/2014  03:13:00     -133.328      -37.649       -8.850       23.632       20.540       11.401      558.453      421.872      129.978        1.019        0.056      138.542       12.431        0.008      333.202        2.361      857.988
11/11/2014  03:14:00     -110.240      -58.701       -0.205       51.796       31.819       22.446     2682.843     1012.440      503.816        0.990        0.210      124.895       23.357        0.035      333.097        2.190      857.972
11/11/2014  03:15:00     -104.572      -61.036      -12.081       40.561       27.101       21.227     1645.230      734.451      450.586        0.882        0.142      121.081       15.391        0.016      332.981        1.996      857.958
11/11/2014  03:16:00     -113.701      -39.478        0.174       49.603       51.011       26.320     2460.411     2602.141      692.740        1.012        0.288      120.359       28.483        0.056      332.933        1.919      857.947
11/11/2014  03:17:00     -134.847      -19.281       -3.321       46.882       29.851       25.914     2197.943      891.066      671.546        1.116        0.188      136.218       29.290        0.046      333.014        2.052      857.957
11/11/2014  03:18:00     -103.408      -27.374        1.315       35.415       29.009       21.694     1254.193      841.507      470.638        0.700        0.128      106.970       19.273        0.032      332.984        2.002      857.941
11/11/2014  03:19:00     -135.238      -16.586       -9.037       32.935       26.205       20.642     1084.731      686.696      426.108        1.042        0.110      136.251       18.931        0.019      332.941        1.932      857.926
11/11/2014  03:20:00     -139.981      -32.678       -6.642       37.220       34.467       22.146     1385.319     1187.941      490.461        1.188        0.153      143.745       16.396        0.013      332.899        1.863      857.925
11/11/2014  03:21:00     -117.885      -80.670        6.056       51.364       34.910       25.287     2638.261     1218.709      639.432        1.247        0.225      142.845       21.292        0.022      333.133        2.248      857.946
11/11/2014  03:22:00      -99.029      -65.788       -0.073       49.035       36.869       26.958     2404.421     1359.314      726.717        0.931        0.225      118.890       25.362        0.046      333.153        2.281      857.955
11/11/2014  03:23:00      -79.103      -56.131       -1.657       53.440       32.211       25.114     2855.806     1037.554      630.689        0.697        0.226       96.995       24.071        0.062      333.233        2.413      857.946
11/11/2014  03:24:00     -115.481      -41.830      -11.142       23.738       23.467       16.466      563.470      550.713      271.138        0.830        0.069      122.823       10.280        0.007      333.154        2.283      857.941
11/11/2014  03:25:00      -83.860      -31.871       -1.868       35.340       20.803       16.644     1248.939      432.748      277.038        0.500        0.098       89.712       16.705        0.035      333.092        2.180      857.936
11/11/2014  03:26:00      -94.963      -41.127       -6.180       23.596       21.997       17.964      556.768      483.849      322.707        0.606        0.068      103.486       12.065        0.014      333.067        2.141      857.934
11/11/2014  03:27:00      -94.042      -15.174       -8.936       27.791       27.237       19.073      772.360      741.860      363.777        0.552        0.094       95.259       17.105        0.032      332.925        1.904      857.919
11/11/2014  03:28:00     -110.789      -18.454      -12.223       18.038       16.042       14.725      325.362      257.352      216.839        0.678        0.040      112.315       10.080        0.008      332.923        1.901      857.902
11/11/2014  03:29:00     -117.214      -26.346       -3.525       35.014       29.025       20.321     1225.957      842.442      412.954        0.846        0.124      120.139       21.240        0.031      332.926        1.905      857.893
11/11/2014  03:30:00     -138.063      -44.133      -12.567       42.801       37.318       26.186     1831.951     1392.646      685.715        1.254        0.196      144.945       27.297        0.035      332.941        1.932      857.909
11/11/2014  03:31:00     -108.136      -27.166        0.444       52.841       42.406       26.580     2792.188     1798.294      706.502        0.886        0.265      111.496       28.590        0.066      332.888        1.845      857.902
11/11/2014  03:32:00      -86.438      -24.486       -2.203       57.390       37.985       22.180     3293.586     1442.837      491.964        0.665        0.261       89.839       24.579        0.075      332.864        1.805      857.883
11/11/2014  03:33:00     -132.595      -57.866       -9.625       31.974       29.318       18.337     1022.325      859.558      336.231        1.162        0.111      144.672       16.882        0.014      332.865        1.806      857.863
11/11/2014  03:34:00     -163.552      -38.983      -12.131       30.945       34.708       20.617      957.606     1204.618      425.041        1.550        0.129      168.134       15.767        0.009      332.827        1.743      857.877
11/11/2014  03:35:00     -101.285      -39.328       -5.318       46.742       44.496       25.195     2184.791     1979.919      634.788        0.832        0.240      108.652       19.159        0.031      332.877        1.825      857.887
11/11/2014  03:36:00      -45.382      -25.958        4.005       30.153       23.770       22.189      909.224      565.029      492.343        0.236        0.098       52.281       18.552        0.126      332.918        1.895      857.872
11/11/2014  03:37:00      -51.706      -36.214       -8.023       39.841       21.602       18.117     1587.322      466.628      328.235        0.322        0.119       63.126       19.012        0.091      333.001        2.031      857.862
11/11/2014  03:38:00      -56.879      -37.176        3.790       39.356       28.580       21.082     1548.892      816.825      444.459        0.372        0.141       67.951       23.596        0.121      332.989        2.010      857.855
11/11/2014  03:39:00     -108.592      -40.980      -11.536       22.246       24.426       12.144      494.897      596.640      147.472        0.742        0.062      116.067       12.045        0.011      332.978        1.992      857.842
11/11/2014  03:40:00     -104.154      -44.905       -7.234       15.180       21.934       13.258      230.441      481.084      175.765        0.690        0.044      113.421        7.563        0.004      333.019        2.060      857.827
11/11/2014  03:41:00     -110.734      -43.436      -14.668       16.934       18.307       11.687      286.765      335.159      136.585        0.756        0.038      118.948        6.574        0.003      333.020        2.062      857.836
11/11/2014  03:42:00     -114.519      -45.588       -9.044       21.997       19.880       17.562      483.871      395.234      308.426        0.823        0.059      123.259       13.823        0.013      333.008        2.043      857.837
11/11/2014  03:43:00      -90.886      -34.297       -4.082       36.170       29.580       20.148     1308.282      874.972      405.942        0.602        0.129       97.142       13.689        0.020      332.947        1.940      857.829
11/11/2014  03:44:00     -100.035      -30.648       -3.957       22.245       19.679       17.297      494.826      387.249      299.184        0.607        0.059      104.624        6.655        0.004      333.023        2.068      857.830
11/11/2014  03:45:00     -106.645      -44.740      -11.941       34.303       23.347       13.150     1176.694      545.074      172.926        0.771        0.095      115.649        6.263        0.003      333.041        2.095      857.828
11/11/2014  03:46:00     -115.646      -48.088      -11.307       17.117       15.967       11.519      293.005      254.942      132.679        0.825        0.034      125.245        7.399        0.003      332.980        1.997      857.832
11/11/2014  03:47:00      -73.234      -46.442       -6.593       30.188       20.716       13.808      911.311      429.168      190.659        0.455        0.077       86.719       10.716        0.015      332.975        1.989      857.838
11/11/2014  03:48:00      -86.503      -49.931       -7.831       30.099       18.411       12.481      905.931      338.954      155.770        0.572        0.070       99.879        7.925        0.006      332.917        1.894      857.839
11/11/2014  03:49:00      -88.454      -57.690        1.604       38.523       22.874       18.811     1484.009      523.231      353.851        0.676        0.118      105.604       16.981        0.026      332.870        1.814      857.824
11/11/2014  03:50:00      -72.392      -41.481        3.827       48.869       26.152       21.577     2388.188      683.917      465.572        0.526        0.177       83.434       23.574        0.080      332.807        1.711      857.812
11/11/2014  03:51:00     -105.791      -58.004       -6.025       20.530       15.730       13.429      421.501      247.420      180.340        0.772        0.042      120.649       12.392        0.011      332.802        1.703      857.791
11/11/2014  03:52:00      -93.635      -54.498       -6.369       17.735       14.177       12.613      314.544      200.999      159.077        0.623        0.034      108.340        7.935        0.005      332.822        1.735      857.787
11/11/2014  03:53:00      -98.294      -44.424      -14.316       10.818       13.366        9.652      117.027      178.643       93.164        0.611        0.019      107.867        5.786        0.003      332.769        1.648      857.781
11/11/2014  03:54:00      -76.722      -33.848       -0.735       26.458       21.584       15.763      700.005      465.858      248.484        0.422        0.071       83.857       12.750        0.023      332.774        1.656      857.778
11/11/2014  03:55:00      -11.164      -20.201       15.323       30.249       25.130       19.445      915.009      631.528      378.126        0.135        0.096       23.081       16.701        0.524      332.768        1.646      857.781
11/11/2014  03:56:00      -49.936      -69.542        3.074       32.290       34.971       21.746     1042.662     1222.954      472.888        0.504        0.137       85.614       21.430        0.063      332.806        1.709      857.781
11/11/2014  03:57:00      -59.971      -55.649      -10.008       23.827       24.565       17.575      567.726      603.458      308.864        0.414        0.074       81.813       15.571        0.036      332.886        1.841      857.773
11/11/2014  03:58:00      -41.014      -36.422       -1.794       25.993       15.839       14.584      675.635      250.882      212.680        0.208        0.057       54.852        8.681        0.025      332.917        1.891      857.772
11/11/2014  03:59:00      -64.385      -51.695        2.105       26.148       24.665       17.494      683.729      608.364      306.047        0.421        0.080       82.570       10.573        0.016      332.852        1.786      857.782
11/11/2014  04:00:00      -56.156      -43.191        4.283       24.224       22.065       13.589      586.805      486.880      184.656        0.315        0.063       70.845       10.499        0.022      332.817        1.727      857.799
11/11/2014  04:01:00      -22.801      -21.391       -5.210       17.290       15.895       10.303      298.939      252.655      106.161        0.083        0.033       31.264        8.833        0.080      332.858        1.795      857.812
11/11/2014  04:02:00      -27.149      -30.451        1.144       11.592       21.129       12.936      134.365      446.440      167.341        0.121        0.037       40.797        7.805        0.037      332.879        1.829      857.810
11/11/2014  04:03:00        1.829      -27.792       -7.152       11.595       24.929       15.779      134.433      621.475      248.961        0.092        0.050       27.852       17.440        0.392      332.913        1.885      857.800
11/11/2014  04:04:00      -17.952      -33.586       -3.250       27.068       27.127       18.471      732.686      735.886      341.162        0.163        0.090       38.082       11.768        0.095      332.954        1.954      857.809
11/11/2014  04:05:00      -66.673      -70.228        0.846       50.573       36.775       21.917     2557.608     1352.393      480.376        0.688        0.220       96.837       16.677        0.030      332.829        1.748      857.825
11/11/2014  04:06:00      -76.977      -89.714       -7.821       40.774       39.048       22.634     1662.507     1524.750      512.311        0.887        0.185      118.212       22.354        0.036      332.680        1.501      857.828
11/11/2014  04:07:00      -48.853      -81.356       -1.017       44.771       26.837       24.415     2004.415      720.226      596.099        0.616        0.166       94.897       21.806        0.053      332.752        1.619      857.808
11/11/2014  04:08:00      -22.512      -53.453       -2.214       25.549       31.934       14.720      652.754     1019.755      216.682        0.263        0.094       58.000        3.709        0.004      332.828        1.746      857.797
11/11/2014  04:09:00      -21.035      -47.568       -4.705       25.308       25.948       17.854      640.500      673.302      318.776        0.218        0.082       52.012       15.230        0.086      332.911        1.883      857.805
11/11/2014  04:10:00      -25.445      -73.946       -5.388       23.519       32.998       17.682      553.120     1088.894      312.653        0.405        0.098       78.201       10.992        0.020      332.902        1.868      857.811
11/11/2014  04:11:00      -18.877      -38.301       -2.468       20.295       25.171       17.165      411.891      633.572      294.651        0.158        0.067       42.700        8.323        0.038      332.920        1.897      857.818
11/11/2014  04:12:00      -44.536      -23.847       -0.723       30.514       24.905       16.023      931.104      620.244      256.751        0.218        0.090       50.518        9.939        0.039      332.847        1.776      857.819
11/11/2014  04:13:00      -78.581      -21.091        0.613       23.757       20.148       16.106      564.380      405.956      259.408        0.392        0.061       81.362        9.852        0.015      332.711        1.552      857.820
11/11/2014  04:14:00      -40.911      -23.976       -8.031       31.491       16.020       16.241      991.682      256.645      263.775        0.191        0.076       47.418        9.654        0.041      332.727        1.579      857.822
11/11/2014  04:15:00       -4.413      -13.612        9.968       25.221       20.984       15.055      636.080      440.339      226.654        0.080        0.065       14.310       14.307        1.000      332.742        1.605      857.826
11/11/2014  04:16:00      -36.400      -14.782       10.040       33.066       26.407       17.367     1093.335      697.343      301.601        0.187        0.105       39.287       13.359        0.116      332.693        1.522      857.821
11/11/2014  04:17:00      -53.295      -25.545        3.475       36.084       21.136       17.927     1302.064      446.738      321.369        0.279        0.104       59.101       13.993        0.056      332.664        1.474      857.828
11/11/2014  04:18:00      -40.814      -49.641        2.839       39.204       42.769       17.782     1536.935     1829.204      316.213        0.391        0.184       64.265       15.042        0.055      332.694        1.522      857.823
11/11/2014  04:19:00      -63.716      -59.396        7.279       54.599       33.960       22.182     2981.055     1153.264      492.052        0.613        0.231       87.107       26.456        0.092      332.663        1.471      857.812
11/11/2014  04:20:00      -61.610      -54.179        9.797       48.448       43.213       23.989     2347.203     1867.346      575.490        0.581        0.240       82.044       22.934        0.078      332.626        1.411      857.810
11/11/2014  04:21:00      -58.612      -63.869        8.370       59.906       36.218       29.996     3588.775     1311.760      899.734        0.669        0.290       86.687       31.847        0.135      332.721        1.568      857.841
11/11/2014  04:22:00      -89.417      -71.413        6.062       31.977       39.384       23.451     1022.521     1551.110      549.972        0.813        0.156      114.434       18.406        0.026      332.647        1.445      857.866
11/11/2014  04:23:00      -59.863      -31.414        1.356       45.691       23.781       22.674     2087.702      565.524      514.125        0.387        0.158       67.605       23.498        0.121      332.664        1.474      857.871
11/11/2014  04:24:00      -27.779      -33.850        7.080       33.174       22.519       22.153     1100.508      507.120      490.757        0.203        0.105       43.789       20.682        0.223      332.666        1.477      857.870
11/11/2014  04:25:00      -27.701      -31.193        5.137       40.489       29.466       20.610     1639.357      868.225      424.764        0.235        0.147       41.717       17.326        0.172      332.609        1.383      857.859
11/11/2014  04:26:00      -38.955      -15.400        9.526       33.980       20.033       21.952     1154.618      401.305      481.890        0.194        0.102       41.889       18.250        0.190      332.548        1.282      857.843
11/11/2014  04:27:00      -63.341       -0.551       -0.419       20.964       20.111       13.968      439.510      404.468      195.094        0.253        0.052       63.343        8.057        0.016      332.603        1.374      857.839
11/11/2014  04:28:00      -47.492      -39.330       -1.632       37.592       22.711       17.499     1413.150      515.770      306.204        0.302        0.112       61.663       15.572        0.064      332.627        1.412      857.843
11/11/2014  04:29:00       -1.086      -15.673        9.874       23.804       20.722       15.490      566.640      429.408      239.937        0.079        0.062       15.711       14.244        0.822      332.658        1.466      857.836
11/11/2014  04:30:00      -17.537      -16.008       -4.436       16.557       14.945        9.795      274.141      223.358       95.934        0.059        0.030       23.744        6.266        0.070      332.625        1.411      857.829
11/11/2014  04:31:00      -18.289      -16.452        0.620       15.248       15.952       12.027      232.491      254.477      144.644        0.062        0.032       24.600        4.951        0.041      332.622        1.405      857.838
11/11/2014  04:32:00      -40.026      -16.687        3.542       27.041       21.922       17.439      731.193      480.564      304.120        0.170        0.076       43.365       16.146        0.139      332.630        1.417      857.847
11/11/2014  04:33:00      -38.521      -30.283       13.883       44.536       21.953       20.271     1983.425      481.949      410.927        0.273        0.144       48.999       23.944        0.239      332.661        1.469      857.842
11/11/2014  04:34:00      -17.771      -30.148        9.501       35.461       21.316       17.315     1257.486      454.387      299.824        0.166        0.101       34.996       19.572        0.313      332.675        1.492      857.830
11/11/2014  04:35:00      -19.912      -27.232       11.498       25.724       19.950       15.620      661.748      397.992      243.983        0.129        0.065       33.735       15.696        0.216      332.717        1.563      857.831
11/11/2014  04:36:00      -51.765      -47.268        2.781       38.907       20.903       21.901     1513.739      436.934      479.661        0.368        0.122       70.099       22.219        0.100      332.664        1.474      857.858
11/11/2014  04:37:00      -88.970      -48.099       -9.560       17.160       15.245       12.431      294.465      232.412      154.540        0.550        0.034      101.139        5.175        0.003      332.595        1.360      857.863
11/11/2014  04:38:00      -58.438       11.435       -6.369       21.740       32.851        9.941      472.634     1079.167       98.827        0.262        0.083       59.546        4.481        0.006      332.539        1.268      857.865
11/11/2014  04:39:00      -63.455       13.556       -0.356       15.299       11.714        8.122      234.073      137.220       65.973        0.232        0.022       64.887        6.213        0.009      332.566        1.312      857.873
11/11/2014  04:40:00      -62.499      -20.573       -8.436       18.026       16.065       10.573      324.939      258.092      111.786        0.255        0.035       65.798        5.650        0.007      332.568        1.314      857.884
11/11/2014  04:41:00      -45.676       -4.789       -2.505       14.940       18.558       10.884      223.205      344.393      118.451        0.140        0.034       45.927        8.142        0.031      332.453        1.124      857.875
11/11/2014  04:42:00      -30.978       29.314       -0.318       12.939        9.354        4.917      167.414       87.499       24.180        0.105        0.014       42.649        5.012        0.014      332.430        1.088      857.854
11/11/2014  04:43:00       14.350       23.576       10.549       16.317       12.513       12.360      266.260      156.583      152.780        0.072        0.029       27.600        8.599        0.097      332.419        1.068      857.840
11/11/2014  04:44:00       -5.581        6.401        2.364        8.754        9.871        9.084       76.635       97.435       82.527        0.017        0.013        8.492        6.998        0.679      332.400        1.037      857.853
11/11/2014  04:45:00      -40.070        6.208       -0.423        9.208       11.727        8.385       84.787      137.534       70.308        0.097        0.015       40.548        2.217        0.003      332.485        1.178      857.862
11/11/2014  04:46:00      -38.909        8.037       -4.594        8.601        8.997        5.964       73.976       80.947       35.568        0.090        0.010       39.730        2.701        0.005      332.398        1.034      857.865
11/11/2014  04:47:00      -37.736       12.684       -5.551       10.290       14.133        8.298      105.879      199.735       68.850        0.099        0.019       39.810        4.925        0.015      332.433        1.091      857.859
11/11/2014  04:48:00      -30.240       10.252       -3.915       19.820       13.233        8.027      392.830      175.119       64.439        0.083        0.032       31.931        5.802        0.033      332.456        1.130      857.866
11/11/2014  04:49:00      -57.957        7.757       -7.922       11.464       14.425       11.437      131.435      208.093      130.803        0.198        0.024       58.474        8.134        0.019      332.491        1.189      857.875
11/11/2014  04:50:00      -46.116      -10.422       -4.992        7.207       14.278       11.425       51.935      203.860      130.531        0.132        0.019       47.279        4.474        0.009      332.453        1.124      857.875
11/11/2014  04:51:00      -62.361      -27.220       -8.243       26.173       14.502        8.416      685.037      210.303       70.822        0.283        0.048       68.043        4.913        0.005      332.444        1.110      857.874
11/11/2014  04:52:00      -78.065       -9.197      -10.589       15.116       12.714       11.818      228.504      161.658      139.669        0.341        0.026       78.605        9.791        0.016      332.373        0.992      857.882
11/11/2014  04:53:00      -66.682       -7.446       -6.765       15.556       13.826       11.668      241.979      191.148      136.146        0.256        0.028       67.096        9.904        0.022      332.385        1.013      857.888
11/11/2014  04:54:00      -76.156       -8.330      -10.774       12.407       10.567        9.286      153.927      111.670       86.223        0.317        0.018       76.611        6.023        0.006      332.475        1.161      857.883
11/11/2014  04:55:00      -86.435      -23.014      -10.082       15.941       15.830       12.065      254.128      250.577      145.574        0.438        0.033       89.446        8.460        0.009      332.512        1.222      857.904
11/11/2014  04:56:00     -105.411      -12.565      -10.286       31.346       18.671       15.379      982.557      348.618      236.525        0.647        0.078      106.157       15.999        0.023      332.223        0.746      857.935
11/11/2014  04:57:00      -39.367        4.766       -1.004       29.496       16.916       15.849      869.987      286.162      251.187        0.149        0.070       39.655       13.101        0.109      332.177        0.670      857.930
11/11/2014  04:58:00      -52.462        5.567      -14.296       17.418       18.517        8.317      303.399      342.879       69.174        0.185        0.036       52.757        4.530        0.007      332.351        0.957      857.911
11/11/2014  04:59:00      -88.766        3.058       -7.724       34.412       15.236       15.427     1184.204      232.141      238.004        0.480        0.083       88.819       16.476        0.034      332.492        1.190      857.922
11/11/2014  05:00:00      -78.660        5.712       -9.415       39.977       18.357       15.152     1598.137      336.970      229.578        0.424        0.108       78.867       17.195        0.048      332.398        1.035      857.946
11/11/2014  05:01:00      -93.016       39.187      -11.186       41.305       25.761       23.350     1706.108      663.653      545.242        0.661        0.146      100.934       22.291        0.049      332.523        1.241      857.936
11/11/2014  05:02:00      -78.244       35.208      -13.508       20.071       16.265       15.734      402.849      264.543      247.560        0.423        0.046       85.801       10.957        0.016      332.587        1.347      857.926
11/11/2014  05:03:00      -73.129       28.961      -13.892       22.684       20.587       15.800      514.568      423.831      249.626        0.378        0.059       78.655       11.864        0.023      332.604        1.376      857.942
11/11/2014  05:04:00      -60.868      -12.525      -11.050       23.980       35.198       13.007      575.061     1238.890      169.176        0.298        0.099       62.144       10.367        0.028      332.603        1.373      857.967
11/11/2014  05:05:00      -25.749      -41.832       -7.283       38.343       15.694       14.678     1470.182      246.287      215.429        0.220        0.097       49.121       15.584        0.101      332.533        1.256      857.960
11/11/2014  05:06:00        4.052       -4.420        1.565       12.334       12.261       10.795      152.116      150.331      116.533        0.023        0.021        5.996        4.803        0.642      332.616        1.395      857.933
11/11/2014  05:07:00       -9.595       10.393       19.978       14.150       17.763       16.960      200.224      315.526      287.634        0.070        0.040       14.145       15.588        1.214      332.587        1.347      857.907
11/11/2014  05:08:00      -58.708      -23.306      -10.096       32.966       17.721       15.351     1086.768      314.030      235.666        0.286        0.082       63.165       11.049        0.031      332.689        1.516      857.927
11/11/2014  05:09:00      -99.518      -40.084      -11.103       28.750       20.793       12.738      826.585      432.343      162.267        0.653        0.071      107.287        7.270        0.005      332.348        0.953      857.953
11/11/2014  05:10:00      -59.188      -32.037       -3.786       19.080       14.688       10.788      364.056      215.725      116.385        0.262        0.035       67.303        5.464        0.007      332.416        1.064      857.953
11/11/2014  05:11:00      -35.952      -31.352       -2.007       11.306        9.131        8.958      127.817       83.368       80.242        0.129        0.015       47.702        3.238        0.005      332.527        1.246      857.949
11/11/2014  05:12:00      -34.892      -22.417       -6.294       13.944        7.997        8.304      194.439       63.953       68.962        0.104        0.016       41.472        6.371        0.024      332.676        1.495      857.944
11/11/2014  05:13:00      -39.200      -28.874       -2.564       22.106       17.744       13.094      488.679      314.841      171.460        0.168        0.049       48.686       10.245        0.044      332.678        1.498      857.947
11/11/2014  05:14:00      -62.783      -33.886       -6.888       11.764       11.608        9.157      138.398      134.742       83.851        0.275        0.018       71.345        3.763        0.003      332.614        1.391      857.934
11/11/2014  05:15:00      -19.908      -13.199       -2.094       20.828       11.449        7.480      433.822      131.091       55.956        0.060        0.031       23.886        2.741        0.013      332.638        1.431      857.913
11/11/2014  05:16:00       -8.233        0.835        7.771        7.440       11.774       12.815       55.356      138.621      164.214        0.024        0.018        8.275        9.255        1.251      332.761        1.633      857.894
11/11/2014  05:17:00        0.197      -25.969        0.695       11.849       20.581       18.409      140.388      423.587      338.880        0.079        0.045       25.970       15.970        0.378      332.817        1.727      857.901
11/11/2014  05:18:00      -25.599      -13.811       -2.918       17.781       10.672        7.175      316.162      113.882       51.485        0.067        0.024       29.087        4.708        0.026      332.830        1.749      857.908
11/11/2014  05:19:00      -47.873      -14.562       -2.120       16.314       12.531        9.487      266.154      157.015       90.000        0.151        0.026       50.039        6.785        0.018      332.625        1.407      857.914
11/11/2014  05:20:00      -76.808      -18.518       -4.667       15.009       17.964        9.788      225.284      322.702       95.812        0.345        0.032       79.009        8.020        0.010      332.590        1.351      857.938
11/11/2014  05:21:00      -82.101       -9.210       -5.229       22.698       13.535       13.775      515.180      183.192      189.755        0.387        0.044       82.616       11.665        0.020      332.464        1.143      857.975
11/11/2014  05:22:00      -81.166       -1.730       -9.854       21.360       14.438       17.034      456.248      208.469      290.158        0.382        0.048       81.185       15.012        0.034      332.477        1.164      858.010
11/11/2014  05:23:00      -87.635       -8.007       -9.410       16.656       18.132       12.453      277.424      328.761      155.082        0.430        0.038       88.000        8.962        0.010      332.567        1.313      858.031
11/11/2014  05:24:00      -88.176        6.907       -6.916       12.183       14.660        9.122      148.436      214.928       83.213        0.416        0.022       88.446        7.195        0.007      332.544        1.276      858.036
11/11/2014  05:25:00      -64.823       -6.461      -10.854       14.555       10.457        9.141      211.842      109.353       83.551        0.238        0.020       65.144        6.938        0.011      332.572        1.320      858.024
11/11/2014  05:26:00      -45.169       -6.296       -8.729       12.255       11.007        6.639      150.184      121.143       44.078        0.124        0.016       45.606        5.249        0.013      332.480        1.171      858.023
11/11/2014  05:27:00      -55.691      -20.467       -5.199       17.358       11.574        8.889      301.295      133.959       79.006        0.203        0.026       59.333        2.994        0.003      332.421        1.073      858.026
11/11/2014  05:28:00      -73.218       -9.848      -12.940       15.761       14.713       12.626      248.422      216.482      159.414        0.312        0.031       73.877        4.358        0.003      332.226        0.752      858.043
11/11/2014  05:29:00      -69.135       -1.652      -13.186       14.591       16.459        9.141      212.909      270.904       83.551        0.276        0.028       69.155        7.228        0.011      332.187        0.686      858.052
11/11/2014  05:30:00      -57.966      -13.214       -8.044       14.200       14.118        9.195      201.639      199.325       84.547        0.204        0.024       59.453        4.289        0.005      332.200        0.709      858.040
11/11/2014  05:31:00      -86.961      -28.002      -10.526       16.118       16.808        9.420      259.790      282.513       88.745        0.454        0.032       91.358        7.694        0.007      332.176        0.670      858.037
11/11/2014  05:32:00      -83.334      -48.046       -9.381       15.473       16.294       12.461      239.427      265.502      155.285        0.500        0.033       96.193        8.630        0.008      332.148        0.622      858.031
11/11/2014  05:33:00      -72.503      -42.493       -6.812       19.529       14.932       11.938      381.375      222.961      142.518        0.393        0.037       84.038        6.013        0.005      332.174        0.664      858.015
11/11/2014  05:34:00      -73.744       -5.206       -5.335       11.518       11.082        7.921      132.665      122.805       62.740        0.291        0.016       73.927        2.726        0.001      332.233        0.763      857.992
11/11/2014  05:35:00      -47.022      -11.399       -4.184       11.374       10.677        7.979      129.369      114.002       63.664        0.133        0.015       48.383        3.039        0.004      332.363        0.976      857.991
11/11/2014  05:36:00      -41.311      -28.315       -0.735       29.026       14.817       15.301      842.514      219.532      234.117        0.190        0.065       50.083       16.713        0.111      332.438        1.100      858.005
11/11/2014  05:37:00      -36.131      -18.694        2.773       23.487       15.951       13.222      551.624      254.445      174.814        0.132        0.049       40.681       11.385        0.078      332.377        1.000      858.031
11/11/2014  05:38:00      -83.199      -40.808       -4.760       19.205       11.354        9.829      368.836      128.915       96.600        0.460        0.030       92.668        9.335        0.010      332.335        0.930      858.042
11/11/2014  05:39:00      -77.812      -44.616       -7.040       16.407       21.813       13.475      269.176      475.814      181.589        0.451        0.046       89.696        7.946        0.008      332.385        1.012      858.033
11/11/2014  05:40:00     -101.987        3.050       -7.797       32.602       15.365       16.549     1062.913      236.093      273.872        0.602        0.079      102.033       17.763        0.030      332.152        0.628      858.027
11/11/2014  05:41:00      -91.110      -11.088       -3.277       42.894       23.320       22.179     1839.873      543.800      491.912        0.565        0.144       91.782       23.439        0.065      332.062        0.481      858.041
11/11/2014  05:42:00     -110.916      -27.973       -6.740       46.108       33.402       20.590     2125.958     1115.709      423.934        0.840        0.183      114.389       19.129        0.028      332.014        0.402      858.057
11/11/2014  05:43:00     -139.970      -34.161       -5.441       36.231       37.536       21.420     1312.717     1408.929      458.836        1.198        0.159      144.079       19.011        0.017      331.938        0.275      858.080
11/11/2014  05:44:00     -123.265      -39.147       -7.280       25.178       28.501       16.478      633.909      812.301      271.524        0.925        0.086      129.332       13.957        0.012      332.022        0.413      858.088
11/11/2014  05:45:00      -72.644      -39.852       -1.947       27.690       26.527       16.500      766.761      703.695      272.249        0.431        0.087       82.857       11.600        0.020      332.131        0.595      858.091
11/11/2014  05:46:00     -105.441       -6.641       -8.144       26.747       19.444       15.877      715.378      378.062      252.084        0.629        0.067      105.650       14.577        0.019      332.020        0.411      858.092
11/11/2014  05:47:00      -86.251       -6.132       -6.615       34.188       19.528       17.085     1168.790      381.325      291.890        0.468        0.092       86.469       18.556        0.046      332.014        0.401      858.096
11/11/2014  05:48:00      -76.979       -6.110       -5.876       21.188       15.358       12.165      448.915      235.883      147.985        0.342        0.042       77.221        7.041        0.008      332.131        0.595      858.097
11/11/2014  05:49:00      -92.046      -11.567       -5.570       17.559       14.231       12.570      308.331      202.516      158.012        0.465        0.033       92.770       11.157        0.014      332.153        0.631      858.098
11/11/2014  05:50:00      -85.946      -24.036       -4.206       24.462       13.094       10.822      598.414      171.465      117.106        0.443        0.044       89.243       11.369        0.016      332.138        0.607      858.099
11/11/2014  05:51:00      -50.373      -24.583       -1.944       24.502       21.852       11.561      600.363      477.513      133.662        0.218        0.061       56.052        9.104        0.026      332.242        0.777      858.092
11/11/2014  05:52:00      -99.973      -27.783       -1.758       23.339       19.765       14.915      544.726      390.672      222.471        0.596        0.058      103.761       13.776        0.018      332.132        0.596      858.098
11/11/2014  05:53:00     -118.677      -42.709       -6.250       21.286       25.714       14.663      453.084      661.186      214.995        0.864        0.066      126.128       10.052        0.006      332.113        0.566      858.104
11/11/2014  05:54:00     -111.915      -57.784       -5.512       17.713       20.273       12.265      313.746      411.009      150.440        0.838        0.044      125.952       10.586        0.007      332.109        0.560      858.119
11/11/2014  05:55:00      -63.013      -47.063        4.569       42.052       21.517       17.187     1768.407      462.999      295.381        0.437        0.126       78.649       17.984        0.052      332.207        0.721      858.128
11/11/2014  05:56:00      -37.861      -14.509        1.253       27.621       15.876       14.793      762.947      252.038      218.838        0.144        0.062       40.546       14.743        0.132      332.262        0.810      858.109
11/11/2014  05:57:00      -86.197      -39.739       -8.027       15.764       13.675        9.193      248.512      187.002       84.504        0.480        0.026       94.916        3.208        0.001      332.318        0.905      858.093
11/11/2014  05:58:00     -107.041      -26.435      -11.033       18.437       21.064       11.236      339.906      443.708      126.250        0.659        0.045      110.257        9.098        0.007      332.231        0.760      858.099
11/11/2014  05:59:00     -104.071       -7.374       -8.111       35.305       19.543       18.690     1246.415      381.939      349.324        0.646        0.099      104.332       21.791        0.044      332.007        0.390      858.096
11/11/2014  06:00:00      -92.409      -11.381       -7.722       34.606       21.849       15.380     1197.590      477.400      236.534        0.532        0.096       93.107       18.189        0.038      331.991        0.363      858.090
11/11/2014  06:01:00     -105.093      -28.026      -10.282       27.497       18.437       14.600      756.058      339.918      213.158        0.662        0.065      108.765       12.509        0.013      332.085        0.520      858.104
11/11/2014  06:02:00      -88.072      -64.387      -11.274       42.265       22.108       17.588     1786.306      488.748      309.338        0.731        0.129      109.098       19.734        0.033      332.152        0.630      858.104
11/11/2014  06:03:00      -58.905      -39.818       -7.755       25.022       21.360       16.684      626.105      456.239      278.350        0.324        0.068       71.101       15.320        0.046      332.187        0.688      858.089
11/11/2014  06:04:00      -62.392      -20.096       -6.644       13.985       11.050        6.744      195.577      122.100       45.477        0.235        0.018       65.549        5.621        0.007      332.256        0.801      858.056
11/11/2014  06:05:00      -82.665      -12.451       -5.916       34.447       16.340       14.196     1186.564      267.008      201.539        0.434        0.083       83.598       14.619        0.031      332.247        0.787      858.036
11/11/2014  06:06:00     -142.518      -68.746       -5.068       29.008       32.704       21.165      841.453     1069.556      447.974        1.371        0.118      158.231       14.692        0.009      332.124        0.582      858.035
11/11/2014  06:07:00      -59.351      -56.481        0.999       37.109       32.851       17.731     1377.050     1079.175      314.391        0.474        0.139       81.931       20.227        0.061      332.082        0.514      858.017
11/11/2014  06:08:00      -87.432      -52.489       -6.121       31.248       23.151       11.324      976.436      535.972      128.226        0.604        0.082      101.977        5.413        0.003      332.161        0.644      857.993
11/11/2014  06:09:00      -52.020      -44.152        7.647       44.383       31.025       20.580     1969.853      962.544      423.552        0.403        0.168       68.231       20.448        0.090      332.192        0.694      857.984
11/11/2014  06:10:00      -20.124      -16.671        4.396       37.863       28.868       18.369     1433.600      833.340      337.406        0.165        0.130       26.133       21.828        0.698      332.242        0.777      857.971
11/11/2014  06:11:00      -34.359      -32.064        8.697       56.737       34.231       22.335     3219.039     1171.756      498.836        0.359        0.244       46.996       28.427        0.366      332.204        0.717      857.967
11/11/2014  06:12:00     -100.709      -48.167       -0.862       47.136       28.481       19.456     2221.768      811.140      378.549        0.794        0.171      111.635       20.880        0.035      332.203        0.715      857.996
11/11/2014  06:13:00      -92.284      -23.153      -11.087       26.056       19.818       14.625      678.908      392.762      213.894        0.523        0.064       95.144       14.171        0.022      332.171        0.661      858.005
11/11/2014  06:14:00      -62.526      -32.915       -0.270       24.546       23.245       14.496      602.489      540.325      210.132        0.317        0.068       70.660       10.819        0.023      332.204        0.714      858.004
11/11/2014  06:15:00      -91.532      -34.862       -2.239       25.183       21.904       16.952      634.202      479.787      287.381        0.550        0.070       97.946       16.806        0.029      332.305        0.882      858.004
11/11/2014  06:16:00      -57.559      -46.975       -1.380       33.156       21.903       18.772     1099.340      479.758      352.400        0.373        0.097       74.295       12.917        0.030      332.189        0.690      857.999
11/11/2014  06:17:00      -57.554      -77.976       -0.698       57.345       48.702       24.706     3288.427     2371.862      610.404        0.783        0.314       96.916       23.705        0.060      332.138        0.605      857.973
11/11/2014  06:18:00     -109.637      -83.333       -1.900       66.120       42.897       36.278     4371.860     1840.177     1316.066        1.325        0.376      137.713       38.069        0.076      332.092        0.529      857.976
11/11/2014  06:19:00     -125.207     -107.498        1.330       88.429       61.215       33.021     7819.618     3747.238     1090.380        1.994        0.633      165.023       36.600        0.049      332.118        0.572      857.989
11/11/2014  06:20:00     -178.270      -98.498       -8.160       48.699       47.051       29.312     2371.633     2213.815      859.173        2.350        0.272      203.672       18.041        0.008      332.060        0.476      857.975
11/11/2014  06:21:00     -115.261      -41.788        3.844       51.057       39.528       24.918     2606.818     1562.451      620.900        0.992        0.240      122.602       25.595        0.044      332.046        0.454      857.941
11/11/2014  06:22:00     -137.754      -62.560        2.249       47.830       35.489       22.862     2287.681     1259.473      522.671        1.348        0.203      151.294       14.323        0.009      332.101        0.544      857.943
11/11/2014  06:23:00     -110.907      -62.513        5.587       65.021       34.339       26.487     4227.684     1179.174      701.540        1.117        0.305      127.312       29.053        0.052      332.061        0.479      857.940
11/11/2014  06:24:00      -64.003      -45.873        0.662       40.561       30.835       22.233     1645.201      950.790      494.294        0.465        0.155       78.745       24.212        0.095      332.121        0.579      857.930
11/11/2014  06:25:00      -98.823      -18.609       -3.354       35.952       23.213       19.786     1292.563      538.832      391.503        0.617        0.111      100.560       14.249        0.020      332.148        0.624      857.917
11/11/2014  06:26:00     -105.062      -25.258        0.153       45.233       31.253       22.950     2046.063      976.722      526.723        0.761        0.177      108.056       23.805        0.049      332.019        0.409      857.889
11/11/2014  06:27:00     -106.703      -40.275       -1.199       40.778       35.458       23.953     1662.840     1257.246      573.752        0.825        0.175      114.051       23.476        0.042      331.999        0.376      857.870
11/11/2014  06:28:00      -82.131      -42.112        8.775       52.536       36.426       25.166     2760.026     1326.847      633.341        0.666        0.236       92.298       28.254        0.094      332.018        0.407      857.871
11/11/2014  06:29:00      -99.306      -49.110        3.064       41.268       31.154       18.631     1703.083      970.583      347.111        0.765        0.151      110.786       19.762        0.032      332.003        0.382      857.894
11/11/2014  06:30:00     -152.255      -22.148      -10.400       38.264       29.994       24.248     1464.104      899.636      587.965        1.337        0.148      153.857       18.690        0.015      331.914        0.237      857.899
11/11/2014  06:31:00     -112.236      -18.390       -0.874       42.574       32.873       23.239     1812.504     1080.654      540.072        0.818        0.172      113.733       21.562        0.036      331.764       -0.010      857.901
11/11/2014  06:32:00     -138.636      -14.069      -12.656       35.828       31.524       25.220     1283.619      993.732      636.045        1.125        0.146      139.348       21.885        0.025      331.747       -0.039      857.902
11/11/2014  06:33:00     -130.990       -7.162      -17.553       29.169       18.894       17.104      850.820      356.969      292.546        0.951        0.075      131.186       10.213        0.006      331.739       -0.052      857.888
11/11/2014  06:34:00     -121.875      -18.067       -4.861       40.565       27.089       22.445     1645.497      733.807      503.763        0.904        0.144      123.207       22.852        0.034      331.774        0.007      857.884
11/11/2014  06:35:00     -127.287      -11.964       -6.664       26.832       31.396       22.044      719.964      985.684      485.947        0.929        0.110      127.848       21.274        0.028      331.770       -0.000      857.895
11/11/2014  06:36:00     -108.301      -28.122       -7.684       18.445       23.723       13.969      340.202      562.771      195.134        0.684        0.055      111.893       11.125        0.010      331.827        0.093      857.887
11/11/2014  06:37:00      -92.618      -23.911       -4.614       22.624       18.474       16.373      511.842      341.276      268.081        0.515        0.056       95.655        9.817        0.011      331.906        0.223      857.871
11/11/2014  06:38:00      -87.409      -29.270       -4.966       23.358       18.105       16.224      545.593      327.805      263.223        0.483        0.057       92.179       15.042        0.027      331.931        0.264      857.871
11/11/2014  06:39:00      -67.077      -20.542       -8.785       24.422       19.161       11.961      596.443      367.157      143.056        0.305        0.055       70.152       11.547        0.027      331.902        0.217      857.874
11/11/2014  06:40:00      -68.700      -28.322       -9.732       16.933       15.481        8.692      286.741      239.661       75.559        0.311        0.030       74.309        5.496        0.005      331.895        0.205      857.880
11/11/2014  06:41:00      -63.655      -15.503       -8.373       20.880       14.048       11.047      435.973      197.334      122.035        0.256        0.038       65.515        5.380        0.007      331.921        0.247      857.889
11/11/2014  06:42:00      -73.905       18.240       -5.011       15.642       14.909       11.485      244.662      222.293      131.915        0.321        0.030       76.122        8.441        0.012      331.878        0.177      857.888
11/11/2014  06:43:00      -76.109        1.849       -4.500       14.794       15.684       10.804      218.872      245.976      116.735        0.320        0.029       76.131        7.641        0.010      331.948        0.292      857.894
11/11/2014  06:44:00      -50.988       -5.805        1.273       18.793       16.257       11.705      353.176      264.302      137.017        0.169        0.038       51.317        8.852        0.030      331.972        0.332      857.891
11/11/2014  06:45:00      -67.504      -34.628       -6.682       22.312       19.229       14.455      497.823      369.749      208.956        0.344        0.054       75.867       14.990        0.039      331.970        0.330      857.894
11/11/2014  06:46:00      -77.748      -26.123       -9.347       22.698       18.880       11.454      515.210      356.471      131.190        0.391        0.050       82.019       11.926        0.021      331.995        0.370      857.903
11/11/2014  06:47:00      -60.178      -13.568       -4.419       19.139       13.307       10.926      366.285      177.071      119.387        0.224        0.033       61.689       10.760        0.030      332.132        0.596      857.892
11/11/2014  06:48:00      -56.677      -30.151       -4.905       10.933       17.475        9.529      119.531      305.377       90.809        0.233        0.026       64.198        5.510        0.007      332.204        0.717      857.899
11/11/2014  06:49:00      -74.161      -12.960       -1.728       21.246       20.010       11.788      451.406      400.394      138.957        0.333        0.050       75.285       12.683        0.028      332.114        0.568      857.913
11/11/2014  06:50:00      -66.737       12.813      -11.219       30.975       21.144       15.445      959.472      447.081      238.546        0.319        0.082       67.955       14.164        0.043      331.901        0.214      857.916
11/11/2014  06:51:00      -34.757       -7.225       -9.090       21.405       19.793       14.015      458.181      391.748      196.409        0.119        0.052       35.500       12.999        0.134      331.955        0.303      857.923
11/11/2014  06:52:00      -42.467       -6.855       -1.037       19.380       17.421       17.323      375.599      303.474      300.094        0.142        0.049       43.016       12.804        0.089      331.879        0.179      857.909
11/11/2014  06:53:00       -9.860       -3.050       -3.816       13.273       20.535        7.203      176.185      421.691       51.889        0.039        0.032       10.321        7.844        0.578      331.996        0.372      857.902
11/11/2014  06:54:00      -17.929       10.068       -8.314       12.589        8.925        7.026      158.472       79.661       49.364        0.039        0.014       20.563        6.071        0.087      332.038        0.443      857.904
11/11/2014  06:55:00      -45.523       -4.021      -10.237       21.317       10.547        7.379      454.423      111.233       54.444        0.141        0.031       45.700        3.986        0.008      332.169        0.656      857.903
11/11/2014  06:56:00      -92.840       -4.852       -9.655       18.160       12.274       10.958      329.787      150.656      120.082        0.467        0.030       92.966        4.821        0.003      331.962        0.314      857.903
11/11/2014  06:57:00      -59.439      -11.112       -0.563       22.865       22.375       12.498      522.815      500.625      156.197        0.242        0.059       60.469       10.596        0.031      331.972        0.331      857.914
11/11/2014  06:58:00      -80.417      -24.465       -9.245       26.770       17.323       12.058      716.634      300.075      145.388        0.416        0.058       84.056        9.765        0.013      331.999        0.376      857.919
11/11/2014  06:59:00      -49.009      -17.587        1.680       19.542       18.207       14.206      381.898      331.483      201.821        0.181        0.046       52.069        4.909        0.009      332.053        0.466      857.924
11/11/2014  07:00:00      -32.647      -14.960       -8.028       21.828       11.500       16.108      476.473      132.247      259.453        0.111        0.043       35.911        8.235        0.053      332.107        0.555      857.946
11/11/2014  07:01:00      -30.151      -15.513       -5.598       22.305       12.034       11.025      497.518      144.827      121.552        0.097        0.038       33.908       10.712        0.100      332.069        0.494      857.959
11/11/2014  07:02:00      -29.869      -18.817       -6.508       15.013       10.193        8.591      225.395      103.902       73.803        0.085        0.020       35.302        6.202        0.031      332.115        0.568      857.957
11/11/2014  07:03:00      -22.375       -7.537       -4.312       21.991        9.641       10.945      483.593       92.957      119.802        0.064        0.035       23.610       10.185        0.186      332.307        0.883      857.958
11/11/2014  07:04:00      -44.946       -0.357       -8.073        9.161       10.947       11.577       83.929      119.827      134.031        0.121        0.017       44.947        6.144        0.019      332.219        0.741      857.983
11/11/2014  07:05:00      -27.768      -19.241       -0.619       12.458        8.653        6.754      155.211       74.877       45.615        0.071        0.014       33.783        6.382        0.036      332.217        0.738      857.987
11/11/2014  07:06:00       11.700        0.360        6.602       22.764       12.759       10.431      518.192      162.794      108.815        0.049        0.039       11.705        8.888        0.577      332.355        0.964      857.987
11/11/2014  07:07:00       52.131       30.068        5.873       17.738       16.843       11.716      314.620      283.693      137.260        0.220        0.037       60.181        6.028        0.010      332.399        1.036      857.972
11/11/2014  07:08:00       67.604       39.648       -5.224       17.727       15.280       11.407      314.252      233.468      130.123        0.342        0.034       78.373        7.294        0.009      332.246        0.785      857.981
11/11/2014  07:09:00       53.067       22.614       -2.250       19.797       13.990       13.003      391.906      195.729      169.070        0.204        0.038       57.684       13.208        0.052      332.299        0.870      858.004
11/11/2014  07:10:00       55.107       22.890       -1.660        8.401       10.551       13.716       70.575      111.325      188.136        0.197        0.019       59.672        8.067        0.018      332.409        1.051      858.033
11/11/2014  07:11:00       81.738       48.144       13.296       22.422       24.114       18.331      502.763      581.495      336.009        0.530        0.071       94.863       10.222        0.012      332.460        1.138      858.072
11/11/2014  07:12:00       73.864       59.181       23.833       32.966       20.397       24.686     1086.767      416.027      609.400        0.582        0.106       94.648       21.538        0.052      332.456        1.130      858.083
11/11/2014  07:13:00       99.336       53.840       20.202       33.651       38.743       25.807     1132.415     1500.987      666.020        0.824        0.165      112.988       21.198        0.035      332.382        1.007      858.078
11/11/2014  07:14:00       69.693       21.553       18.933       47.032       41.519       33.985     2212.038     1723.796     1154.995        0.538        0.255       72.950       22.825        0.098      332.380        1.005      858.079
11/11/2014  07:15:00      100.161       68.542       21.745       35.039       35.308       26.725     1227.700     1246.634      714.203        0.920        0.159      121.368       10.155        0.007      332.366        0.981      858.069
11/11/2014  07:16:00       69.210       65.190       57.419       59.783       40.675       46.992     3574.050     1654.494     2208.202        0.989        0.372       95.077       39.990        0.177      332.349        0.953      858.075
11/11/2014  07:17:00       57.793       31.199       23.930       50.753       37.975       39.486     2575.884     1442.126     1559.122        0.523        0.279       65.676       26.642        0.165      332.320        0.905      858.104
11/11/2014  07:18:00       38.461       44.872       30.551       30.241       31.044       24.772      914.515      963.747      613.638        0.346        0.125       59.099       18.252        0.095      332.374        0.996      858.128
11/11/2014  07:19:00       86.895       47.897       34.821       40.396       34.490       28.628     1631.830     1189.552      819.556        0.735        0.182       99.221       19.128        0.037      332.399        1.037      858.148
11/11/2014  07:20:00       61.848       41.808       50.355       58.849       37.247       31.412     3463.161     1387.322      986.745        0.697        0.292       74.653       31.518        0.178      332.453        1.125      858.158
11/11/2014  07:21:00       28.666       82.612       85.789       41.257       46.525       37.738     1702.138     2164.535     1424.179        1.015        0.265       87.444       30.421        0.121      332.584        1.342      858.141
11/11/2014  07:22:00       19.014       92.735       87.198       41.467       41.728       38.525     1719.503     1741.261     1484.209        1.075        0.247       94.664       24.727        0.068      332.549        1.283      858.158
11/11/2014  07:23:00       23.655       45.521       41.462       31.169       35.573       27.688      971.476     1265.438      766.636        0.368        0.150       51.300       22.445        0.191      332.533        1.256      858.207
11/11/2014  07:24:00       39.937        9.800       29.201       39.305       35.931       18.835     1544.871     1291.068      354.750        0.287        0.160       41.122       17.929        0.190      332.648        1.447      858.235
11/11/2014  07:25:00       62.238       41.171       39.986       46.194       32.012       30.869     2133.896     1024.738      952.894        0.564        0.206       74.624       26.212        0.123      332.555        1.292      858.244
11/11/2014  07:26:00       95.835       80.621       78.958       54.727       39.249       33.736     2995.013     1540.497     1138.107        1.379        0.284      125.236       29.062        0.054      332.451        1.122      858.223
11/11/2014  07:27:00       85.303       83.713       75.701       37.414       29.646       33.069     1399.811      878.863     1093.539        1.169        0.169      119.518       25.883        0.047      332.459        1.134      858.212
11/11/2014  07:28:00      102.298       59.029       29.939       38.256       29.416       30.400     1463.545      865.317      924.152        0.905        0.163      118.107       24.565        0.043      332.480        1.169      858.217
11/11/2014  07:29:00      105.023       76.599       42.272       35.241       24.956       32.571     1241.944      622.824     1060.864        1.080        0.146      129.989       21.192        0.027      332.542        1.271      858.226
11/11/2014  07:30:00       82.090       71.033       35.786       36.025       22.172       30.973     1297.824      491.590      959.321        0.791        0.137      108.556       19.865        0.033      332.628        1.414      858.234
11/11/2014  07:31:00       72.709       39.930       37.957       42.197       50.273       35.850     1780.563     2527.383     1285.228        0.696        0.280       82.952       34.019        0.168      332.629        1.416      858.218
11/11/2014  07:32:00       75.669       63.346       41.394       33.505       37.988       34.506     1122.614     1443.094     1190.664        0.760        0.188       98.683       27.666        0.079      332.620        1.400      858.215
11/11/2014  07:33:00       48.234       42.401       23.270       26.109       20.764       21.175      681.660      431.143      448.383        0.311        0.078       64.221       15.360        0.057      332.718        1.563      858.219
11/11/2014  07:34:00       12.885       18.077       53.992       27.449       25.713       17.118      753.451      661.143      293.022        0.256        0.085       22.199       13.722        0.382      332.993        2.015      858.226
11/11/2014  07:35:00       47.386       51.296       43.440       49.427       31.872       28.827     2443.052     1015.820      830.971        0.553        0.214       69.834       24.311        0.121      332.836        1.758      858.233
11/11/2014  07:36:00       57.157       54.992       29.461       26.797       24.539       22.648      718.053      602.155      512.933        0.450        0.092       79.316       12.366        0.024      332.830        1.747      858.246
11/11/2014  07:37:00       52.047       24.991       20.799       25.945       21.423       28.314      673.132      458.948      801.656        0.285        0.097       57.736       14.894        0.067      332.910        1.880      858.252
11/11/2014  07:38:00        7.778       19.360       18.006       14.675       23.690       23.558      215.349      561.210      554.990        0.105        0.067       20.864       12.903        0.382      333.014        2.053      858.260
11/11/2014  07:39:00        1.904       39.959       50.544       19.567       21.714       11.542      382.887      471.493      133.213        0.257        0.049       40.005       10.382        0.067      333.043        2.100      858.264
11/11/2014  07:40:00       25.181       35.751       45.514       33.264       24.109       17.951     1106.512      581.261      322.238        0.300        0.101       43.729       12.492        0.082      333.084        2.168      858.260
11/11/2014  07:41:00       29.774       33.663       33.502       20.800       23.006       20.479      432.652      529.275      419.393        0.226        0.069       44.941       19.765        0.193      332.969        1.975      858.258
11/11/2014  07:42:00       12.802       16.331       39.713       17.442       24.355       12.030      304.229      593.156      144.728        0.152        0.052       20.751       13.817        0.443      333.248        2.438      858.281
11/11/2014  07:43:00       22.694      -26.795       -5.045       14.849       18.508       13.946      220.478      342.559      194.480        0.101        0.038       35.114       11.217        0.102      333.221        2.395      858.294
11/11/2014  07:44:00        5.667        9.237       18.459       10.982       18.675       11.872      120.602      348.768      140.947        0.053        0.031       10.837        9.806        0.819      333.508        2.868      858.304
11/11/2014  07:45:00      -10.000        4.375       -4.717       11.767        8.971       14.318      138.453       80.482      204.995        0.028        0.021       10.915        6.127        0.315      333.364        2.630      858.335
11/11/2014  07:46:00       -2.818       14.211       15.163        8.213       14.217        8.792       67.449      202.133       77.299        0.039        0.017       14.487        7.372        0.259      333.533        2.911      858.348
11/11/2014  07:47:00        6.445        5.814       21.927       10.261        8.927        5.248      105.291       79.691       27.538        0.038        0.011        8.680        5.680        0.428      333.842        3.421      858.359
11/11/2014  07:48:00       14.979        8.767       12.221       15.574       12.890       13.992      242.538      166.148      195.780        0.053        0.030       17.356       10.221        0.347      333.638        3.084      858.359
11/11/2014  07:49:00      -13.095       36.713       -5.811       16.719       26.004       15.633      279.530      676.223      244.402        0.138        0.060       38.979       12.467        0.102      333.526        2.898      858.375
11/11/2014  07:50:00        1.394       53.533       -4.232       14.009       34.466       13.871      196.256     1187.905      192.398        0.223        0.079       53.551       17.182        0.103      333.617        3.048      858.373
11/11/2014  07:51:00        3.927       72.778       -6.538       17.018       19.068       14.089      289.613      363.571      198.498        0.310        0.043       72.884       11.964        0.027      333.705        3.195      858.358
11/11/2014  07:52:00      -11.562       59.441       -7.438       17.791       26.485       17.477      316.503      701.461      305.431        0.252        0.066       60.555       14.797        0.060      333.690        3.170      858.361
11/11/2014  07:53:00       -1.673       38.923        2.235       18.369       25.479       16.535      337.419      649.159      273.402        0.139        0.063       38.959       15.612        0.161      333.954        3.609      858.373
11/11/2014  07:54:00       14.207       24.501       13.392       26.043       28.623       20.253      678.253      819.304      410.191        0.144        0.095       28.323       17.118        0.365      333.820        3.385      858.376
11/11/2014  07:55:00       15.694       36.063       -8.731       18.842       14.170       12.500      355.039      200.792      156.250        0.117        0.036       39.330        6.192        0.025      333.936        3.579      858.383
11/11/2014  07:56:00       47.187       38.641        2.318       22.199       13.620       23.492      492.779      185.501      551.895        0.248        0.062       60.989       11.446        0.035      333.837        3.413      858.373
11/11/2014  07:57:00       58.705       45.922       35.061       30.038       22.468       28.578      902.297      504.795      816.726        0.450        0.111       74.533        9.119        0.015      333.956        3.611      858.345
11/11/2014  07:58:00       61.246       58.897       20.685       23.223       20.157       27.485      539.305      406.311      755.401        0.467        0.085       84.970        6.554        0.006      333.925        3.560      858.347
11/11/2014  07:59:00       48.596       34.856       27.661       19.147       22.762       19.077      366.609      518.086      363.932        0.279        0.062       59.804       15.616        0.068      334.091        3.835      858.333
11/11/2014  08:00:00       50.347       28.553       -3.719       17.128       11.616       10.974      293.375      134.938      120.422        0.196        0.027       57.880        5.303        0.008      333.923        3.557      858.306
11/11/2014  08:01:00       43.807       44.107        4.166       20.004       23.423       17.361      400.152      548.616      301.398        0.257        0.063       62.165        5.625        0.008      334.027        3.730      858.293
11/11/2014  08:02:00       20.321       34.146       38.189       25.813       23.964       19.780      666.323      574.267      391.252        0.233        0.082       39.736        9.755        0.060      334.347        4.260      858.319
11/11/2014  08:03:00       26.563       43.548       42.568       27.680       20.032       16.607      766.165      401.283      275.778        0.293        0.072       51.010        8.972        0.031      334.315        4.206      858.335
11/11/2014  08:04:00       11.382       23.957       31.110       21.937       19.129       23.721      481.214      365.926      562.680        0.154        0.070       26.524       12.947        0.238      334.415        4.374      858.348
11/11/2014  08:05:00       32.298       33.750       41.871       28.458       27.746       17.718      809.865      769.867      313.942        0.291        0.095       46.714        8.821        0.036      334.388        4.327      858.382
11/11/2014  08:06:00       74.874       63.298       35.182       23.467       20.651       20.786      550.695      426.454      432.040        0.613        0.070       98.045       13.788        0.020      334.030        3.734      858.408
11/11/2014  08:07:00       94.501       42.215       -6.328       35.817       25.945       24.068     1282.847      673.124      579.292        0.664        0.127      103.502        6.412        0.004      334.082        3.820      858.398
11/11/2014  08:08:00       86.818       53.579       25.032       28.340       28.412       28.781      803.158      807.218      828.341        0.674        0.122      102.020       13.736        0.018      334.238        4.079      858.380
11/11/2014  08:09:00       55.000       65.063       33.589       35.884       26.698       32.036     1287.630      712.759     1026.281        0.571        0.151       85.195       24.769        0.085      334.235        4.075      858.374
11/11/2014  08:10:00       54.045       63.954       62.749       30.813       27.067       22.151      949.437      732.615      490.665        0.656        0.109       83.731       12.831        0.023      334.207        4.028      858.356
11/11/2014  08:11:00       41.912       59.848       59.839       47.816       34.664       32.758     2286.322     1201.562     1073.080        0.674        0.228       73.064       31.018        0.180      334.378        4.310      858.340
11/11/2014  08:12:00       58.837       64.498       54.846       45.795       35.028       28.803     2097.189     1226.945      829.591        0.739        0.208       87.303       19.438        0.050      334.266        4.125      858.347
11/11/2014  08:13:00       95.552       51.578       40.275       21.492       33.394       28.025      461.920     1115.168      785.400        0.789        0.118      108.584       24.284        0.050      334.113        3.872      858.350
11/11/2014  08:14:00       26.373       51.262       59.271       35.807       34.488       32.310     1282.171     1189.439     1043.922        0.518        0.176       57.648       27.503        0.228      334.472        4.466      858.345
11/11/2014  08:15:00       31.818       42.093       58.788       46.461       42.467       39.240     2158.652     1803.467     1539.740        0.587        0.275       52.766       42.022        0.634      334.335        4.240      858.320
11/11/2014  08:16:00       36.318      -16.114       25.506       34.857       48.894       25.874     1215.033     2390.613      669.439        0.325        0.214       39.732       24.193        0.371      334.435        4.407      858.314
11/11/2014  08:17:00       -2.112        6.484       36.121       26.560       44.605       37.182      705.455     1989.637     1382.486        0.271        0.204        6.819       36.279       28.305      334.707        4.857      858.331
11/11/2014  08:18:00        5.681       -2.589       45.169       34.599       46.270       35.924     1197.080     2140.894     1290.558        0.335        0.231        6.244       28.675       21.092      334.741        4.913      858.346
11/11/2014  08:19:00       -0.188       61.513       84.905       27.207       42.215       28.511      740.210     1782.126      812.883        0.716        0.167       61.513       24.496        0.159      334.544        4.586      858.334
11/11/2014  08:20:00       16.192       58.037       62.998       24.284       29.143       21.489      589.714      849.326      461.793        0.475        0.095       60.254       18.720        0.097      334.532        4.566      858.308
11/11/2014  08:21:00       -0.965       44.533       66.365       25.546       42.404       22.513      652.573     1798.136      506.819        0.467        0.148       44.543       21.481        0.233      334.815        5.037      858.274
11/11/2014  08:22:00       19.476       37.729       49.812       28.962       38.920       31.623      838.822     1514.769     1000.027        0.382        0.168       42.459       25.404        0.358      334.649        4.760      858.259
11/11/2014  08:23:00        3.047      -50.222       13.512       30.481       44.152       33.553      929.085     1949.375     1125.772        0.336        0.200       50.315        8.824        0.031      334.774        4.969      858.248
11/11/2014  08:24:00       17.643       41.685       58.386       31.752       35.207       26.528     1008.219     1239.547      703.714        0.420        0.148       45.265       22.470        0.246      334.723        4.884      858.225
11/11/2014  08:25:00       25.794       55.833       60.922       37.618       34.452       25.387     1415.140     1186.948      644.523        0.537        0.162       61.503       20.995        0.117      334.548        4.594      858.231
11/11/2014  08:26:00       43.339      -13.383       14.137       34.472       29.083       26.859     1188.285      845.840      721.410        0.251        0.138       45.358       22.873        0.254      334.570        4.630      858.249
11/11/2014  08:27:00        6.602       10.246       35.048       21.612       28.229       30.074      467.065      796.900      904.428        0.177        0.108       12.189       20.929        2.948      335.028        5.391      858.252
11/11/2014  08:28:00       21.425       32.766       55.356       29.545       30.291       17.395      872.918      917.534      302.577        0.334        0.105       39.149       11.591        0.088      335.008        5.357      858.254
11/11/2014  08:29:00       38.425      -24.079       33.769       28.528       52.270       28.894      813.831     2732.184      834.857        0.379        0.219       45.346       27.255        0.361      334.883        5.150      858.260
11/11/2014  08:30:00       16.012      -16.170       34.041       27.538       36.039       28.037      758.336     1298.793      786.087        0.226        0.142       22.756       22.125        0.945      335.138        5.573      858.250
11/11/2014  08:31:00       33.748      -11.413       24.728       40.502       58.114       37.583     1640.439     3377.257     1412.488        0.415        0.322       35.626       34.881        0.959      335.093        5.499      858.236
11/11/2014  08:32:00       54.059       65.777       52.631       42.465       32.575       34.711     1803.314     1061.145     1204.854        0.704        0.203       85.141       20.446        0.058      334.898        5.174      858.215
11/11/2014  08:33:00       86.329       86.583       39.319       42.434       32.814       29.951     1800.639     1076.769      897.058        1.013        0.189      122.268       15.843        0.017      334.685        4.821      858.206
11/11/2014  08:34:00       19.027       16.619       37.733       33.531       49.939       29.109     1124.317     2493.945      847.351        0.326        0.223       25.263       29.387        1.353      335.215        5.699      858.208
11/11/2014  08:35:00       20.345      -11.931       23.941       38.920       39.097       51.438     1514.758     1528.612     2645.857        0.341        0.284       23.585       22.702        0.926      335.150        5.592      858.232
11/11/2014  08:36:00       28.238       -9.530       18.845       48.831       58.550       49.765     2384.501     3428.140     2476.550        0.476        0.414       29.803       38.607        1.678      335.109        5.525      858.245
11/11/2014  08:37:00       35.411      -25.783       25.876       38.515       51.217       43.590     1483.431     2623.147     1900.099        0.430        0.300       43.803       37.330        0.726      335.063        5.448      858.230
11/11/2014  08:38:00       54.749      -58.496        7.816       48.952       68.620       47.580     2396.290     4708.700     2263.866        0.792        0.468       80.120       49.790        0.386      334.961        5.279      858.216
11/11/2014  08:39:00       16.409        5.968       57.762       36.600       53.113       33.895     1339.524     2820.974     1148.883        0.447        0.265       17.461       36.502        4.370      335.212        5.697      858.224
11/11/2014  08:40:00        9.364       26.951       62.170       34.254       54.816       35.887     1173.340     3004.829     1287.880        0.507        0.273       28.532       38.893        1.858      335.209        5.691      858.223
11/11/2014  08:41:00       15.400       66.430       54.063       38.380       41.083       38.005     1473.025     1687.813     1444.359        0.609        0.230       68.192       32.809        0.231      334.942        5.247      858.215
11/11/2014  08:42:00       13.275       24.007       72.878       41.716       53.141       32.242     1740.253     2823.920     1039.570        0.583        0.280       27.433       25.126        0.839      335.053        5.433      858.216
11/11/2014  08:43:00       38.240       27.796       50.775       43.488       26.196       24.646     1891.232      686.227      607.450        0.400        0.159       47.275       23.983        0.257      334.911        5.195      858.210
11/11/2014  08:44:00        6.692       44.285       84.638       35.220       48.452       31.911     1240.455     2347.590     1018.310        0.689        0.230       44.788       26.556        0.352      335.161        5.611      858.169
11/11/2014  08:45:00       33.049      -18.101       16.214       45.612       55.052       36.928     2080.462     3030.699     1363.674        0.408        0.324       37.682       39.136        1.079      335.197        5.671      858.164
11/11/2014  08:46:00       61.234      -66.909        8.082       53.907       72.358       49.162     2905.937     5235.657     2416.930        0.942        0.528       90.700       50.924        0.315      335.049        5.424      858.200
11/11/2014  08:47:00       68.576      -31.386       17.944       63.144       73.963       43.549     3987.163     5470.534     1896.496        0.868        0.568       75.417       45.235        0.360      335.033        5.397      858.218
11/11/2014  08:48:00       29.962       41.101       58.607       51.985       50.158       41.497     2702.483     2515.825     1722.006        0.648        0.347       50.863       44.374        0.761      335.180        5.644      858.191
11/11/2014  08:49:00       12.957       -6.908       25.139       32.693       25.417       27.252     1068.843      646.025      742.681        0.165        0.123       14.683       16.993        1.339      335.230        5.725      858.177
11/11/2014  08:50:00       18.216       24.404       64.346       33.472       42.413       22.700     1120.404     1798.865      515.281        0.425        0.172       30.453       21.045        0.478      335.385        5.983      858.186
11/11/2014  08:51:00       46.956       30.926       51.213       44.019       47.762       25.637     1937.675     2281.225      657.279        0.533        0.244       56.225       25.878        0.212      335.112        5.531      858.187
11/11/2014  08:52:00       24.284       21.725       48.331       31.229       39.606       23.223      975.281     1568.670      539.298        0.324        0.154       32.584       11.993        0.135      335.302        5.845      858.159
11/11/2014  08:53:00       58.792      -61.690       11.910       48.830       61.380       38.399     2384.322     3767.550     1474.505        0.751        0.381       85.219       45.948        0.291      335.102        5.512      858.142
11/11/2014  08:54:00       15.389       20.950       53.423       30.700       39.536       27.592      942.493     1563.063      761.303        0.340        0.163       25.995       20.350        0.613      335.384        5.983      858.116
11/11/2014  08:55:00       61.490      -76.857        4.376       41.891       65.036       39.944     1754.894     4229.645     1595.516        0.864        0.379       98.428       41.756        0.180      335.241        5.745      858.120
11/11/2014  08:56:00       40.102      -88.220       11.421       40.924       84.521       45.815     1674.765     7143.745     2099.041        1.022        0.546       96.907       47.878        0.244      335.281        5.811      858.148
11/11/2014  08:57:00       29.977       32.724       65.496       43.346       76.813       56.204     1878.912     5900.226     3158.885        0.860        0.547       44.379       62.385        1.976      335.288        5.823      858.140
11/11/2014  08:58:00       31.319      -33.134       28.033       35.017       60.571       42.330     1226.212     3668.826     1791.800        0.477        0.334       45.593       37.275        0.668      335.435        6.067      858.117
11/11/2014  08:59:00        0.117       20.050       56.086       20.468       41.993       26.223      418.923     1763.444      687.637        0.321        0.144       20.050       27.500        1.881      335.718        6.539      858.152
11/11/2014  09:00:00       40.969       22.063       41.358       38.477       29.579       25.163     1480.517      874.921      633.180        0.343        0.149       46.532       13.572        0.085      335.416        6.034      858.190
11/11/2014  09:01:00        1.539       40.275       55.470       24.077       46.105       29.216      579.719     2125.711      853.600        0.413        0.178       40.305       25.285        0.394      335.845        6.750      858.195
11/11/2014  09:02:00        5.055       26.075       52.737       31.860       44.867       31.555     1015.043     2013.061      995.742        0.375        0.201       26.561       26.969        1.031      335.850        6.758      858.196
11/11/2014  09:03:00       29.517        8.306       47.040       36.261       62.192       36.362     1314.895     3867.906     1322.221        0.483        0.325       30.663       36.245        1.397      335.586        6.318      858.199
11/11/2014  09:04:00       31.824       -1.695       54.476       42.374       87.427       48.248     1795.598     7643.411     2327.835        0.787        0.588       31.869       59.938        3.537      335.551        6.260      858.190
11/11/2014  09:05:00       79.242       94.538       63.350       40.560       30.362       50.713     1645.074      921.859     2571.772        1.218        0.257      123.356       31.892        0.067      335.058        5.440      858.173
11/11/2014  09:06:00        8.393       17.259       16.282       30.623       32.343       20.295      937.778     1046.070      411.871        0.151        0.120       19.191       25.201        1.724      335.199        5.675      858.180
11/11/2014  09:07:00       29.818       21.604       41.263       20.398       40.791       23.629      416.065     1663.899      558.313        0.285        0.132       36.821       26.241        0.508      335.444        6.081      858.175
11/11/2014  09:08:00       57.048       75.504       70.376       43.878       31.959       28.108     1925.309     1021.362      790.057        0.882        0.187       94.632       24.985        0.070      335.382        5.979      858.163
11/11/2014  09:09:00       95.473       54.168       -3.153       41.068       33.555       23.934     1686.559     1125.914      572.820        0.772        0.169      109.769       11.010        0.010      335.268        5.788      858.158
11/11/2014  09:10:00       53.959       61.006       10.264       42.673       30.335       27.977     1820.973      920.216      782.716        0.513        0.176       81.445       16.413        0.041      335.598        6.338      858.156
11/11/2014  09:11:00       -0.068       15.366       35.640       28.599       32.927       29.447      817.923     1084.205      867.130        0.214        0.138       15.366       22.352        2.116      336.035        7.067      858.151
11/11/2014  09:12:00        4.751        4.307       40.305       27.392       37.037       34.602      750.298     1371.743     1197.326        0.249        0.166        6.413       32.987       26.458      336.145        7.251      858.151
11/11/2014  09:13:00        4.556       47.539       45.973       28.375       30.571       32.064      805.165      934.594     1028.117        0.358        0.138       47.757       21.535        0.203      335.828        6.722      858.152
11/11/2014  09:14:00       37.664       69.026       33.121       45.682       31.938       27.440     2086.878     1020.065      752.942        0.557        0.193       78.633       23.390        0.088      335.701        6.511      858.137
11/11/2014  09:15:00       33.410      -22.854        3.856       56.094       84.675       32.502     3146.499     7169.935     1056.376        0.651        0.569       40.479       19.870        0.241      335.673        6.464      858.149
11/11/2014  09:16:00       27.724       20.356       60.789       45.715       75.377       56.052     2089.896     5681.640     3141.843        0.789        0.546       34.395       55.661        2.619      335.748        6.590      858.169
11/11/2014  09:17:00       86.109      -84.445       12.965       41.854       62.154       39.626     1751.743     3863.143     1570.199        1.095        0.359      120.605       42.641        0.125      335.492        6.162      858.167
11/11/2014  09:18:00       37.832      -29.231       31.873       37.119       85.365       60.772     1377.844     7287.178     3693.278        0.783        0.618       47.809       68.671        2.063      335.540        6.241      858.134
11/11/2014  09:19:00       83.086       73.866       74.097       47.116       66.867       52.391     2219.872     4471.222     2744.867        1.364        0.472      111.173       53.098        0.228      335.315        5.866      858.124
11/11/2014  09:20:00       87.691       29.463       49.943       40.486       74.670       41.459     1639.147     5575.658     1718.840        0.999        0.447       92.509       46.823        0.256      335.403        6.014      858.148
11/11/2014  09:21:00       70.667       71.574       47.144       45.829       33.325       34.029     2100.272     1110.580     1157.948        0.835        0.218      100.582       18.235        0.033      335.422        6.044      858.153
11/11/2014  09:22:00       24.785       83.471       74.016       48.288       36.511       37.645     2331.741     1333.086     1417.138        0.907        0.254       87.072       35.308        0.164      335.595        6.334      858.138
11/11/2014  09:23:00       65.052       62.659       60.239       39.062       31.894       26.436     1525.809     1017.253      698.885        0.751        0.162       90.321       16.002        0.031      335.424        6.048      858.112
11/11/2014  09:24:00       70.397       70.316       82.966       35.746       23.955       19.691     1277.754      573.862      387.729        0.951        0.112       99.499       14.794        0.022      335.481        6.143      858.088
11/11/2014  09:25:00       40.546       51.037       38.500       40.872       29.199       31.491     1670.488      852.563      991.708        0.462        0.176       65.183       20.676        0.101      335.422        6.045      858.080
11/11/2014  09:26:00       37.229       46.049       53.938       35.140       29.247       27.728     1234.797      855.411      768.861        0.464        0.143       59.216       24.527        0.172      335.790        6.658      858.065
11/11/2014  09:27:00       38.013       19.120       19.435       56.368       25.761       27.260     3177.299      663.613      743.097        0.339        0.229       42.551       19.954        0.220      335.772        6.630      858.046
11/11/2014  09:28:00       99.155       73.080        8.127       54.154       39.407       40.081     2932.688     1552.890     1606.449        1.066        0.305      123.177       31.292        0.065      335.588        6.321      858.052
11/11/2014  09:29:00       95.054       86.519       61.233       66.981       48.282       49.140     4486.439     2331.129     2414.738        1.475        0.462      128.534       42.164        0.108      335.771        6.627      858.061
11/11/2014  09:30:00      108.518       60.486       -1.377       50.399       36.059       34.262     2540.064     1300.216     1173.870        1.022        0.251      124.236       26.330        0.045      335.799        6.673      858.049
11/11/2014  09:31:00       98.388       78.632       13.430       23.786       21.601       21.416      565.787      466.622      458.650        0.877        0.075      125.949       13.577        0.012      335.478        6.137      858.040
11/11/2014  09:32:00       55.187       65.792       -1.083       28.381       22.113       26.567      805.465      488.994      705.815        0.469        0.100       85.873       12.120        0.020      335.651        6.425      858.038
11/11/2014  09:33:00       43.186       54.921       48.755       45.702       36.635       41.978     2088.680     1342.132     1762.190        0.622        0.260       69.867       32.995        0.223      336.168        7.289      858.034
11/11/2014  09:34:00       95.759      106.242       86.627       75.309       42.044       46.067     5671.404     1767.740     2122.198        1.876        0.478      143.028       44.926        0.099      335.926        6.884      858.031
11/11/2014  09:35:00      117.203       81.957       25.959       56.365       45.548       40.676     3176.980     2074.580     1654.516        1.402        0.345      143.016       34.063        0.057      335.657        6.437      858.023
11/11/2014  09:36:00       74.304       70.600       24.220       45.675       43.121       33.710     2086.167     1859.417     1136.332        0.809        0.254      102.496       19.544        0.036      335.817        6.704      858.006
11/11/2014  09:37:00      120.004       87.736       11.522       50.741       34.452       32.657     2574.684     1186.909     1066.471        1.353        0.241      148.656       10.113        0.005      335.941        6.908      858.010
11/11/2014  09:38:00      118.139       73.013       13.116       40.594       34.175       33.869     1647.897     1167.945     1147.130        1.171        0.198      138.880       29.149        0.044      335.778        6.638      858.026
11/11/2014  09:39:00      105.543       83.968        3.668       31.927       22.155       24.327     1019.308      490.846      591.794        1.015        0.105      134.871       14.984        0.012      335.601        6.343      858.044
11/11/2014  09:40:00       89.944       84.723       15.503       33.312       28.009       27.886     1109.701      784.511      777.642        0.909        0.134      123.564       17.367        0.020      335.752        6.597      858.039
11/11/2014  09:41:00       28.081        7.951       39.313       38.828       71.374       36.521     1507.586     5094.297     1333.795        0.516        0.397       29.185       27.343        0.878      336.243        7.414      858.024
11/11/2014  09:42:00       13.956       -5.099       34.850       23.780       33.846       16.397      565.475     1145.551      268.853        0.171        0.099       14.859       16.941        1.300      336.403        7.681      858.020
11/11/2014  09:43:00       73.701       33.430       25.542       44.788       40.106       27.304     2005.933     1608.485      745.531        0.578        0.218       80.928       26.767        0.109      336.150        7.258      858.013
11/11/2014  09:44:00       35.373       72.651       50.175       47.925       42.961       54.512     2296.833     1845.646     2971.576        0.808        0.356       80.805       46.727        0.334      336.125        7.216      857.993
11/11/2014  09:45:00       80.337      109.356      103.843       62.161       65.471       44.859     3863.933     4286.459     2012.346        1.968        0.508      135.694       41.159        0.092      335.999        7.004      857.974
11/11/2014  09:46:00       16.612       54.056       87.348       41.089       81.961       37.760     1688.302     6717.589     1425.794        1.033        0.492       56.551       40.058        0.502      336.260        7.441      857.951
11/11/2014  09:47:00       39.066       26.925       67.541       41.643       37.107       26.514     1734.122     1376.921      703.003        0.531        0.191       47.445       18.481        0.152      336.438        7.740      857.948
11/11/2014  09:48:00       50.192       49.839       34.142       49.634       45.769       32.620     2463.545     2094.765     1064.076        0.589        0.281       70.733       30.297        0.183      336.104        7.183      857.936
11/11/2014  09:49:00       19.790       20.741       51.924       38.383       34.399       30.892     1473.231     1183.282      954.327        0.356        0.181       28.668       19.753        0.475      336.564        7.951      857.937
11/11/2014  09:50:00       70.848       93.615       71.490       46.065       42.777       41.624     2121.947     1829.912     1732.549        1.229        0.284      117.402       32.695        0.078      336.028        7.055      857.921
11/11/2014  09:51:00       98.650       54.360       36.556       69.000       64.832       46.109     4760.948     4203.240     2125.996        1.255        0.555      112.636       32.070        0.081      336.032        7.061      857.899
11/11/2014  09:52:00       21.063       51.655       63.152       38.060       40.498       43.174     1448.538     1640.116     1863.974        0.603        0.248       55.784       32.874        0.347      336.299        7.509      857.906
11/11/2014  09:53:00       35.747       42.100       39.069       30.046       29.670       28.774      902.764      880.317      827.966        0.359        0.131       55.229       17.018        0.095      336.107        7.187      857.911
11/11/2014  09:54:00       23.319       44.148       31.111       50.569       45.923       35.968     2557.254     2108.911     1293.689        0.471        0.298       49.928       22.939        0.211      336.409        7.692      857.869
11/11/2014  09:55:00      121.437      104.476        5.786       32.926       34.206       33.010     1084.137     1170.059     1089.628        1.452        0.167      160.194       20.945        0.017      335.996        7.001      857.847
11/11/2014  09:56:00       60.382       70.652        4.776       45.199       26.548       33.066     2042.995      704.812     1093.375        0.625        0.192       92.939       15.330        0.027      336.096        7.169      857.865
11/11/2014  09:57:00       70.804       21.628       29.316       52.706       67.186       40.044     2777.938     4513.930     1603.539        0.762        0.445       74.033       47.164        0.406      336.023        7.047      857.881
11/11/2014  09:58:00       30.809       51.283       19.302       31.223       47.967       28.916      974.872     2300.824      836.164        0.403        0.206       59.826       26.171        0.191      336.348        7.590      857.833
11/11/2014  09:59:00       26.682       64.229       67.334       54.438       70.321       50.116     2963.467     4945.052     2511.599        0.989        0.521       69.550       55.261        0.631      336.572        7.963      857.821
11/11/2014  10:00:00       51.070       86.916       87.383       31.397       34.823       20.683      985.778     1212.614      427.781        1.021        0.131      100.809       14.813        0.022      336.230        7.393      857.832
11/11/2014  10:01:00       41.970       11.192       22.197       39.524       38.185       37.188     1562.124     1458.128     1382.975        0.339        0.220       43.437       31.665        0.531      336.353        7.598      857.850
11/11/2014  10:02:00       26.315       -7.720       19.257       36.421       26.253       28.595     1326.505      689.199      817.674        0.198        0.142       27.424       13.937        0.258      336.718        8.208      857.840
11/11/2014  10:03:00        0.843       -6.921       20.041       19.383       23.551       12.403      375.717      554.661      153.833        0.077        0.054        6.972        5.103        0.536      336.823        8.384      857.828
11/11/2014  10:04:00        6.523        5.752       28.638       15.510       21.568       27.398      240.548      465.183      750.642        0.118        0.073        8.697       21.853        6.314      337.099        8.845      857.823
11/11/2014  10:05:00       10.954      -38.352       13.355       28.144       54.869       27.212      792.088     3010.647      740.489        0.316        0.227       39.885       33.510        0.706      336.755        8.269      857.815
11/11/2014  10:06:00       21.950        0.759       59.920       50.399       74.429       45.622     2540.034     5539.677     2081.351        0.711        0.508       21.963       41.570        3.582      337.023        8.717      857.786
11/11/2014  10:07:00       33.473       85.977       75.435       44.417       46.473       34.788     1972.901     2159.710     1210.187        0.977        0.267       92.263       10.934        0.014      336.956        8.606      857.758
11/11/2014  10:08:00      100.988       72.172       25.961       51.798       49.182       50.483     2683.037     2418.822     2548.556        1.186        0.383      124.126       27.767        0.050      336.645        8.084      857.757
11/11/2014  10:09:00       13.329       41.285       59.055       31.303       48.208       28.171      979.870     2323.966      793.593        0.473        0.205       43.384       29.698        0.469      337.024        8.719      857.754
11/11/2014  10:10:00        5.538       34.549       62.937       29.405       52.896       26.038      864.660     2797.965      678.001        0.476        0.217       34.990       31.645        0.818      337.039        8.745      857.744
11/11/2014  10:11:00       29.997       14.839       48.908       44.012       36.201       22.431     1937.028     1310.526      503.136        0.363        0.188       33.466       18.079        0.292      337.239        9.079      857.742
11/11/2014  10:12:00       64.797       80.663       16.636       51.422       38.783       30.464     2644.198     1504.145      928.028        0.803        0.254      103.465       26.229        0.064      336.477        7.805      857.701
11/11/2014  10:13:00       39.321       58.989       -6.761       38.786       49.958       30.867     1504.327     2495.782      952.768        0.501        0.248       70.893       26.597        0.141      336.579        7.976      857.682
11/11/2014  10:14:00       19.175       87.481      105.621       32.347       46.379       24.927     1046.312     2150.969      621.369        1.150        0.191       89.558       25.069        0.078      336.854        8.435      857.675
11/11/2014  10:15:00       93.944       89.277       63.132       71.642       49.018       48.626     5132.637     2402.805     2364.482        1.534        0.495      129.598       45.489        0.123      336.480        7.809      857.679
11/11/2014  10:16:00      100.335       71.936       45.380       38.762       30.470       39.693     1502.475      928.435     1575.509        1.065        0.200      123.459       31.509        0.065      336.453        7.766      857.675
11/11/2014  10:17:00       65.301       36.348       10.262       42.101       30.157       36.044     1772.489      909.460     1299.164        0.484        0.199       74.736       21.640        0.084      336.557        7.939      857.671
11/11/2014  10:18:00       19.606       37.698       13.271       34.572       35.169       26.816     1195.214     1236.840      719.097        0.257        0.158       42.492       25.310        0.355      337.048        8.760      857.665
11/11/2014  10:19:00       14.124       18.236       54.677       22.645       42.647       31.339      512.795     1818.768      982.119        0.342        0.166       23.066       31.028        1.810      337.187        8.994      857.669
11/11/2014  10:20:00       18.122       33.626       68.293       30.680       28.066       23.131      941.286      787.723      535.039        0.419        0.113       38.198       11.745        0.095      337.167        8.959      857.670
11/11/2014  10:21:00       51.124       49.552       46.753       43.162       31.075       33.552     1862.940      965.656     1125.723        0.560        0.198       71.197       19.708        0.077      336.873        8.467      857.641
11/11/2014  10:22:00       75.310       73.868       10.835       32.513       33.468       33.432     1057.081     1120.099     1117.725        0.727        0.165      105.490       20.402        0.037      336.788        8.326      857.628
11/11/2014  10:23:00       60.983       62.234       18.300       33.701       34.108       32.574     1135.729     1163.339     1061.041        0.564        0.168       87.132       23.870        0.075      336.906        8.523      857.609
11/11/2014  10:24:00       15.117       21.339       18.573       30.595       26.482       16.938      936.039      701.304      286.907        0.148        0.096       26.151        7.238        0.077      337.122        8.886      857.607
11/11/2014  10:25:00      -24.556       29.638        0.543       29.574       21.360       19.473      874.630      456.269      379.216        0.160        0.086       38.489       16.067        0.174      337.150        8.931      857.629
11/11/2014  10:26:00       41.928       63.733       13.004       31.878       52.959       33.895     1016.211     2804.706     1148.846        0.548        0.248       76.288       24.102        0.100      337.205        9.022      857.630
11/11/2014  10:27:00       27.755       66.643        8.353       32.273       37.645       30.751     1041.524     1417.120      945.627        0.434        0.170       72.192       26.880        0.139      337.124        8.886      857.603
11/11/2014  10:28:00       58.099       48.921       -8.427       56.173       38.086       31.613     3155.390     1450.546      999.384        0.572        0.280       75.952       15.984        0.044      337.161        8.947      857.603
11/11/2014  10:29:00       51.307       51.895       12.498       45.822       33.697       33.084     2099.653     1135.480     1094.578        0.490        0.216       72.976       21.225        0.085      337.209        9.029      857.574
11/11/2014  10:30:00       49.032      110.309       -8.264       39.695       52.629       37.403     1575.696     2769.772     1399.013        1.019        0.287      120.716       35.717        0.088      337.002        8.683      857.547
11/11/2014  10:31:00       10.898       67.470       -4.113       32.332       53.008       29.776     1045.341     2809.826      886.609        0.471        0.237       68.344       29.967        0.192      337.019        8.712      857.528
11/11/2014  10:32:00      -12.286        1.101        6.437       14.588       15.595       17.842      212.819      243.217      318.335        0.048        0.039       12.335        5.459        0.196      337.317        9.210      857.543
11/11/2014  10:33:00      -26.222       36.404       10.468       24.187       35.575       23.184      584.997     1265.548      537.477        0.225        0.119       44.865       13.600        0.092      337.359        9.280      857.564
11/11/2014  10:34:00       13.784        4.424      -14.565       33.557       54.736       20.716     1126.047     2995.999      429.170        0.249        0.228       14.476       25.565        3.119      337.139        8.911      857.571
11/11/2014  10:35:00        9.437       24.575       61.650       20.917       50.215       25.907      437.536     2521.511      671.164        0.406        0.182       26.325       31.368        1.420      337.610        9.699      857.570
11/11/2014  10:36:00       54.328       -6.961       33.383       42.832       22.053       38.002     1834.592      486.326     1444.148        0.394        0.188       54.772       18.488        0.114      337.416        9.376      857.558
11/11/2014  10:37:00       53.065       69.662       21.351       58.871       46.009       40.034     3465.812     2116.860     1602.722        0.765        0.359       87.571       12.528        0.020      337.360        9.281      857.519
11/11/2014  10:38:00      152.537      106.508        6.155       56.321       49.438       45.507     3172.057     2444.078     2070.895        2.117        0.384      186.042       18.789        0.010      337.137        8.907      857.502
11/11/2014  10:39:00       75.826       82.181       14.619       51.940       47.861       45.786     2697.759     2290.716     2096.335        0.990        0.354      111.818       23.216        0.043      337.094        8.836      857.529
11/11/2014  10:40:00       42.675       67.489        8.465       38.450       32.518       28.652     1478.440     1057.391      820.916        0.490        0.168       79.850       18.017        0.051      337.378        9.312      857.539
11/11/2014  10:41:00       74.782       94.492       93.557       72.665       42.388       48.924     5280.132     1796.726     2393.606        1.637        0.474      120.504       46.150        0.147      337.265        9.122      857.513
11/11/2014  10:42:00       80.926       75.399       46.707       54.039       23.910       32.937     2920.186      571.668     1084.829        0.950        0.229      110.608       31.680        0.082      337.054        8.770      857.510
11/11/2014  10:43:00       51.159       43.642       -9.728       30.237       37.231       34.478      914.291     1386.164     1188.704        0.405        0.174       67.245       19.750        0.086      337.092        8.832      857.494
11/11/2014  10:44:00       84.716       79.973        7.762       46.104       36.104       29.958     2125.562     1303.488      897.503        0.898        0.216      116.501       22.985        0.039      336.881        8.481      857.496
11/11/2014  10:45:00       -0.869      -24.357      -16.086       28.466       38.261       31.457      810.309     1463.876      989.521        0.206        0.163       24.372       10.185        0.175      337.188        8.994      857.517
11/11/2014  10:46:00        6.765       34.444      -14.979       25.321       51.498       21.250      641.163     2651.995      451.547        0.260        0.187       35.103       19.697        0.315      337.096        8.840      857.506
11/11/2014  10:47:00      -15.909       18.849       -5.855       27.414       24.090       23.434      751.551      580.332      549.135        0.126        0.094       24.666       12.232        0.246      337.282        9.151      857.491
11/11/2014  10:48:00      -11.802       11.838       -0.452       17.194       24.089       12.854      295.640      580.303      165.227        0.066        0.052       16.716       12.899        0.595      337.540        9.584      857.465
11/11/2014  10:49:00       19.568       68.902       -3.024       52.254       47.358       26.962     2730.514     2242.792      726.957        0.542        0.285       71.627       22.265        0.097      337.236        9.074      857.447
11/11/2014  10:50:00       39.843       38.964       -8.683       38.960       32.474       23.231     1517.886     1054.545      539.663        0.315        0.156       55.728       13.761        0.061      337.099        8.843      857.415
11/11/2014  10:51:00       24.522       25.037       30.118       22.379       27.861       26.380      500.825      776.253      695.908        0.205        0.099       35.046       10.184        0.084      337.578        9.646      857.380
11/11/2014  10:52:00       -0.341       25.469       63.685       20.657       37.488       17.030      426.708     1405.370      290.016        0.341        0.106       25.471       10.670        0.175      337.932       10.240      857.370
11/11/2014  10:53:00       64.951      -38.145       19.791       52.508       54.680       52.819     2757.056     2989.906     2789.822        0.730        0.427       75.324       46.846        0.387      337.525        9.557      857.381
11/11/2014  10:54:00      104.144     -138.501      -23.452       51.719       58.988       29.274     2674.888     3479.562      856.947        1.879        0.351      173.287       12.766        0.005      337.251        9.098      857.374
11/11/2014  10:55:00       58.021      -78.668       13.478       58.920       90.055       46.874     3471.558     8109.956     2197.212        1.176        0.689       97.750       48.909        0.250      337.544        9.588      857.374
11/11/2014  10:56:00       65.631       63.010       65.335       64.023       53.211       38.908     4098.988     2831.421     1513.800        1.049        0.422       90.982       32.113        0.125      337.403        9.354      857.373
11/11/2014  10:57:00      112.797       65.129       50.920       29.531       47.249       42.660      872.101     2232.498     1819.838        1.224        0.246      130.249       27.681        0.045      337.212        9.034      857.356
11/11/2014  10:58:00       54.402       11.879       32.586       35.726       35.233       27.256     1276.344     1241.345      742.864        0.371        0.163       55.684       25.157        0.204      337.526        9.559      857.347
11/11/2014  10:59:00       39.347       34.521       32.384       52.370       47.935       41.331     2742.639     2297.748     1708.257        0.527        0.337       52.344       26.201        0.251      337.526        9.560      857.355
11/11/2014  11:00:00       44.400       66.180       -1.337       42.305       45.465       30.142     1789.679     2067.079      908.539        0.556        0.238       79.694       29.915        0.141      337.411        9.367      857.337
11/11/2014  11:01:00        2.251       12.518       21.857       32.006       27.497       24.912     1024.360      756.079      620.603        0.152        0.120       12.719       18.902        2.209      337.895       10.178      857.310
11/11/2014  11:02:00       29.729        9.260       63.857       48.650       81.362       44.193     2366.864     6619.839     1953.025        0.799        0.547       31.138       41.123        1.744      338.042       10.425      857.304
11/11/2014  11:03:00      121.182       92.972       43.987       79.933       52.809       61.712     6389.336     2788.809     3808.317        1.912        0.649      152.737       56.104        0.135      337.740        9.917      857.256
11/11/2014  11:04:00      131.964       91.948       21.066       70.649       47.592       41.854     4991.343     2265.023     1751.778        1.766        0.450      160.838       24.549        0.023      337.728        9.898      857.192
11/11/2014  11:05:00      119.414      110.841       16.796       58.856       49.822       47.332     3464.058     2482.220     2240.342        1.751        0.409      162.928       29.972        0.034      337.921       10.219      857.170
11/11/2014  11:06:00       90.370       54.205        4.270       40.176       44.675       23.790     1614.120     1995.892      565.948        0.765        0.209      105.380       10.836        0.011      337.380        9.315      857.213
11/11/2014  11:07:00       26.519       27.690       24.659       38.893       38.920       34.434     1512.672     1514.793     1185.715        0.314        0.211       38.340       24.348        0.403      337.777        9.980      857.200
11/11/2014  11:08:00       66.627       60.034       54.514       35.323       29.453       32.455     1247.731      867.488     1053.345        0.709        0.158       89.684       17.230        0.037      337.603        9.688      857.184
11/11/2014  11:09:00       34.553        0.895        6.326       57.278       76.378       40.300     3280.809     5833.618     1624.089        0.598        0.537       34.565       29.316        0.719      337.906       10.197      857.173
11/11/2014  11:10:00       27.618        6.243       36.577       54.311       49.291       29.657     2949.720     2429.589      879.544        0.420        0.313       28.315       26.638        0.885      338.295       10.849      857.160
11/11/2014  11:11:00       32.795       10.079       53.578       64.444       81.971       65.125     4152.971     6719.245     4241.318        0.958        0.756       34.309       63.904        3.469      338.132       10.575      857.144
11/11/2014  11:12:00       49.315      -17.217       48.434       76.193      106.272       62.074     5805.408    11293.806     3853.148        1.301        1.048       52.234       77.130        2.180      338.060       10.454      857.156
11/11/2014  11:13:00       77.803       16.525       65.534       90.816      105.568       70.712     8247.502    11144.632     5000.141        1.750        1.220       79.538       78.754        0.980      338.031       10.406      857.129
11/11/2014  11:14:00       88.947      101.727      100.175       96.050       63.443       60.148     9225.696     4025.059     3617.796        2.258        0.843      135.129       55.212        0.167      337.832       10.071      857.098
11/11/2014  11:15:00       79.372       61.272       86.377       75.307       59.784       51.080     5671.215     3574.074     2609.140        1.468        0.593      100.271       46.576        0.216      337.799       10.016      857.086
11/11/2014  11:16:00       47.825       83.075       91.837       58.858       49.009       44.272     3464.290     2401.923     1960.041        1.272        0.391       95.857       33.292        0.121      337.872       10.140      857.075
11/11/2014  11:17:00       36.263        3.183       38.076       53.962       41.679       34.698     2911.899     1737.136     1203.923        0.431        0.293       36.402       36.206        0.989      338.198       10.686      857.085
11/11/2014  11:18:00       17.628        4.717       51.802       37.393       60.021       34.637     1398.226     3602.483     1199.693        0.461        0.310       18.248       27.312        2.240      338.325       10.900      857.048
11/11/2014  11:19:00       79.130      -19.116       72.484       83.170      103.881       65.733     6917.179    10791.243     4320.858        1.695        1.101       81.406       62.777        0.595      338.129       10.570      856.977
11/11/2014  11:20:00       -7.656       25.977       60.755       34.148       45.983       29.860     1166.095     2114.403      891.627        0.430        0.209       27.082       17.912        0.437      338.610       11.378      856.969
11/11/2014  11:21:00      -12.407       48.859       90.978       42.435       55.673       34.270     1800.770     3099.517     1174.446        0.845        0.304       50.410       28.799        0.326      338.508       11.207      856.989
11/11/2014  11:22:00       41.870       48.353       38.065       80.030       49.920       40.652     6404.849     2491.971     1652.546        0.804        0.527       63.962       33.111        0.268      338.188       10.670      856.998
11/11/2014  11:23:00        3.915      -28.275       40.405       41.899       78.723       37.847     1755.532     6197.331     1432.367        0.591        0.469       28.545       44.470        2.427      338.332       10.911      857.011
11/11/2014  11:24:00       26.164      -82.831        1.020       27.720       43.200       32.486      768.411     1866.222     1055.348        0.562        0.184       86.865       23.107        0.071      338.030       10.405      857.031
11/11/2014  11:25:00       79.011       61.780       51.357       43.656       44.473       39.871     1905.858     1977.838     1589.722        0.908        0.274      100.298       33.052        0.109      337.985       10.330      857.028
11/11/2014  11:26:00       87.988       92.100       78.898       66.789       58.127       59.620     4460.794     3378.765     3554.545        1.692        0.570      127.375       52.786        0.172      338.071       10.473      856.992
11/11/2014  11:27:00       68.489       -4.258       40.619       55.182      102.425       60.814     3045.069    10490.851     3698.353        1.179        0.862       68.621       69.014        1.011      337.925       10.229      857.007
11/11/2014  11:28:00       47.923     -102.153       20.985       43.191       46.042       33.089     1865.495     2119.840     1094.887        0.913        0.254      112.835       13.053        0.013      338.140       10.590      857.047
11/11/2014  11:29:00       -2.370      -33.967       41.484       36.904       43.470       38.380     1361.923     1889.652     1473.015        0.380        0.236       34.050       28.603        0.706      338.498       11.190      857.061
11/11/2014  11:30:00       93.622       91.217       50.832       46.089       41.759       41.875     2124.211     1743.807     1753.541        1.264        0.281      130.712       11.461        0.008      337.874       10.143      857.035
11/11/2014  11:31:00       38.982       -2.415        8.285       28.687       49.818       41.865      822.917     2481.797     1752.709        0.332        0.253       39.057       23.662        0.367      337.954       10.277      857.010
11/11/2014  11:32:00       49.073       42.543       11.667       28.378       23.433       23.157      805.323      549.083      536.265        0.312        0.095       64.947        9.031        0.019      338.000       10.353      857.007
11/11/2014  11:33:00       91.424       61.414       29.879       31.113       23.693       23.655      968.007      561.358      559.573        0.756        0.104      110.136        3.589        0.001      338.078       10.485      857.005
11/11/2014  11:34:00       57.702       51.554        9.639       39.695       47.076       36.052     1575.681     2216.177     1299.779        0.558        0.255       77.378       30.798        0.158      338.307       10.870      856.990
11/11/2014  11:35:00       23.511      -65.921       16.645       52.436      101.321       42.152     2749.549    10266.021     1776.774        0.998        0.740       69.989       19.072        0.074      338.388       11.006      856.988
11/11/2014  11:36:00       85.775      -96.168       -0.933       52.229       69.671       37.739     2727.912     4854.041     1424.236        1.280        0.450      128.862       40.410        0.098      338.171       10.639      856.990
11/11/2014  11:37:00       68.923      -78.744        5.760       45.421       65.244       44.275     2063.098     4256.754     1960.304        0.963        0.414      104.647       40.606        0.151      338.206       10.701      856.986
11/11/2014  11:38:00       49.557      -95.717       -9.668       32.836       54.980       26.410     1078.174     3022.795      697.480        0.825        0.240      107.785       22.848        0.045      338.377       10.986      856.991
11/11/2014  11:39:00      147.302      106.523       44.512       89.004       39.740       53.325     7921.799     1579.250     2843.604        2.368        0.617      181.783       49.256        0.073      338.307       10.866      856.969
11/11/2014  11:40:00      138.574      108.270       20.417       47.045       29.683       32.189     2213.192      881.054     1036.100        1.774        0.207      175.855       19.232        0.012      338.046       10.430      856.950
11/11/2014  11:41:00       44.429       31.559       10.153       35.990       26.521       20.848     1295.270      703.361      434.658        0.275        0.122       54.497       11.844        0.047      338.062       10.457      856.965
11/11/2014  11:42:00       76.551       62.455       37.162       37.058       28.058       21.991     1373.270      787.252      483.604        0.689        0.132       98.796       13.934        0.020      338.195       10.681      856.962
11/11/2014  11:43:00       79.659       74.077       53.511       64.320       52.675       41.514     4137.114     2774.656     1723.436        1.166        0.432      108.780       24.924        0.052      338.319       10.889      856.953
11/11/2014  11:44:00       30.016      -10.292       32.196       33.443       41.693       27.287     1118.445     1738.307      744.587        0.282        0.180       31.731       23.348        0.541      338.316       10.884      856.936
11/11/2014  11:45:00       26.979      -71.970       -8.160       26.577       22.657       21.489      706.336      513.352      461.774        0.383        0.084       76.861       15.931        0.043      338.140       10.590      856.936
11/11/2014  11:46:00       52.604       21.274       22.120       47.731       58.088       37.260     2278.243     3374.175     1388.324        0.537        0.352       56.743       34.791        0.376      338.445       11.102      856.924
11/11/2014  11:47:00       83.677       81.205       52.268       61.697       32.611       43.365     3806.520     1063.507     1880.556        1.154        0.338      116.602       24.451        0.044      338.398       11.022      856.899
11/11/2014  11:48:00       15.038      -28.373       21.005       47.619       64.201       43.358     2267.577     4121.742     1879.922        0.487        0.413       32.111       41.457        1.667      338.629       11.411      856.873
11/11/2014  11:49:00       21.527       25.646       31.225       39.954       42.453       34.763     1596.355     1802.285     1208.449        0.335        0.230       33.484       26.333        0.618      339.019       12.066      856.843
11/11/2014  11:50:00       67.026       10.643       48.843       77.240       80.720       40.459     5965.994     6515.697     1636.952        1.055        0.706       67.865       35.710        0.277      338.773       11.652      856.827
11/11/2014  11:51:00      124.101       59.601        3.540       43.759       40.092       28.740     1914.844     1607.387      825.990        1.166        0.217      137.671       14.178        0.011      338.569       11.310      856.840
11/11/2014  11:52:00      108.812       90.283       20.072       64.544       53.519       45.819     4165.920     2864.245     2099.418        1.476        0.456      141.390       32.675        0.053      338.643       11.434      856.851
11/11/2014  11:53:00       74.960        6.762       50.716       84.961       69.178       48.025     7218.427     4785.534     2306.416        1.127        0.716       75.264       33.517        0.198      338.738       11.592      856.844
11/11/2014  11:54:00      161.308       93.596       46.765       80.087       53.355       56.116     6413.905     2846.755     3149.026        2.469        0.620      186.496       38.468        0.043      338.468       11.138      856.843
11/11/2014  11:55:00      144.352       99.462       21.868       60.459       49.741       37.841     3655.337     2474.145     1431.958        1.938        0.378      175.300       13.043        0.006      338.461       11.128      856.860
11/11/2014  11:56:00       84.608       77.829        4.742       63.907       33.259       27.105     4084.068     1106.180      734.699        0.958        0.296      114.960       20.331        0.031      338.468       11.140      856.875
11/11/2014  11:57:00      107.852       67.686        8.415       58.728       30.936       34.100     3448.937      957.054     1162.824        1.093        0.278      127.333       13.288        0.011      338.458       11.123      856.841
11/11/2014  11:58:00       30.952       81.504       85.990       69.845       56.605       60.201     4878.264     3204.112     3624.220        1.335        0.585       87.184       46.483        0.284      338.986       12.009      856.810
11/11/2014  11:59:00       68.718       43.659       20.065       83.833       36.280       41.602     7027.948     1316.225     1730.767        0.855        0.504       81.414        8.869        0.012      338.706       11.538      856.833
11/11/2014  12:00:00       21.614       46.097      -11.240       44.167       22.395       17.683     1950.725      501.547      312.687        0.274        0.138       50.912       18.235        0.128      338.565       11.302      856.841
11/11/2014  12:01:00       27.494       46.068       -5.897       31.571       22.336       21.786      996.719      498.914      474.650        0.244        0.099       53.648       14.876        0.077      338.716       11.555      856.828
11/11/2014  12:02:00        3.619       37.186       -4.648       19.151       16.764       19.737      366.745      281.026      389.536        0.123        0.052       37.362       11.478        0.094      338.690       11.513      856.811
11/11/2014  12:03:00       20.353        8.777       22.602       56.014       33.195       36.943     3137.515     1101.879     1364.758        0.330        0.280       22.165       28.744        1.682      338.933       11.921      856.789
11/11/2014  12:04:00       39.288       27.467       62.455       65.353       52.855       41.719     4270.958     2793.650     1740.497        0.750        0.440       47.937       31.285        0.426      339.067       12.146      856.733
11/11/2014  12:05:00       52.130       90.709      105.438       88.913       81.103       70.202     7905.560     6577.749     4928.262        2.073        0.971      104.622       73.635        0.495      338.906       11.874      856.682
11/11/2014  12:06:00      125.804       63.461       25.621       49.664       61.405       46.474     2466.535     3770.538     2159.836        1.445        0.420      140.904       33.324        0.056      338.788       11.676      856.681
11/11/2014  12:07:00       69.427       40.275       26.433       59.797       52.611       33.999     3575.699     2767.903     1155.942        0.732        0.375       80.263       23.778        0.088      339.026       12.078      856.672
11/11/2014  12:08:00       85.392       61.688       43.349       60.298       73.623       62.548     3635.902     5420.277     3912.270        1.297        0.648      105.343       49.624        0.222      338.960       11.966      856.669
11/11/2014  12:09:00       36.199        5.375       20.004       38.787       57.075       37.849     1504.457     3257.526     1432.580        0.397        0.310       36.596       30.798        0.708      338.989       12.015      856.660
11/11/2014  12:10:00       23.575       35.648       11.717       79.218       65.425       46.779     6275.446     4280.396     2188.285        0.735        0.637       42.739       49.930        1.365      338.996       12.026      856.633
11/11/2014  12:11:00      -18.263       25.233       60.212       43.642       79.955       50.493     1904.608     6392.824     2549.504        0.772        0.542       31.149       43.832        1.980      339.081       12.171      856.605
11/11/2014  12:12:00       45.171       38.338       28.892       38.216       44.567       29.531     1460.430     1986.229      872.059        0.433        0.216       59.247       10.242        0.030      338.845       11.772      856.609
11/11/2014  12:13:00       73.760       42.354       10.660       35.845       32.713       31.907     1284.857     1070.166     1018.082        0.536        0.169       85.055       22.904        0.073      338.736       11.590      856.598
11/11/2014  12:14:00       23.990       22.455       26.656       43.703       30.136       28.423     1909.965      908.166      807.893        0.271        0.181       32.859       21.217        0.417      339.061       12.136      856.564
11/11/2014  12:15:00       11.045       46.773       95.551       52.517       78.010       63.926     2758.026     6085.632     4086.494        1.218        0.647       48.059       63.456        1.743      339.077       12.164      856.538
11/11/2014  12:16:00       37.809       94.258      105.388       62.022       57.988       55.186     3846.779     3362.575     3045.485        1.584        0.513      101.558       52.538        0.268      339.052       12.121      856.550
11/11/2014  12:17:00       48.576       44.803       58.956       53.135       49.005       41.311     2823.277     2401.447     1706.630        0.739        0.347       66.083       38.684        0.343      339.118       12.234      856.560
11/11/2014  12:18:00       29.409       65.149       75.764       50.660       52.471       42.831     2566.398     2753.214     1834.458        0.900        0.358       71.479       41.536        0.338      339.187       12.348      856.550
11/11/2014  12:19:00      145.473       71.431       33.347       68.254       59.705       49.232     4658.551     3564.649     2423.831        1.901        0.532      162.064       38.522        0.056      338.998       12.029      856.528
11/11/2014  12:20:00       20.644        0.933       41.202       34.284       34.409       24.493     1175.361     1184.000      599.887        0.254        0.148       20.665       18.544        0.805      339.442       12.778      856.518
11/11/2014  12:21:00      159.960      107.072       50.650      101.519       49.008       50.451    10306.160     2401.797     2545.314        2.743        0.763      192.488       39.025        0.041      339.138       12.264      856.510
11/11/2014  12:22:00      201.392      138.855       30.090       64.918       39.206       47.556     4214.298     1537.149     2261.616        3.438        0.401      244.621       35.324        0.021      338.922       11.897      856.518
11/11/2014  12:23:00      120.385       91.066       22.243       71.378       52.718       42.846     5094.766     2779.155     1835.784        1.649        0.485      150.949       25.429        0.028      339.010       12.048      856.522
11/11/2014  12:24:00      212.793      131.587       41.671       50.158       42.898       36.352     2515.789     1840.263     1321.492        3.500        0.284      250.192       13.569        0.003      339.012       12.050      856.508
11/11/2014  12:25:00      104.268       79.788       89.966       74.801       71.896       59.876     5595.193     5169.020     3585.190        1.984        0.717      131.294       51.634        0.155      339.251       12.456      856.467
11/11/2014  12:26:00      106.384       88.942       83.034       73.584       58.494       53.477     5414.642     3421.562     2859.773        1.891        0.585      138.665       38.872        0.079      339.138       12.265      856.434
11/11/2014  12:27:00       56.001       94.998      126.074       91.446       73.634       65.792     8362.439     5421.969     4328.532        2.308        0.906      110.275       57.591        0.273      339.259       12.470      856.424
11/11/2014  12:28:00      164.126      119.502       98.576      121.294       99.791       93.214    14712.130     9958.279     8688.799        4.214        1.668      203.023       72.903        0.129      339.133       12.256      856.416
11/11/2014  12:29:00      139.039       97.070       95.890      129.754       70.031       80.334    16836.105     4904.278     6453.506        3.307        1.410      169.571       74.674        0.194      339.352       12.625      856.431
11/11/2014  12:30:00      221.380      160.090       32.442       75.617       50.760       50.409     5718.000     2576.576     2541.070        4.326        0.542      273.200       36.438        0.018      339.282       12.505      856.458
11/11/2014  12:31:00      239.027      116.362       31.042       82.511       59.835       64.262     6807.992     3580.220     4129.601        4.307        0.726      265.846       30.520        0.013      339.109       12.214      856.479
11/11/2014  12:32:00      217.236      145.735       42.384       69.848       53.984       52.340     4878.756     2914.265     2739.480        4.038        0.527      261.592       31.694        0.015      339.195       12.359      856.479
11/11/2014  12:33:00      146.115       97.879        5.642       64.538       59.969       35.622     4165.158     3596.247     1268.922        1.999        0.452      175.868       13.561        0.006      339.202       12.372      856.466
11/11/2014  12:34:00       48.058       53.171       19.155       36.659       33.006       35.242     1343.861     1089.381     1241.999        0.459        0.184       71.671       23.783        0.110      339.419       12.737      856.454
11/11/2014  12:35:00      171.702      114.193       44.267       60.062       57.458       42.247     3607.421     3301.376     1784.775        2.659        0.435      206.207       17.120        0.007      339.342       12.607      856.451
11/11/2014  12:36:00      164.282      102.550       33.336       83.112       63.841       52.298     6907.676     4075.679     2735.083        2.616        0.686      193.662       25.355        0.017      339.419       12.737      856.445
11/11/2014  12:37:00      170.637      100.455       32.354       85.382       66.035       64.059     7290.073     4360.625     4103.528        2.800        0.788      198.011       38.871        0.039      339.393       12.693      856.434
11/11/2014  12:38:00      191.777      112.635       23.087      103.328       58.608       63.502    10676.720     3434.898     4032.483        3.407        0.907      222.408       42.516        0.037      339.235       12.426      856.428
11/11/2014  12:39:00       85.435       86.663       25.912       81.833       59.874       41.307     6696.618     3584.919     1706.243        1.373        0.599      121.695       35.571        0.085      339.352       12.625      856.409
11/11/2014  12:40:00       61.439       52.193       50.574       52.522       48.206       41.041     2758.606     2323.823     1684.326        0.791        0.338       80.615       37.341        0.215      339.365       12.648      856.408
11/11/2014  12:41:00      156.637      127.385       53.991       73.355       57.882       55.743     5380.902     3350.368     3107.318        2.776        0.592      201.897       39.147        0.038      339.313       12.559      856.406
11/11/2014  12:42:00      125.420      100.406       63.257       87.820       64.919       60.770     7712.308     4214.480     3692.992        2.271        0.781      160.659       49.186        0.094      339.585       13.018      856.395
11/11/2014  12:43:00      130.412       66.607      112.500      111.977       87.452       70.787    12538.824     7647.873     5010.842        2.964        1.260      146.437       70.506        0.232      339.450       12.789      856.377
11/11/2014  12:44:00      106.528       23.927       70.039       91.143       87.282       60.213     8307.075     7618.227     3625.645        1.818        0.978      109.182       59.592        0.298      339.613       13.065      856.387
11/11/2014  12:45:00       41.602       69.578       65.283       68.661       55.950       50.818     4714.326     3130.385     2582.455        1.063        0.521       81.067       43.229        0.284      339.794       13.371      856.406
11/11/2014  12:46:00      107.641       77.098       24.326       58.640       56.052       45.310     3438.634     3141.843     2052.986        1.338        0.432      132.403       26.916        0.041      339.525       12.918      856.440
11/11/2014  12:47:00       49.895       81.503       84.282       64.888       52.294       40.564     4210.498     2734.638     1645.421        1.241        0.430       95.563       29.435        0.095      339.725       13.255      856.443
11/11/2014  12:48:00      160.924      106.751       71.630       99.672       57.552       53.540     9934.423     3312.198     2866.484        2.926        0.806      193.112       54.168        0.079      339.518       12.903      856.416
11/11/2014  12:49:00       63.719       47.554       73.644       75.042       55.624       56.873     5631.368     3094.067     3234.559        1.185        0.598       79.508       48.016        0.365      339.669       13.160      856.388
11/11/2014  12:50:00       32.908      108.601       79.302       65.524       67.642       54.733     4293.367     4575.420     2995.679        1.551        0.593      113.477       24.322        0.046      339.854       13.473      856.375
11/11/2014  12:51:00       74.079       97.653       87.607       72.452       57.929       48.123     5249.309     3355.774     2315.830        1.681        0.546      122.571       33.098        0.073      339.891       13.534      856.395
11/11/2014  12:52:00       98.129       72.559       50.662      102.547       67.905       55.791    10515.964     4611.043     3112.615        1.785        0.912      122.041       43.632        0.128      339.589       13.025      856.417
11/11/2014  12:53:00      101.176       98.818       22.251       61.241       62.638       46.715     3750.444     3923.521     2182.332        1.517        0.493      141.427       37.700        0.071      339.606       13.055      856.430
11/11/2014  12:54:00       88.999       87.124       78.916       82.778       54.348       46.989     6852.252     2953.654     2207.951        1.687        0.601      124.545       37.957        0.093      339.805       13.388      856.413
11/11/2014  12:55:00      104.067       39.988       40.513       91.476       38.132       43.904     8367.847     1454.014     1927.570        1.291        0.587      111.485       27.545        0.061      339.527       12.921      856.419
11/11/2014  12:56:00      123.552      104.450       76.644       73.707       55.343       49.570     5432.777     3062.888     2457.209        2.150        0.548      161.787       46.857        0.084      339.585       13.017      856.416
11/11/2014  12:57:00       70.503       64.941       26.476       56.990       42.323       33.402     3247.888     1791.201     1115.704        0.802        0.308       95.855       13.210        0.019      339.657       13.141      856.426
11/11/2014  12:58:00      170.690       94.835       21.629       94.698       71.581       50.755     8967.802     5123.790     2576.045        2.763        0.833      195.266       37.349        0.037      339.593       13.030      856.429
11/11/2014  12:59:00      152.634       90.350       11.551       62.149       48.889       49.141     3862.438     2390.138     2414.882        2.013        0.433      177.370       29.392        0.027      339.546       12.951      856.440
11/11/2014  13:00:00       81.765       67.394        7.723       37.896       28.363       26.297     1436.070      804.469      691.513        0.711        0.147      105.960       11.366        0.012      339.421       12.742      856.441
11/11/2014  13:01:00       25.699       68.854        2.938       50.874       56.219       38.478     2588.186     3160.579     1480.540        0.632        0.361       73.494       33.221        0.204      339.655       13.137      856.413
11/11/2014  13:02:00      157.239      119.123       14.964       80.548       74.593       48.317     6487.991     5564.066     2334.544        2.676        0.719      197.268       18.820        0.009      339.737       13.273      856.380
11/11/2014  13:03:00      194.375      126.188       33.440       90.527       69.187       53.860     8195.165     4786.878     2900.897        3.535        0.794      231.744       27.991        0.015      339.810       13.396      856.354
11/11/2014  13:04:00      249.826      177.114      111.210      113.972       79.737       85.607    12989.579     6357.942     7328.577        6.641        1.334      306.239       66.499        0.047      339.601       13.041      856.342
11/11/2014  13:05:00      120.840       75.805       94.862      123.536       96.962       70.369    15261.139     9401.651     4951.743        2.948        1.481      142.649       70.483        0.244      339.735       13.269      856.337
11/11/2014  13:06:00       19.936       76.268      103.357       60.919       55.265       46.136     3711.082     3054.262     2128.517        1.289        0.445       78.830       38.090        0.233      339.961       13.654      856.345
11/11/2014  13:07:00       55.896       77.599       80.711       81.104       68.299       55.941     6577.915     4664.703     3129.348        1.501        0.719       95.635       53.059        0.308      340.035       13.777      856.349
11/11/2014  13:08:00      148.969      114.324       60.335      100.580       59.696       78.079    10116.237     3563.571     6096.306        2.934        0.989      187.781       68.116        0.132      339.894       13.537      856.364
11/11/2014  13:09:00      221.601      140.444       47.716      100.767       76.484       67.125    10154.016     5849.787     4505.754        4.580        1.025      262.357       18.247        0.005      339.790       13.360      856.383
11/11/2014  13:10:00       75.719        8.857       63.828       72.975       61.196       50.999     5325.351     3744.912     2600.924        1.078        0.584       76.235       41.822        0.301      340.129       13.938      856.368
11/11/2014  13:11:00      101.243       93.494      103.812      102.468       96.430       77.503    10499.612     9298.779     6006.645        2.778        1.290      137.809       67.936        0.243      339.975       13.675      856.362
11/11/2014  13:12:00      120.670       46.691       58.349      110.175      104.646       72.279    12138.587    10950.739     5224.249        2.422        1.416      129.388       52.892        0.167      340.021       13.753      856.356
11/11/2014  13:13:00      165.800      106.016       87.998      142.439       95.918       79.737    20288.761     9200.279     6357.965        4.115        1.792      196.797       75.135        0.146      340.020       13.750      856.346
11/11/2014  13:14:00      144.079       98.630       84.756      100.670       91.280       72.007    10134.434     8332.098     5184.960        3.066        1.183      174.604       53.860        0.095      339.892       13.534      856.344
11/11/2014  13:15:00      188.184      122.132      126.851      143.741      107.297       80.121    20661.439    11512.631     6419.441        5.250        1.930      224.342       84.215        0.141      339.833       13.434      856.340
11/11/2014  13:16:00       67.087      118.433      149.135       82.501       82.075       51.633     6806.341     6736.293     2665.962        2.849        0.810      136.114       48.825        0.129      339.907       13.560      856.365
11/11/2014  13:17:00       50.841       74.767      105.754       97.088       72.588       58.050     9426.093     5268.947     3369.763        1.871        0.903       90.415       56.892        0.396      340.020       13.753      856.373
11/11/2014  13:18:00      119.852      113.241      152.142      108.800       80.033       68.337    11837.496     6405.305     4670.004        3.662        1.146      164.888       66.659        0.163      339.824       13.419      856.375
11/11/2014  13:19:00      129.397       94.720      134.804      114.054      108.331       74.162    13008.260    11735.655     5500.047        3.706        1.512      160.361       69.616        0.188      339.952       13.634      856.348
11/11/2014  13:20:00       86.033       95.683       92.638       81.627       75.443       74.822     6663.003     5691.715     5598.317        2.154        0.898      128.674       40.455        0.099      340.344       14.299      856.334
11/11/2014  13:21:00       77.089      110.997      120.369      106.224       90.481       67.395    11283.477     8186.859     4542.077        2.838        1.201      135.140       56.820        0.177      340.447       14.472      856.342
11/11/2014  13:22:00      108.642      119.206      134.099      135.132       99.441       91.880    18260.565     9888.559     8441.952        4.029        1.830      161.286       73.169        0.206      340.103       13.889      856.339
11/11/2014  13:23:00      196.158       92.642       44.642      126.069      107.908       79.877    15893.288    11644.080     6380.294        4.148        1.696      216.934       62.958        0.084      339.878       13.512      856.369
11/11/2014  13:24:00      293.765      195.469       82.573      128.636       78.881       53.153    16547.238     6222.244     2825.238        7.845        1.280      352.854       45.577        0.017      340.068       13.831      856.409
11/11/2014  13:25:00      187.260      121.940       40.198      116.254       76.047       66.414    13514.977     5783.086     4410.834        3.763        1.185      223.463       48.905        0.048      340.118       13.916      856.439
11/11/2014  13:26:00      138.296      113.242       97.549       98.512       78.583       70.022     9704.688     6175.274     4903.147        3.112        1.039      178.744       61.327        0.118      340.064       13.823      856.425
11/11/2014  13:27:00       22.849       47.136       44.443       60.805       48.331       39.386     3697.288     2335.876     1551.281        0.615        0.379       52.382       31.342        0.358      340.361       14.329      856.440
11/11/2014  13:28:00       82.157      179.022      -29.894       70.784      104.496       61.095     5010.403    10919.363     3732.552        2.967        0.983      196.974       54.664        0.077      340.045       13.792      856.449
11/11/2014  13:29:00      104.704      121.057       -2.700       72.525       82.909       60.732     5259.822     6873.923     3688.433        2.072        0.791      160.055       58.900        0.135      340.065       13.826      856.448
11/11/2014  13:30:00       96.507       98.368       11.100       78.445       49.479       44.383     6153.612     2448.176     1969.853        1.484        0.529      137.804       20.579        0.022      340.070       13.837      856.443
11/11/2014  13:31:00      125.862       79.597        3.996      101.166       62.570       53.797    10234.521     3915.017     2894.112        1.961        0.852      148.919       29.521        0.039      340.089       13.869      856.426
11/11/2014  13:32:00       36.430      157.493      -14.784       90.455       94.941       56.155     8182.125     9013.846     3153.439        2.335        1.017      161.652       60.699        0.141      340.113       13.908      856.436
11/11/2014  13:33:00       51.906      115.614       22.156       66.357      161.397       67.915     4403.310    26049.023     4612.422        2.580        1.753      126.732       84.704        0.447      340.311       14.243      856.417
11/11/2014  13:34:00       23.561       24.439       37.229       65.528       69.955       43.306     4293.856     4893.730     1875.374        0.680        0.553       33.947       18.268        0.290      340.078       13.850      856.404
11/11/2014  13:35:00       33.760       43.966       38.828       77.785       48.234       39.370     6050.582     2326.480     1549.995        0.725        0.496       55.433       28.890        0.272      340.233       14.111      856.398
11/11/2014  13:36:00       95.352       60.498       45.813       83.565       40.908       45.582     6983.056     1673.451     2077.723        1.279        0.537      112.925       46.008        0.166      340.135       13.945      856.386
11/11/2014  13:37:00       85.201       94.004       98.277       92.299       70.487       65.498     8519.111     4968.456     4289.956        2.176        0.889      126.870       56.173        0.196      339.954       13.639      856.364
11/11/2014  13:38:00      117.777      117.385       71.359      125.689       65.057       56.893    15797.841     4232.444     3236.767        2.800        1.163      166.284       57.700        0.120      339.963       13.655      856.370
11/11/2014  13:39:00      122.916       88.289       22.563       93.801       83.157       62.643     8798.663     6915.009     3924.190        2.152        0.982      151.338       22.703        0.023      339.907       13.560      856.391
11/11/2014  13:40:00       80.180       28.872       38.940       55.763       55.351       48.334     3109.566     3063.721     2336.156        0.864        0.425       85.220       31.811        0.139      339.980       13.686      856.393
11/11/2014  13:41:00      116.582       53.670       69.138       79.311       94.817       58.123     6290.200     8990.225     3378.259        1.995        0.933      128.343       50.444        0.154      339.929       13.597      856.374
11/11/2014  13:42:00       21.444       54.093       81.168       53.511       72.393       38.884     2863.391     5240.817     1511.953        0.979        0.481       58.188       36.868        0.401      340.177       14.019      856.362
11/11/2014  13:43:00       38.032       73.015       82.229       75.538       63.843       58.561     5705.987     4075.973     3429.393        1.337        0.661       82.327       46.308        0.316      340.169       14.004      856.353
11/11/2014  13:44:00      108.353       54.054       38.336       65.460       75.317       61.774     4285.026     5672.578     3815.984        1.495        0.689      121.087       51.268        0.179      340.051       13.805      856.327
11/11/2014  13:45:00      180.237      105.736       58.240       85.948       77.278       55.595     7387.126     5971.874     3090.856        3.175        0.822      208.963       43.560        0.043      340.014       13.740      856.312
11/11/2014  13:46:00      149.651       62.182       65.164      105.592       78.273       69.547    11149.590     6126.612     4836.821        2.631        1.106      162.056       65.723        0.164      339.923       13.587      856.312
11/11/2014  13:47:00      118.848       97.277       62.739       85.721       55.676       56.288     7348.139     3099.867     3168.345        2.057        0.681      153.583       29.927        0.038      340.001       13.719      856.317
11/11/2014  13:48:00      129.006      131.090       62.067       72.242       47.456       62.347     5218.922     2252.089     3887.090        2.452        0.568      183.922       48.887        0.071      340.029       13.766      856.309
11/11/2014  13:49:00      188.188      109.265       49.821       64.911       64.899       61.799     4213.500     4211.926     3819.104        3.104        0.612      217.609       28.762        0.017      339.982       13.685      856.305
11/11/2014  13:50:00      131.314      116.460       18.485      104.630       69.284       53.785    10947.406     4800.333     2892.776        2.489        0.932      175.517       28.235        0.026      340.031       13.769      856.295
11/11/2014  13:51:00       96.177       79.094       55.905       73.860       52.634       47.355     5455.276     2770.364     2242.504        1.455        0.523      124.523       32.801        0.069      340.126       13.932      856.292
11/11/2014  13:52:00      100.455       72.559       64.103       84.350       62.630       62.114     7114.914     3922.491     3858.157        1.718        0.745      123.919       64.448        0.270      340.040       13.785      856.277
11/11/2014  13:53:00      263.884      145.220       41.646      121.104       76.651       67.463    14666.120     5875.360     4551.282        5.877        1.255      301.204       34.257        0.013      339.953       13.635      856.243
11/11/2014  13:54:00       99.351       86.797      104.940      122.858      126.512       63.305    15094.132    16005.268     4007.487        3.175        1.755      131.925       57.031        0.187      339.963       13.654      856.221
11/11/2014  13:55:00       73.630      104.052      110.340       86.735       70.877       75.212     7522.934     5023.490     5656.879        2.331        0.910      127.468       50.765        0.159      339.891       13.534      856.244
11/11/2014  13:56:00       12.630       -6.325       36.407       45.104       55.757       38.198     2034.348     3108.875     1459.072        0.406        0.330       14.126       29.738        4.432      340.072       13.840      856.289
11/11/2014  13:57:00       19.069       32.124       52.652       49.832       50.285       35.103     2483.225     2528.568     1232.191        0.520        0.312       37.357       38.657        1.071      340.103       13.893      856.297
11/11/2014  13:58:00      123.061       85.265       14.284       67.702       51.371       49.588     4583.581     2639.021     2459.019        1.615        0.484      149.713       32.758        0.048      340.190       14.038      856.303
11/11/2014  13:59:00      142.813       88.875       11.286       65.444       62.400       44.908     4282.878     3893.711     2016.700        1.931        0.510      168.209       34.327        0.042      340.138       13.948      856.299
11/11/2014  14:00:00      120.988      110.918       73.740      113.425       94.360       89.479    12865.292     8903.784     8006.491        3.107        1.489      164.136       62.248        0.144      340.074       13.841      856.278
11/11/2014  14:01:00       80.726      139.980      117.035       87.395       79.753       74.100     7637.916     6360.572     5490.858        2.964        0.974      161.589       67.836        0.176      340.052       13.803      856.261
11/11/2014  14:02:00      164.420      102.368       17.450       68.650       54.180       55.446     4712.762     2935.437     3074.304        2.427        0.536      193.683       26.902        0.019      340.054       13.807      856.271
11/11/2014  14:03:00       95.927      104.358       34.456       82.850       67.192       58.382     6864.130     4514.736     3408.422        1.803        0.739      141.748       52.542        0.137      340.174       14.012      856.267
11/11/2014  14:04:00       83.564       89.429       72.083       78.791       60.995       53.993     6207.955     3720.443     2915.261        1.651        0.642      122.394       39.354        0.103      340.216       14.083      856.255
11/11/2014  14:05:00       90.691       77.865      103.848       90.094       66.307       59.201     8116.840     4396.662     3504.737        2.054        0.801      119.532       60.937        0.260      340.161       13.990      856.236
11/11/2014  14:06:00      101.185      116.665       62.831      108.116       85.315       78.339    11688.969     7278.656     6137.026        2.645        1.255      154.431       66.830        0.187      340.154       13.976      856.231
11/11/2014  14:07:00      179.486      110.969       38.164      100.201       73.375       53.344    10040.150     5383.919     2845.564        3.212        0.913      211.020       33.714        0.026      340.195       14.045      856.220
11/11/2014  14:08:00      203.541      117.714       26.355       93.876       71.653       47.490     8812.702     5134.118     2255.266        3.609        0.810      235.128       39.891        0.029      339.879       13.511      856.200
11/11/2014  14:09:00       70.504       89.627       79.475       88.028       60.996       64.343     7748.858     3720.544     4139.981        1.746        0.780      114.035       54.991        0.233      340.206       14.064      856.162
11/11/2014  14:10:00      171.147      143.068       16.884       72.434       62.053       52.994     5246.612     3850.591     2808.318        3.097        0.595      223.069       19.053        0.007      340.111       13.903      856.147
11/11/2014  14:11:00      108.321       63.535       46.216       69.147       65.626       51.931     4781.364     4306.814     2696.792        1.484        0.589      125.579       34.090        0.074      340.285       14.199      856.142
11/11/2014  14:12:00       90.797       96.337        7.616       68.801       65.609       51.914     4733.524     4304.500     2695.094        1.466        0.587      132.382       40.551        0.094      340.344       14.300      856.146
11/11/2014  14:13:00       77.068       94.374       -0.305       69.521       60.677       43.529     4833.230     3681.712     1894.780        1.263        0.520      121.844       32.674        0.072      340.449       14.476      856.137
11/11/2014  14:14:00       68.111      142.175       -1.759       70.507       72.214       47.275     4971.243     5214.810     2234.933        1.864        0.621      157.648       41.361        0.069      340.277       14.184      856.114
11/11/2014  14:15:00       94.041      178.155       -0.935       95.095      107.538       60.729     9043.021    11564.335     3687.989        3.243        1.215      201.452       65.173        0.105      340.130       13.936      856.081
11/11/2014  14:16:00      232.276      178.554       11.804      122.309       85.822       67.288    14959.397     7365.394     4527.713        5.641        1.343      292.974       37.999        0.017      340.082       13.853      856.064
11/11/2014  14:17:00      178.319      122.154       10.898       91.478       59.297       52.243     8368.275     3516.121     2729.283        3.072        0.731      216.147       46.050        0.045      340.000       13.716      856.058
11/11/2014  14:18:00      107.546       60.752       22.859       78.034       51.390       56.375     6089.262     2640.920     3178.110        1.384        0.595      123.519       48.885        0.157      340.142       13.958      856.055
11/11/2014  14:19:00      135.238       82.449       35.756      104.421       60.970       73.858    10903.726     3717.398     5455.028        2.322        1.004      158.390       63.336        0.160      340.196       14.049      856.071
11/11/2014  14:20:00       97.025       51.525       51.493      115.805       83.648       67.471    13410.812     6997.058     4552.396        1.984        1.248      109.857       54.208        0.243      340.140       13.955      856.091
11/11/2014  14:21:00       52.049       66.309       54.670       65.963       61.350       53.378     4351.139     3763.771     2849.194        1.053        0.548       84.297       43.303        0.264      340.137       13.951      856.117
11/11/2014  14:22:00       85.871       93.958       82.957       88.735       54.118       48.268     7873.859     2928.720     2329.779        1.811        0.657      127.287       46.552        0.134      340.157       13.982      856.117
11/11/2014  14:23:00       47.841       16.327       37.651       60.482       41.077       37.339     3658.102     1687.310     1394.196        0.535        0.337       50.550       35.999        0.507      340.359       14.323      856.097
11/11/2014  14:24:00      148.018       82.452       26.099       96.094       90.276       53.555     9234.004     8149.701     2868.151        2.482        1.013      169.434       14.436        0.007      340.268       14.170      856.095
11/11/2014  14:25:00      166.786       81.078       46.359      111.582       73.827       61.379    12450.470     5450.396     3767.330        2.910        1.083      185.449       50.945        0.075      340.150       13.969      856.107
11/11/2014  14:26:00      140.604      103.830       26.938       76.524       50.840       50.269     5855.879     2584.753     2526.983        2.112        0.548      174.786       21.898        0.016      340.196       14.047      856.121
11/11/2014  14:27:00      113.954       66.971       21.137       56.586       43.177       31.583     3201.962     1864.241      997.490        1.199        0.303      132.176       17.437        0.017      340.283       14.195      856.124
11/11/2014  14:28:00      125.823       78.419       16.928       70.089       61.253       43.967     4912.507     3751.970     1933.070        1.643        0.530      148.260       32.545        0.048      340.346       14.301      856.139
11/11/2014  14:29:00       89.639      105.868        2.714       79.392       54.856       34.018     6303.061     3009.136     1157.215        1.486        0.523      138.720       26.003        0.035      340.212       14.077      856.164
11/11/2014  14:30:00       54.165       57.708       26.123       55.419       44.873       34.652     3071.246     2013.546     1200.736        0.661        0.314       79.145       20.891        0.070      340.308       14.237      856.190
11/11/2014  14:31:00      160.774       77.756       33.857       65.340       55.999       43.772     4269.293     3135.844     1915.960        2.118        0.466      178.590       31.266        0.031      340.241       14.124      856.206
11/11/2014  14:32:00       38.829       47.436       55.370       80.466       54.141       54.561     6474.845     2931.236     2976.914        0.960        0.619       61.301       54.156        0.780      340.493       14.550      856.197
11/11/2014  14:33:00      -26.588       57.293       99.197       27.536       56.931       48.467      758.253     3241.087     2349.035        1.009        0.317       63.162       38.506        0.372      340.683       14.873      856.171
11/11/2014  14:34:00       10.938        9.982       53.214       50.085       61.060       59.374     2508.538     3728.265     3525.290        0.640        0.488       14.808       48.118       10.559      340.548       14.645      856.166
11/11/2014  14:35:00       81.585       62.905       -6.612       78.931       70.776       39.804     6230.078     5009.230     1584.396        1.174        0.641      103.020       28.608        0.077      340.324       14.265      856.181
11/11/2014  14:36:00       64.927      150.625      -12.213       71.901       61.611       34.979     5169.745     3795.863     1223.548        1.862        0.509      164.022       31.155        0.036      340.396       14.384      856.198
11/11/2014  14:37:00      114.538       69.651       10.838       91.197       69.581       51.937     8316.901     4841.514     2697.422        1.697        0.793      134.053       26.172        0.038      340.432       14.446      856.217
11/11/2014  14:38:00       75.346      165.084      -26.217       37.021       66.447       40.480     1370.541     4415.158     1638.652        2.052        0.371      181.465       35.804        0.039      340.073       13.841      856.236
11/11/2014  14:39:00       50.090      102.195      -10.503       53.172       48.419       30.959     2827.265     2344.430      958.441        0.960        0.307      113.810       27.213        0.057      340.062       13.823      856.244
11/11/2014  14:40:00       67.526       73.562        8.631       59.851       37.120       38.839     3582.149     1377.887     1508.491        0.826        0.323       99.856       23.368        0.055      340.217       14.084      856.262
11/11/2014  14:41:00      161.586      114.192        9.533       70.056       73.974       52.927     4907.864     5472.176     2801.229        2.621        0.659      197.863       37.966        0.037      340.320       14.256      856.259
11/11/2014  14:42:00      187.574      117.030       14.181       84.548       63.274       62.869     7148.297     4003.626     3952.524        3.209        0.755      221.088       39.914        0.033      340.173       14.006      856.257
11/11/2014  14:43:00      128.588       73.041       20.639       72.278       48.534       45.783     5224.092     2355.511     2096.076        1.598        0.484      147.885       21.730        0.022      340.334       14.283      856.236
11/11/2014  14:44:00       84.132      132.204       -7.883       81.535       95.334       50.194     6647.891     9088.503     2519.407        2.143        0.913      156.704       51.057        0.106      340.436       14.453      856.225
11/11/2014  14:45:00       91.775      130.904       10.671      103.889       93.836       62.305    10792.930     8805.219     3881.910        2.457        1.174      159.870       48.034        0.090      340.423       14.432      856.222
11/11/2014  14:46:00       82.442      102.197       19.320       80.665       72.062       60.688     6506.784     5192.883     3683.053        1.650        0.769      131.304       44.367        0.114      340.345       14.301      856.218
11/11/2014  14:47:00      135.215      136.280        3.071      105.193       63.092       54.722    11065.488     3980.620     2994.491        2.745        0.902      191.978       35.886        0.035      340.262       14.158      856.218
11/11/2014  14:48:00      295.855      212.511       27.224       93.157       73.854       63.708     8678.150     5454.364     4058.671        7.581        0.910      364.268       36.845        0.010      340.154       13.975      856.215
11/11/2014  14:49:00      144.925      133.241       11.536       95.629       74.761       61.378     9144.817     5589.166     3767.216        2.869        0.925      196.867       26.021        0.017      340.112       13.905      856.221
11/11/2014  14:50:00      122.657       92.686        5.461       80.420       47.373       46.179     6467.413     2244.207     2132.493        1.725        0.542      153.738       27.486        0.032      340.261       14.158      856.210
11/11/2014  14:51:00       64.572       87.833        1.778       63.678       70.024       43.321     4054.921     4903.377     1876.690        1.136        0.542      109.014       42.174        0.150      340.465       14.503      856.221
11/11/2014  14:52:00       42.440      256.812      -36.059       91.702       95.560       54.110     8409.187     9131.792     2927.896        4.476        1.023      260.295       47.004        0.033      340.295       14.213      856.234
11/11/2014  14:53:00       70.115      118.511       -3.290       70.291       71.272       49.233     4940.775     5079.638     2423.883        1.571        0.622      137.699       38.545        0.078      340.419       14.427      856.246
11/11/2014  14:54:00      190.096      142.817        8.168      105.135       82.089       53.157    11053.301     6738.571     2825.634        3.860        1.031      237.767       46.557        0.038      340.197       14.050      856.258
11/11/2014  14:55:00      212.476      137.103       19.197       83.293       67.229       54.929     6937.800     4519.803     3017.213        3.939        0.724      252.870       35.949        0.020      340.205       14.061      856.248
11/11/2014  14:56:00      103.233      208.897      -22.256       85.003       89.629       57.083     7225.546     8033.421     3258.458        3.665        0.926      233.013       50.027        0.046      340.252       14.141      856.271
11/11/2014  14:57:00       73.699      143.535       -6.903       75.478       80.955       55.442     5696.992     6553.766     3073.770        2.070        0.766      161.351       53.941        0.112      340.292       14.210      856.300
11/11/2014  14:58:00       33.327       12.010       10.019       56.407       33.615       30.804     3181.744     1129.959      948.879        0.331        0.263       35.425       14.345        0.164      340.511       14.582      856.336
11/11/2014  14:59:00       42.246       37.838        3.134       54.351       36.242       32.973     2954.073     1313.485     1087.192        0.429        0.268       56.714       18.029        0.101      340.540       14.630      856.366
11/11/2014  15:00:00       83.299       64.008       -2.379       72.150       43.968       27.216     5205.607     1933.227      740.685        0.946        0.394      105.051       24.681        0.055      340.431       14.445      856.356
11/11/2014  15:01:00       99.817       90.768       12.471       69.403       51.307       50.263     4816.730     2632.363     2526.334        1.416        0.499      134.915       32.190        0.057      340.372       14.346      856.336
11/11/2014  15:02:00       36.712       81.764       -1.964       60.031       48.386       28.773     3603.688     2341.223      827.896        0.740        0.339       89.628       26.407        0.087      340.466       14.505      856.325
11/11/2014  15:03:00      162.325      118.825       16.543       82.232       49.048       56.885     6762.087     2405.720     3235.870        2.657        0.620      201.168       34.000        0.029      340.436       14.454      856.320
11/11/2014  15:04:00      169.057      102.745       30.280       95.472       71.255       61.307     9114.846     5077.308     3758.515        2.900        0.898      197.831       37.127        0.035      340.329       14.271      856.324
11/11/2014  15:05:00      160.692      142.743       10.646       85.287       62.603       53.597     7273.932     3919.082     2872.614        3.019        0.703      214.936       37.040        0.030      340.106       13.894      856.342
11/11/2014  15:06:00       44.857      122.075      -15.430       51.137       60.037       48.978     2614.994     3604.399     2398.877        1.288        0.431      130.055       44.625        0.118      340.210       14.072      856.359
11/11/2014  15:07:00       38.516      142.920      -21.855       60.836       82.797       37.177     3701.047     6855.333     1382.134        1.716        0.597      148.019       40.273        0.074      340.243       14.127      856.381
11/11/2014  15:08:00      104.994       79.444       32.677       63.254       38.875       49.023     4001.057     1511.249     2403.210        1.316        0.396      131.662       16.683        0.016      340.274       14.181      856.390
11/11/2014  15:09:00      138.257       99.945       34.976       69.022       61.043       42.459     4764.009     3726.229     1802.749        2.031        0.515      170.599       32.133        0.035      340.239       14.120      856.389
11/11/2014  15:10:00      155.463       95.277       23.027       84.821       55.759       45.205     7194.616     3109.080     2043.517        2.306        0.617      182.336       26.103        0.020      340.226       14.098      856.375
11/11/2014  15:11:00      148.379       85.955       27.298       70.586       48.277       41.280     4982.360     2330.674     1704.012        1.958        0.451      171.477       23.017        0.018      340.253       14.142      856.380
11/11/2014  15:12:00      164.331       79.833       12.640       98.234       62.072       41.012     9649.930     3852.976     1681.969        2.436        0.759      182.696       36.578        0.040      340.256       14.150      856.374
11/11/2014  15:13:00      100.352       83.381       69.583      101.859       67.272       58.645    10375.327     4525.464     3439.250        2.010        0.917      130.472       46.396        0.126      340.307       14.234      856.353
11/11/2014  15:14:00       92.217      122.650       13.467       75.498       59.402       45.329     5699.910     3528.538     2054.687        1.750        0.564      153.450       24.105        0.025      340.315       14.250      856.342
11/11/2014  15:15:00       84.067      136.019      -24.365       50.658       89.048       46.572     2566.234     7929.499     2168.991        1.941        0.633      159.901       45.827        0.082      340.328       14.270      856.361
11/11/2014  15:16:00       73.150       54.622       16.978       51.901       40.516       25.786     2693.686     1641.533      664.943        0.681        0.250       91.294       10.428        0.013      340.346       14.303      856.378
11/11/2014  15:17:00       37.207        8.096        7.349       52.082       59.371       39.482     2712.543     3524.959     1558.792        0.465        0.390       38.078       34.130        0.803      340.332       14.280      856.383
11/11/2014  15:18:00      149.797      116.616       83.209       89.968       81.740       68.888     8094.318     6681.360     4745.594        3.124        0.976      189.838       33.120        0.030      340.226       14.098      856.396
11/11/2014  15:19:00       88.240       60.637       46.226       77.002       69.941       60.926     5929.268     4891.677     3712.016        1.406        0.727      107.066       51.949        0.235      340.292       14.211      856.408
11/11/2014  15:20:00       76.032       57.644       20.757       71.447       54.906       43.643     5104.652     3014.671     1904.700        0.978        0.501       95.414       20.401        0.046      340.327       14.271      856.414
11/11/2014  15:21:00       66.239      119.668        1.994       69.231       93.925       56.570     4792.936     8821.852     3200.161        1.776        0.841      136.778       51.738        0.143      340.264       14.161      856.434
11/11/2014  15:22:00      184.472       97.665       61.498       99.876       78.837       72.576     9975.311     6215.348     5267.305        3.440        1.073      208.731       60.490        0.084      340.070       13.834      856.450
11/11/2014  15:23:00      188.182      142.152       80.645       79.471       65.105       69.695     6315.684     4238.701     4857.384        3.876        0.771      235.839       34.242        0.021      340.017       13.744      856.445
11/11/2014  15:24:00       83.336       72.098       33.898       63.103       49.308       43.015     3981.996     2431.257     1850.296        1.078        0.413      110.195       37.317        0.115      340.125       13.927      856.439
11/11/2014  15:25:00       43.903       53.673       39.854       85.968       42.346       40.770     7390.578     1793.198     1662.192        0.862        0.542       69.342       17.907        0.067      340.164       13.995      856.434
11/11/2014  15:26:00      142.956       93.653       73.326       90.970       69.095       74.398     8275.581     4774.115     5534.999        2.658        0.929      170.901       51.822        0.092      340.045       13.794      856.433
11/11/2014  15:27:00       80.508       76.235       78.981       92.599       62.378       48.976     8574.499     3890.970     2398.603        1.669        0.743      110.876       33.587        0.092      340.120       13.920      856.436
11/11/2014  15:28:00      133.403      102.943       55.147       60.577       48.201       48.924     3669.582     2323.328     2393.576        1.991        0.419      168.504       37.232        0.049      340.099       13.884      856.433
11/11/2014  15:29:00      209.430      121.527       23.339      100.305       70.466       50.637    10061.099     4965.439     2564.088        3.838        0.880      242.136       22.396        0.009      340.111       13.905      856.437
11/11/2014  15:30:00       59.319      108.168      -13.739       55.871       92.093       46.990     3121.584     8481.076     2208.061        1.461        0.691      123.365       46.376        0.141      340.143       13.959      856.443
11/11/2014  15:31:00      156.473      129.263        8.400      115.584       70.449       47.567    13359.697     4963.065     2262.604        3.092        1.029      202.960       38.256        0.036      340.066       13.829      856.437
11/11/2014  15:32:00      230.563      126.135       41.222      107.565       83.091       61.674    11570.179     6904.040     3803.729        4.652        1.114      262.810       40.759        0.024      339.983       13.687      856.411
11/11/2014  15:33:00      151.745      111.102       13.489       90.856       90.483       49.572     8254.730     8187.162     2457.353        2.722        0.945      188.070       35.009        0.035      340.062       13.820      856.414
11/11/2014  15:34:00      146.338       95.378       34.039       99.671       83.457       62.080     9934.259     6965.135     3853.904        2.621        1.038      174.676       47.928        0.075      340.082       13.856      856.427
11/11/2014  15:35:00      167.301      148.235       19.456      115.157       73.092       67.218    13261.059     5342.378     4518.264        3.673        1.156      223.524       40.535        0.033      339.977       13.678      856.454
11/11/2014  15:36:00      111.118      137.065       14.632      103.491       63.294       52.782    10710.310     4006.097     2785.960        2.442        0.875      176.448       42.691        0.059      339.953       13.639      856.463
11/11/2014  15:37:00      250.696      139.971       25.977      113.434       99.038       75.241    12867.211     9808.435     5661.223        5.572        1.417      287.124       56.871        0.039      339.911       13.563      856.450
11/11/2014  15:38:00      185.662      115.520       38.933       92.361       72.488       51.809     8530.610     5254.457     2684.212        3.290        0.823      218.667       13.542        0.004      339.916       13.573      856.453
11/11/2014  15:39:00      188.711      133.103       41.212       75.622       62.460       55.341     5718.691     3901.201     3062.580        3.385        0.634      230.929       46.490        0.041      339.933       13.602      856.435
11/11/2014  15:40:00      229.308      155.851       31.002      105.399       87.885       74.388    11108.994     7723.824     5533.648        5.109        1.218      277.257       55.523        0.040      339.924       13.587      856.415
11/11/2014  15:41:00      248.717      202.071       28.669      106.369       90.201       62.267    11314.464     8136.301     3877.164        6.342        1.166      320.457       42.540        0.018      339.874       13.502      856.405
11/11/2014  15:42:00      196.983      136.935       35.308       84.752       56.453       60.432     7182.980     3186.937     3651.970        3.641        0.701      239.903       23.921        0.010      339.862       13.483      856.404
11/11/2014  15:43:00      169.898      105.814       11.600       99.355       89.342       61.353     9871.456     7982.043     3764.132        3.090        1.081      200.155       38.203        0.036      339.886       13.521      856.394
11/11/2014  15:44:00      248.221      145.816       16.539       91.179       77.624       66.107     8313.562     6025.417     4370.124        5.093        0.935      287.882       24.252        0.007      339.859       13.477      856.396
11/11/2014  15:45:00      222.584      130.697       28.397       89.946       79.142       55.880     8090.245     6263.408     3122.531        4.245        0.874      258.119       13.834        0.003      339.849       13.461      856.387
11/11/2014  15:46:00      257.375      148.806       52.091      106.393       77.184       60.139    11319.428     5957.333     3616.756        5.599        1.045      297.297       40.696        0.019      339.841       13.447      856.403
11/11/2014  15:47:00      126.262       78.545       25.706       62.315       50.356       46.278     3883.101     2535.707     2141.629        1.566        0.428      148.699       31.617        0.045      339.826       13.425      856.430
11/11/2014  15:48:00      112.304       56.704       31.455       81.211       49.285       37.980     6595.296     2428.986     1442.495        1.364        0.523      125.808       27.171        0.047      339.848       13.461      856.437
11/11/2014  15:49:00      160.834       81.415       34.946      130.328       76.675       61.040    16985.498     5879.099     3725.840        3.015        1.330      180.266       24.923        0.019      339.845       13.456      856.442
11/11/2014  15:50:00      131.768      102.498       12.621       81.503       63.813       61.982     6642.730     4072.146     3841.824        2.129        0.728      166.939       29.609        0.031      339.829       13.429      856.431
11/11/2014  15:51:00      149.145       99.311       38.169       64.968       47.576       52.364     4220.878     2263.467     2741.943        2.139        0.461      179.184       38.610        0.046      339.825       13.421      856.428
11/11/2014  15:52:00      109.537       76.852        5.412       54.005       35.820       30.797     2916.561     1283.055      948.427        1.154        0.257      133.808       27.109        0.041      339.847       13.461      856.431
11/11/2014  15:53:00       73.877       65.483       -0.788       56.624       57.422       38.162     3206.256     3297.316     1456.300        0.885        0.398       98.721       35.580        0.130      339.876       13.509      856.428
11/11/2014  15:54:00       86.918      109.649        1.301       73.929       65.443       43.311     5465.562     4282.818     1875.884        1.560        0.581      139.920       30.729        0.048      339.876       13.509      856.433
11/11/2014  15:55:00      115.868       72.782       13.455       68.874       49.539       40.414     4743.658     2454.070     1633.293        1.387        0.442      136.831       33.838        0.061      339.880       13.515      856.451
11/11/2014  15:56:00      144.667       92.874       27.963       95.782       72.015       48.526     9174.226     5186.185     2354.808        2.352        0.836      171.913       20.195        0.014      339.780       13.347      856.452
11/11/2014  15:57:00      194.749      127.539       30.146       99.272       76.748       59.123     9854.871     5890.224     3495.574        3.717        0.962      232.795       18.553        0.006      339.788       13.360      856.458
11/11/2014  15:58:00      104.660      111.939        1.613       78.108       73.299       42.154     6100.852     5372.755     1776.918        1.837        0.663      153.245       33.329        0.047      339.815       13.407      856.468
11/11/2014  15:59:00       98.118      120.578       -7.745       59.305       60.969       46.276     3517.055     3717.232     2141.445        1.680        0.469      155.455       35.338        0.052      339.818       13.411      856.473
11/11/2014  16:00:00       71.098       79.503        1.855       64.161       45.999       41.752     4116.607     2115.943     1743.235        0.968        0.399      106.657       25.852        0.059      339.794       13.372      856.474
11/11/2014  16:01:00       83.613       96.991       11.969       63.323       51.717       47.112     4009.785     2674.674     2219.523        1.272        0.445      128.056       35.028        0.075      339.794       13.372      856.470
11/11/2014  16:02:00       78.617       63.907       11.332       61.134       49.048       37.820     3737.338     2405.733     1430.318        0.898        0.379      101.314       32.335        0.102      339.773       13.338      856.469
11/11/2014  16:03:00       41.430      146.608      -11.206       69.812       85.244       42.032     4873.673     7266.456     1766.656        1.862        0.695      152.349       40.694        0.071      339.730       13.263      856.485
11/11/2014  16:04:00       60.799      184.689      -18.100       75.340       96.906       47.665     5676.065     9390.775     2271.920        2.773        0.867      194.439       45.274        0.054      339.674       13.167      856.493
11/11/2014  16:05:00      127.606      156.217        8.288       81.185       94.814       70.392     6591.079     8989.641     4954.970        3.064        1.027      201.711       65.453        0.105      339.641       13.111      856.492
11/11/2014  16:06:00      111.316      139.311        7.338       71.605       98.691       52.254     5127.291     9739.946     2730.442        2.472        0.880      178.323       51.093        0.082      339.628       13.090      856.491
11/11/2014  16:07:00      107.048      116.341        6.114       87.690       55.615       48.033     7689.469     3092.991     2307.135        1.906        0.654      158.097       33.849        0.046      339.604       13.050      856.492
11/11/2014  16:08:00      160.229      117.856       17.530       92.389       66.459       46.759     8535.773     4416.818     2186.359        2.750        0.757      198.905       26.290        0.017      339.579       13.008      856.499
11/11/2014  16:09:00      210.772      156.551       34.071       94.597       76.679       71.056     8948.650     5879.701     5048.971        4.498        0.994      262.551       45.551        0.030      339.528       12.919      856.498
11/11/2014  16:10:00      182.205      147.075       18.459       94.939       72.977       55.091     9013.339     5325.613     3034.999        3.627        0.869      234.157       44.623        0.036      339.497       12.867      856.500
11/11/2014  16:11:00      186.361      148.099       33.384       81.731       61.930       56.862     6679.999     3835.359     3233.252        3.576        0.687      238.041       41.006        0.030      339.482       12.842      856.495
11/11/2014  16:12:00      130.945      127.646        2.469       96.644       72.965       54.197     9339.976     5323.844     2937.305        2.552        0.880      182.867       32.354        0.031      339.460       12.805      856.478
11/11/2014  16:13:00      147.962      134.775       14.563      108.391       73.955       54.790    11748.679     5469.287     3001.908        3.024        1.011      200.143       39.625        0.039      339.443       12.777      856.468
11/11/2014  16:14:00      165.386      103.765       27.395       85.081       57.913       51.008     7238.837     3353.877     2601.860        2.603        0.660      195.242       43.818        0.050      339.433       12.762      856.450
11/11/2014  16:15:00      158.479      112.112       22.411      105.468       86.018       56.209    11123.463     7399.165     3159.475        2.993        1.084      194.126       29.343        0.023      339.420       12.740      856.448
11/11/2014  16:16:00      169.399      104.438        8.960       84.849       66.700       49.505     7199.295     4448.946     2450.760        2.689        0.705      199.006       32.976        0.027      339.417       12.736      856.444
11/11/2014  16:17:00      138.947       99.823       -6.518      109.013       57.630       46.726    11883.899     3321.255     2183.283        2.335        0.869      171.087       31.734        0.034      339.402       12.710      856.442
11/11/2014  16:18:00      162.364      135.296       18.709       94.937       61.599       55.700     9013.059     3794.394     3102.463        3.046        0.795      211.346       32.379        0.023      339.400       12.705      856.431
11/11/2014  16:19:00      130.394       71.199       16.823       61.571       49.195       41.917     3790.974     2420.136     1757.040        1.516        0.398      148.566       30.199        0.041      339.395       12.699      856.424
11/11/2014  16:20:00      100.672       85.109       15.869       70.752       53.147       36.628     5005.810     2824.586     1341.629        1.340        0.459      131.827       31.437        0.057      339.392       12.691      856.419
11/11/2014  16:21:00       89.762       68.346       11.416       82.970       59.020       41.569     6883.996     3483.311     1727.985        1.247        0.605      112.820       23.281        0.043      339.365       12.649      856.421
11/11/2014  16:22:00      154.227      116.032       22.637       88.945       55.071       47.371     7911.286     3032.795     2244.039        2.547        0.659      193.001       32.785        0.029      339.384       12.678      856.436
11/11/2014  16:23:00      124.265      108.336        9.708       80.721       66.890       44.239     6515.868     4474.237     1957.117        2.011        0.647      164.859       28.515        0.030      339.372       12.659      856.441
11/11/2014  16:24:00      108.538       96.450       19.740       65.674       63.178       48.223     4313.133     3991.464     2325.473        1.605        0.532      145.200       42.406        0.085      339.371       12.659      856.440
11/11/2014  16:25:00      102.540       91.121       17.306       74.623       54.593       50.127     5568.535     2980.423     2512.718        1.509        0.553      137.177       25.565        0.035      339.356       12.633      856.437
11/11/2014  16:26:00       93.719       79.668        8.465       83.790       60.571       41.278     7020.739     3668.825     1703.910        1.380        0.620      123.005       23.042        0.035      339.341       12.605      856.428
11/11/2014  16:27:00      117.186      163.931      -14.628       80.060       89.915       64.469     6409.602     8084.725     4156.270        2.973        0.933      201.509       55.025        0.075      339.347       12.615      856.434
11/11/2014  16:28:00      104.151       71.953        8.498       51.991       50.741       39.584     2703.063     2574.691     1566.930        1.147        0.342      126.589       30.199        0.057      339.322       12.573      856.450
11/11/2014  16:29:00      102.733       89.858        8.581       68.244       45.680       37.486     4657.261     2086.703     1405.221        1.342        0.407      136.487       26.925        0.039      339.312       12.558      856.459
11/11/2014  16:30:00       67.815       84.210        1.566       50.868       50.122       36.603     2587.542     2512.254     1339.805        0.906        0.322      108.122       25.789        0.057      339.303       12.544      856.464
11/11/2014  16:31:00       48.505      128.664      -11.174       53.212       70.060       46.224     2831.495     4908.402     2136.649        1.445        0.494      137.504       44.036        0.103      339.276       12.498      856.476
11/11/2014  16:32:00       39.959       53.762        5.051       41.153       43.613       29.051     1693.596     1902.080      843.974        0.448        0.222       66.985       29.877        0.199      339.255       12.463      856.483
11/11/2014  16:33:00       67.236      117.517       -6.537       50.661       68.325       42.199     2566.518     4668.245     1780.729        1.369        0.451      135.392       39.264        0.084      339.239       12.435      856.493
11/11/2014  16:34:00       72.384      112.308       -0.187       57.736       48.182       42.626     3333.458     2321.471     1816.992        1.266        0.374      133.613       31.415        0.055      339.206       12.382      856.501
11/11/2014  16:35:00       82.460      139.709       -5.815       68.951       75.089       53.019     4754.175     5638.382     2811.036        1.978        0.660      162.229       42.316        0.068      339.206       12.380      856.503
11/11/2014  16:36:00       62.221       92.406       -3.526       55.755       42.750       36.527     3108.598     1827.598     1334.256        0.935        0.314      111.402       23.843        0.046      339.166       12.313      856.510
11/11/2014  16:37:00       40.335       75.011        5.612       50.376       48.241       39.765     2537.700     2327.209     1581.257        0.686        0.322       85.168       30.719        0.130      339.151       12.288      856.520
11/11/2014  16:38:00       73.665      107.619       -5.501       43.151       62.470       46.003     1862.033     3902.530     2116.309        1.246        0.394      130.416       40.060        0.094      339.150       12.287      856.523
11/11/2014  16:39:00       95.561      127.788       -0.307       74.056       52.205       38.338     5484.254     2725.401     1469.797        1.757        0.484      159.567       40.046        0.063      339.142       12.272      856.513
11/11/2014  16:40:00       46.406       58.324        2.447       46.892       43.817       23.916     2198.882     1919.932      571.967        0.513        0.235       74.534       21.525        0.083      339.093       12.190      856.506
11/11/2014  16:41:00       62.320      109.201       -5.574       58.080       70.036       46.555     3373.303     4905.020     2167.402        1.314        0.522      125.732       42.714        0.115      339.086       12.178      856.512
11/11/2014  16:42:00       39.670      130.608      -11.393       47.816       59.338       34.515     2286.343     3521.046     1191.294        1.288        0.350      136.500       24.755        0.033      339.077       12.164      856.519
11/11/2014  16:43:00       65.395       80.068       11.387       56.778       59.741       40.180     3223.748     3569.024     1614.432        0.961        0.420      103.380       33.948        0.108      339.041       12.102      856.538
11/11/2014  16:44:00       34.018       73.917        2.745       48.457       55.531       31.616     2348.069     3083.717      999.542        0.653        0.322       81.369       28.800        0.125      339.043       12.104      856.552
11/11/2014  16:45:00       55.160      104.529       -3.256       69.338       66.176       44.183     4807.777     4379.226     1952.101        1.256        0.557      118.190       42.357        0.128      339.072       12.154      856.572
11/11/2014  16:46:00       41.879      101.906      -17.723       40.022       49.918       31.210     1601.784     2491.782      974.059        0.876        0.253      110.176       25.441        0.053      339.057       12.129      856.581
11/11/2014  16:47:00       45.243       55.517       -5.060       40.975       43.169       28.951     1678.955     1863.571      838.161        0.477        0.219       71.617       24.475        0.117      339.027       12.080      856.587
11/11/2014  16:48:00       65.627       85.332       -3.583       45.029       40.031       33.946     2027.640     1602.460     1152.344        0.819        0.239      107.649       29.301        0.074      339.043       12.107      856.588
11/11/2014  16:49:00       44.878       95.081       -3.043       32.691       60.620       38.507     1068.669     3674.741     1482.768        0.864        0.311      105.140       38.261        0.132      339.039       12.097      856.584
11/11/2014  16:50:00       30.326      111.285      -12.876       42.843       51.782       30.996     1835.525     2681.390      960.748        0.947        0.274      115.343       30.983        0.072      339.056       12.129      856.579
11/11/2014  16:51:00       46.795       65.163       -3.295       39.485       38.011       35.623     1559.072     1444.821     1269.004        0.536        0.214       80.224       24.842        0.096      338.996       12.028      856.573
11/11/2014  16:52:00       58.717       71.099        4.751       47.435       34.842       34.269     2250.051     1213.962     1174.335        0.658        0.232       92.210       20.332        0.049      338.984       12.006      856.567
11/11/2014  16:53:00       69.247       83.294        7.483       52.438       32.923       29.865     2749.754     1083.904      891.902        0.826        0.236      108.319       20.398        0.035      338.963       11.973      856.563
11/11/2014  16:54:00       64.255       53.331       -1.457       50.736       36.211       28.141     2574.123     1311.212      791.919        0.583        0.234       83.504       11.876        0.020      338.922       11.903      856.559
11/11/2014  16:55:00       58.601       87.516       -0.782       37.192       56.654       35.510     1383.235     3209.621     1260.941        0.847        0.293      105.324       34.488        0.107      338.930       11.914      856.567
11/11/2014  16:56:00       48.581      100.979      -14.180       52.740       55.052       39.385     2781.514     3030.679     1551.183        1.006        0.368      112.057       37.188        0.110      338.926       11.910      856.580
11/11/2014  16:57:00       23.649       48.771        5.252       34.062       33.040       22.847     1160.200     1091.609      521.988        0.287        0.139       54.203       19.453        0.129      338.873       11.819      856.577
11/11/2014  16:58:00       45.835       51.453       -7.663       47.542       34.403       23.966     2260.283     1183.557      574.371        0.441        0.201       68.908       18.066        0.069      338.890       11.847      856.579
11/11/2014  16:59:00       45.690       63.093      -10.668       21.756       46.776       21.305      473.325     2188.004      453.897        0.465        0.156       77.900       24.599        0.100      338.883       11.837      856.582
11/11/2014  17:00:00       23.660       34.016       -0.540       27.089       30.925       21.822      733.797      956.347      476.199        0.194        0.108       41.436       14.836        0.128      338.879       11.828      856.589
11/11/2014  17:01:00       27.808       69.407       -7.744       27.493       48.524       28.011      755.885     2354.574      784.628        0.477        0.195       74.771       30.221        0.163      338.872       11.818      856.595
11/11/2014  17:02:00       32.866       33.623        8.743       33.918       28.314       21.717     1150.448      801.706      471.625        0.235        0.121       47.018       12.341        0.069      338.834       11.755      856.594
11/11/2014  17:03:00       45.518       31.249        2.395       36.512       30.358       14.655     1333.090      921.590      214.769        0.276        0.123       55.213       14.092        0.065      338.767       11.643      856.610
11/11/2014  17:04:00       49.812       48.387        3.311       38.543       28.998       18.969     1485.579      840.887      359.832        0.376        0.134       69.444       14.956        0.046      338.717       11.558      856.620
11/11/2014  17:05:00       41.238       47.964        7.327       27.130       23.468       24.662      736.027      550.739      608.227        0.297        0.095       63.255       16.880        0.071      338.717       11.556      856.640
11/11/2014  17:06:00       38.125       93.938       -2.942       27.141       66.907       28.595      736.636     4476.574      817.691        0.816        0.302      101.380       38.434        0.144      338.768       11.643      856.657
11/11/2014  17:07:00       16.394       74.121       -3.176       38.612       59.312       32.703     1490.899     3517.880     1069.478        0.592        0.304       75.912       38.574        0.258      338.769       11.643      856.676
11/11/2014  17:08:00      -20.865      112.923      -21.989       44.417       25.884       19.456     1972.886      669.973      378.521        0.835        0.151      114.834       15.080        0.017      338.739       11.596      856.702
11/11/2014  17:09:00       27.744      157.953      -32.394       37.726       44.867       19.664     1423.226     2013.031      386.654        1.529        0.191      160.371       21.817        0.019      338.723       11.569      856.715
11/11/2014  17:10:00       -5.843      158.014      -27.036       48.078       36.788       15.245     2311.509     1353.342      232.414        1.481        0.195      158.122       14.895        0.009      338.680       11.495      856.729
11/11/2014  17:11:00       -2.703      113.791      -18.460       45.145       45.328       23.595     2038.101     2054.667      556.711        0.897        0.232      113.824       23.769        0.044      338.741       11.599      856.737
11/11/2014  17:12:00      -21.907      139.170      -16.427       70.762       46.587       27.658     5007.270     2170.319      764.992        1.403        0.397      140.883       21.366        0.023      338.667       11.475      856.745
11/11/2014  17:13:00        1.195      217.219      -36.662       45.159       38.268       21.403     2039.305     1464.439      458.101        2.624        0.198      217.222       18.845        0.008      338.662       11.463      856.756
11/11/2014  17:14:00      -34.038      181.032      -29.116       34.584       56.778       23.120     1196.047     3223.771      534.551        1.987        0.248      184.204       27.493        0.022      338.581       11.329      856.759
11/11/2014  17:15:00        4.030      156.180      -28.991       50.394       33.960       18.009     2539.514     1153.281      324.312        1.463        0.201      156.232       16.201        0.011      338.575       11.320      856.757
11/11/2014  17:16:00      -15.264      121.051      -20.970       39.461       41.231       20.366     1557.193     1700.000      414.758        0.950        0.184      122.010       21.825        0.032      338.621       11.398      856.773
11/11/2014  17:17:00      -25.376      141.332      -25.486       53.852       39.150       19.883     2900.030     1532.684      395.332        1.305        0.241      143.592       19.750        0.019      338.567       11.307      856.786
11/11/2014  17:18:00      -25.306      141.224      -24.615       32.634       42.382       18.588     1064.994     1796.201      345.531        1.220        0.160      143.474       16.637        0.013      338.638       11.425      856.805
11/11/2014  17:19:00       20.017      132.296      -19.520       32.573       57.994       25.107     1060.986     3363.263      630.375        1.167        0.253      133.802       29.912        0.050      338.483       11.167      856.809
11/11/2014  17:20:00        9.551      125.205      -27.151       21.321       32.235       13.839      454.578     1039.102      191.505        0.909        0.084      125.568       15.017        0.014      338.500       11.197      856.823
11/11/2014  17:21:00       23.337       63.975       -4.211       24.554       32.174       20.123      602.880     1035.155      404.939        0.335        0.102       68.098       20.198        0.088      338.421       11.061      856.837
11/11/2014  17:22:00       43.079       37.188       -1.856       26.766       29.280       21.532      716.440      857.340      463.616        0.264        0.102       56.910       13.448        0.056      338.417       11.054      856.865
11/11/2014  17:23:00       15.361       14.355        7.266       16.661       17.356       14.399      277.588      301.217      207.341        0.064        0.039       21.025        6.095        0.084      338.388       11.007      856.891
11/11/2014  17:24:00       21.364       42.646       -9.575       25.592       31.780       15.116      654.973     1009.952      228.505        0.213        0.095       47.698       17.634        0.137      338.409       11.041      856.910
11/11/2014  17:25:00       -4.971      110.489      -20.166       27.919       21.479       11.970      779.451      461.352      143.292        0.701        0.069      110.600       13.337        0.015      338.456       11.119      856.923
11/11/2014  17:26:00       -1.593      137.970      -27.812       35.192       39.612       16.839     1238.493     1569.141      283.567        1.145        0.155      137.979       20.622        0.022      338.482       11.164      856.941
11/11/2014  17:27:00        6.426      143.853      -24.353       34.343       27.461       15.516     1179.439      754.129      240.743        1.175        0.109      143.997       10.589        0.005      338.391       11.011      856.965
11/11/2014  17:28:00       -3.596      132.428      -22.956       34.495       48.034       21.852     1189.910     2307.247      477.491        1.103        0.199      132.477       22.971        0.030      338.318       10.889      857.003
11/11/2014  17:29:00      -30.437      155.750      -25.444       38.241       32.880       25.010     1462.338     1081.104      625.476        1.450        0.158      158.696       14.304        0.008      338.403       11.030      857.039
11/11/2014  17:30:00      -18.272      130.750      -26.106       35.578       39.287       15.105     1265.788     1543.471      228.176        1.057        0.152      132.020       16.758        0.016      338.378       10.987      857.060
11/11/2014  17:31:00        7.146      172.028      -29.428       24.807       22.061       13.364      615.409      486.710      178.589        1.590        0.064      172.176        6.263        0.001      338.300       10.860      857.073
11/11/2014  17:32:00       23.273      201.655      -35.337       44.319       25.705       17.638     1964.151      660.752      311.109        2.270        0.147      202.994       13.982        0.005      338.257       10.784      857.073
11/11/2014  17:33:00       33.060      155.745      -27.006       30.146       48.136       19.451      908.781     2317.049      378.354        1.484        0.180      159.215       22.960        0.021      338.261       10.791      857.062
11/11/2014  17:34:00       20.397      110.842      -20.271       22.998       30.003       16.932      528.913      900.153      286.692        0.741        0.086      112.703       15.583        0.019      338.254       10.780      857.055
11/11/2014  17:35:00       17.527       65.206      -15.453       24.553       33.745       17.711      602.861     1138.754      313.692        0.343        0.103       67.520       20.810        0.095      338.234       10.748      857.078
11/11/2014  17:36:00       10.781       84.059      -15.383       27.551       32.975       16.336      759.079     1087.364      266.859        0.477        0.106       84.747       15.320        0.033      338.217       10.717      857.101
11/11/2014  17:37:00      -33.661      142.775      -26.525       45.193       40.028       20.987     2042.397     1602.257      440.468        1.315        0.204      146.690       17.636        0.014      338.264       10.797      857.111
11/11/2014  17:38:00       12.444      122.474      -14.901       31.182       38.441       24.890      972.326     1477.725      619.496        0.922        0.153      123.105       23.449        0.036      338.221       10.724      857.107
11/11/2014  17:39:00       13.007      127.178      -14.527       66.986       73.637       37.874     4487.112     5422.387     1434.455        1.395        0.567      127.841       47.708        0.139      338.180       10.654      857.106
11/11/2014  17:40:00       13.790       39.091        5.267       26.283       33.704       22.974      690.808     1135.929      527.804        0.205        0.118       41.452       17.188        0.172      338.120       10.556      857.111
11/11/2014  17:41:00        5.831      125.283      -21.071       39.473       53.497       27.408     1558.102     2861.949      751.222        1.067        0.259      125.418       29.357        0.055      338.166       10.633      857.115
11/11/2014  17:42:00        8.852      198.420      -33.261       62.770       56.770       31.169     3940.045     3222.832      971.491        2.434        0.407      198.617       33.773        0.029      338.130       10.571      857.129
11/11/2014  17:43:00       21.515      228.867      -43.247       38.905       57.142       22.088     1513.596     3265.196      487.894        2.999        0.263      229.876       24.770        0.012      338.074       10.475      857.145
11/11/2014  17:44:00       35.697      135.230      -16.043       40.829       58.814       32.946     1666.969     3459.035     1085.460        1.301        0.311      139.862       32.664        0.055      337.998       10.352      857.151
11/11/2014  17:45:00       36.164       96.554      -14.492       42.665       42.860       27.138     1820.274     1836.963      736.477        0.762        0.220      103.104       24.609        0.057      337.989       10.336      857.168
11/11/2014  17:46:00       20.814       82.275       -7.006       38.294       55.840       20.193     1466.462     3118.135      407.751        0.612        0.250       84.867       24.577        0.084      337.971       10.305      857.193
11/11/2014  17:47:00       -8.048      176.146      -29.069       58.254       35.606       21.296     3393.530     1267.760      453.535        1.852        0.256      176.330       10.165        0.003      338.030       10.405      857.211
11/11/2014  17:48:00       43.442       93.666      -11.315       26.050       43.219       22.382      678.621     1867.849      500.953        0.692        0.152      103.250       17.967        0.030      337.974       10.313      857.205
11/11/2014  17:49:00       77.907       66.763        7.283       54.337       37.754       32.005     2952.535     1425.366     1024.292        0.799        0.270      102.600       24.738        0.058      337.963       10.294      857.210
11/11/2014  17:50:00       32.427       52.732       -6.525       36.114       32.368       29.130     1304.252     1047.711      848.538        0.354        0.160       61.905       22.204        0.129      337.929       10.235      857.224
11/11/2014  17:51:00       28.516       83.012      -12.407       35.701       49.779       20.368     1274.554     2477.987      414.845        0.601        0.208       87.774       23.542        0.072      337.964       10.293      857.264
11/11/2014  17:52:00       -6.494      122.426      -14.461       42.265       51.397       31.091     1786.319     2641.635      966.622        1.032        0.270      122.598       31.505        0.066      337.948       10.268      857.295
11/11/2014  17:53:00       22.895      166.918      -34.676       37.257       46.629       17.999     1388.080     2174.282      323.947        1.674        0.194      168.480       15.486        0.008      337.942       10.257      857.296
11/11/2014  17:54:00       15.136      219.775      -35.153       42.466       77.203       26.743     1803.359     5960.286      715.186        2.912        0.424      220.296       28.261        0.016      338.006       10.362      857.271
11/11/2014  17:55:00       36.544      143.824      -17.188       61.652       68.161       33.477     3800.969     4645.966     1120.685        1.594        0.478      148.394       37.326        0.063      337.957       10.282      857.249
11/11/2014  17:56:00       16.929      140.681      -29.701       36.516       28.259       18.549     1333.414      798.594      344.083        1.172        0.124      141.696       15.264        0.012      338.002       10.358      857.269
11/11/2014  17:57:00      -37.096      173.027      -28.447       52.147       93.933       35.072     2719.269     8823.442     1230.034        2.245        0.639      176.959       38.601        0.048      338.073       10.476      857.292
11/11/2014  17:58:00       -7.987      227.456      -36.414       51.284       55.681       21.292     2630.051     3100.325      453.328        2.965        0.309      227.596       19.952        0.008      338.028       10.398      857.285
11/11/2014  17:59:00       47.386      220.251      -29.621       48.492       66.252       41.990     2351.453     4389.318     1763.121        3.007        0.425      225.290       40.762        0.033      337.944       10.258      857.232
11/11/2014  18:00:00       95.709       93.180       11.258       59.729       73.400       57.467     3567.536     5387.632     3302.482        1.511        0.613      133.577       46.293        0.120      337.920       10.220      857.187
11/11/2014  18:01:00      -11.765      165.199      -21.259       92.870       85.696       46.496     8624.901     7343.800     2161.848        2.300        0.907      165.617       54.976        0.110      337.959       10.285      857.193
11/11/2014  18:02:00      -74.834      195.365      -37.584       48.589       51.848       33.268     2360.904     2688.165     1106.779        2.567        0.308      209.207       29.615        0.020      337.970       10.301      857.231
11/11/2014  18:03:00      -89.556       91.485      -13.476       58.181       46.071       38.145     3385.084     2122.542     1455.061        1.177        0.348      128.022       24.142        0.036      338.162       10.626      857.236
11/11/2014  18:04:00      -20.682      144.424      -15.835       38.729       45.227       28.934     1499.960     2045.520      837.152        1.296        0.219      145.898       18.359        0.016      337.935       10.243      857.248
11/11/2014  18:05:00       14.466      205.899      -32.329       46.853       50.029       23.762     2195.181     2502.929      564.648        2.445        0.263      206.406       20.076        0.009      337.909       10.198      857.237
11/11/2014  18:06:00       60.432      139.327      -18.944       50.906       53.695       29.949     2591.413     2883.184      896.918        1.490        0.319      151.869       21.176        0.019      337.817       10.047      857.227
11/11/2014  18:07:00       39.346      145.433      -18.471       39.688       40.840       24.401     1575.166     1667.940      595.428        1.344        0.192      150.661       21.615        0.021      337.838       10.081      857.225
11/11/2014  18:08:00      -29.645      182.009      -28.126       31.848       34.320       20.797     1014.313     1177.896      432.509        1.871        0.131      184.408       20.040        0.012      337.917       10.215      857.247
11/11/2014  18:09:00        1.710      169.009      -27.612       36.243       44.444       24.539     1313.546     1975.309      602.143        1.661        0.195      169.018       22.459        0.018      337.861       10.120      857.250
11/11/2014  18:10:00       21.021      144.636      -15.885       32.657       82.349       38.146     1066.488     6781.399     1455.151        1.546        0.465      146.155       48.365        0.110      337.789        9.998      857.247
11/11/2014  18:11:00       -4.041      156.249      -28.628       34.226       41.954       20.259     1171.396     1760.115      410.424        1.430        0.167      156.301       18.588        0.014      337.796       10.013      857.244
11/11/2014  18:12:00      -45.771       91.194      -19.219       29.410       43.376       21.006      864.920     1881.446      441.272        0.698        0.159      102.036       23.685        0.054      337.866       10.129      857.275
11/11/2014  18:13:00      -54.083      124.151      -11.206       36.447       50.604       22.396     1328.372     2560.752      501.582        1.143        0.220      135.420       21.877        0.026      337.888       10.167      857.287
11/11/2014  18:14:00      -45.379       53.653       -1.309       48.231       20.792       23.616     2326.243      432.325      557.693        0.413        0.166       70.270       22.168        0.100      337.904       10.193      857.301
11/11/2014  18:15:00      -19.752      142.528      -22.321       27.055       24.706       15.952      731.984      610.369      254.473        1.140        0.080      143.890       13.845        0.009      337.874       10.144      857.293
11/11/2014  18:16:00       23.337      129.842      -16.272       30.249       38.829       21.163      915.021     1507.663      447.890        1.027        0.144      131.923       21.461        0.026      337.781        9.988      857.296
11/11/2014  18:17:00       53.156       76.526        6.431       59.564       39.417       30.420     3547.896     1553.680      925.357        0.737        0.301       93.176       21.851        0.055      337.724        9.893      857.280
11/11/2014  18:18:00       44.273       74.581       -5.291       35.751       37.659       27.619     1278.158     1418.231      762.798        0.550        0.173       86.732       20.950        0.058      337.695        9.845      857.276
11/11/2014  18:19:00       56.059       54.312        2.370       20.668       37.836       20.124      427.169     1431.587      404.970        0.418        0.113       78.054       15.192        0.038      337.707        9.862      857.277
11/11/2014  18:20:00       13.240       56.754      -10.238       22.548       36.041       13.010      508.409     1298.978      169.266        0.274        0.099       58.278       19.600        0.113      337.727        9.896      857.306
11/11/2014  18:21:00      -41.336       36.052        2.074       35.321       37.424       21.157     1247.601     1400.589      447.616        0.305        0.155       54.849       16.416        0.090      337.853       10.107      857.353
11/11/2014  18:22:00      -69.255       30.276      -17.614       31.067       35.091       16.363      965.177     1231.362      267.749        0.424        0.123       75.584       18.636        0.061      338.023       10.393      857.391
11/11/2014  18:23:00      -34.138      -29.181       -5.251       24.378       20.425       10.854      594.285      417.163      117.809        0.159        0.056       44.910        7.044        0.025      337.902       10.190      857.424
11/11/2014  18:24:00       -5.427      -38.018        3.908       18.646       11.107       13.566      347.679      123.371      184.043        0.107        0.033       38.403        9.345        0.059      337.906       10.197      857.442
11/11/2014  18:25:00      -17.400       17.865        7.049       30.553       18.014       13.279      933.465      324.516      176.326        0.105        0.072       24.938        7.681        0.095      337.863       10.124      857.450
11/11/2014  18:26:00       -7.172       44.973        6.519       27.883       30.311       20.688      777.448      918.774      427.994        0.212        0.106       45.541       22.969        0.254      337.846       10.096      857.457
11/11/2014  18:27:00       17.513       81.503       -6.534       15.677       21.653        9.695      245.777      468.859       94.001        0.390        0.040       83.363        6.732        0.007      337.874       10.142      857.455
11/11/2014  18:28:00       44.667       35.307        3.605       18.299       23.946       15.289      334.851      573.388      233.747        0.220        0.057       56.936       12.786        0.050      337.724        9.892      857.469
11/11/2014  18:29:00       35.338       37.609       11.739       14.739       11.772       16.732      217.243      138.589      279.960        0.172        0.032       51.606        9.217        0.032      337.710        9.867      857.489
11/11/2014  18:30:00       31.212       24.724       15.970       11.694       11.040       12.848      136.741      121.874      165.064        0.113        0.021       39.817        5.423        0.019      337.669        9.798      857.507
11/11/2014  18:31:00       55.520       28.714        8.994       10.299       10.819        7.681      106.077      117.041       58.991        0.213        0.014       62.505        6.438        0.011      337.790       10.004      857.504
11/11/2014  18:32:00       81.524       43.085        7.861       13.084       12.770       12.439      171.193      163.064      154.719        0.453        0.024       92.209        7.476        0.007      337.719        9.882      857.486
11/11/2014  18:33:00      119.741       64.886       25.325       21.043       20.696       19.918      442.791      428.318      396.713        1.023        0.063      136.191       12.608        0.009      337.596        9.678      857.468
11/11/2014  18:34:00       44.742       46.862       45.571       54.021       37.049       26.947     2918.265     1372.597      726.119        0.564        0.251       64.791       20.570        0.101      337.512        9.536      857.450
11/11/2014  18:35:00       -9.463      -20.185       21.345       14.936       37.510       28.052      223.097     1406.975      786.934        0.168        0.121       22.293       31.155        1.953      337.540        9.584      857.472
11/11/2014  18:36:00      -31.159      -23.087       -5.959       33.365       21.946       17.676     1113.232      481.637      312.454        0.172        0.095       38.780       15.593        0.162      337.559        9.613      857.501
11/11/2014  18:37:00      -20.482      -12.318       -2.729       21.128       14.168       10.475      446.400      200.728      109.736        0.067        0.038       23.900        8.775        0.135      337.497        9.509      857.505
11/11/2014  18:38:00       -5.918      -13.608        1.090       11.426       14.682       12.897      130.556      215.558      166.327        0.037        0.026       14.839       11.992        0.653      337.550        9.602      857.505
11/11/2014  18:39:00      -36.299        1.552        2.721       18.534       10.948        9.558      343.521      119.855       91.346        0.094        0.028       36.332        5.356        0.022      337.672        9.804      857.517
11/11/2014  18:40:00      -10.391       -8.356       -6.550       22.961       14.209        9.631      527.187      201.898       92.750        0.052        0.041       13.334        6.635        0.248      337.669        9.800      857.516
11/11/2014  18:41:00        6.064      -39.963       10.206       42.840       39.323       31.576     1835.255     1546.328      997.031        0.306        0.219       40.420       28.081        0.483      337.627        9.729      857.493
11/11/2014  18:42:00       16.090        3.391       40.561       38.542       41.376       45.644     1485.501     1711.987     2083.377        0.360        0.264       16.443       31.305        3.625      337.460        9.449      857.460
11/11/2014  18:43:00       26.551       11.635       68.802       49.555       82.267       40.026     2455.676     6767.936     1602.078        0.820        0.541       28.988       39.542        1.861      337.509        9.530      857.444
11/11/2014  18:44:00       23.253      -39.497       19.979       33.599       40.955       33.895     1128.914     1677.335     1148.862        0.323        0.198       45.833       22.149        0.234      337.672        9.805      857.455
11/11/2014  18:45:00       42.107      -97.805       -6.093       41.585       38.666       19.190     1729.338     1495.037      368.243        0.748        0.180      106.484       19.210        0.033      337.721        9.887      857.481
11/11/2014  18:46:00      -17.108      -45.920        4.112       37.263       34.405       17.108     1388.540     1183.717      292.668        0.264        0.143       49.003       16.821        0.118      337.719        9.884      857.521
11/11/2014  18:47:00      -46.900      -19.116       -2.116       31.312       24.578       18.240      980.420      604.063      332.691        0.224        0.096       50.646       11.070        0.048      337.614        9.707      857.552
11/11/2014  18:48:00      -50.040       -9.422      -11.611       17.577       20.744       10.777      308.936      430.304      116.133        0.179        0.043       50.919        7.852        0.024      337.503        9.520      857.560
11/11/2014  18:49:00      -23.087      -13.704       -0.059       16.621       19.100       11.802      276.267      364.801      139.282        0.075        0.039       26.848        9.895        0.136      337.463        9.454      857.555
11/11/2014  18:50:00      -17.350       -7.553       -1.195        9.580        7.529        7.183       91.776       56.688       51.590        0.028        0.010       18.923        4.681        0.061      337.523        9.555      857.541
11/11/2014  18:51:00      -13.560      -34.790        3.729       27.594       20.590       15.655      761.403      423.958      245.071        0.142        0.072       37.339       14.448        0.150      337.474        9.471      857.536
11/11/2014  18:52:00      -10.327      -13.022      -13.401       18.618       12.958        8.859      346.635      167.913       78.485        0.052        0.030       16.620        9.196        0.306      337.557        9.613      857.542
11/11/2014  18:53:00       19.160       23.996       12.619       13.935       12.152       11.792      194.197      147.663      139.042        0.079        0.024       30.707        7.053        0.053      337.475        9.473      857.535
11/11/2014  18:54:00       51.982       37.252       -1.413       15.287       18.387       14.306      233.704      338.099      204.648        0.243        0.039       63.952        5.255        0.007      337.391        9.334      857.516
11/11/2014  18:55:00       74.308       39.993        3.739       25.068       18.422       22.336      628.410      339.366      498.909        0.430        0.073       84.387       13.627        0.026      337.365        9.290      857.511
11/11/2014  18:56:00       44.831       14.471       -3.001       27.030       22.892       13.067      730.627      524.022      170.758        0.183        0.071       47.109       15.065        0.102      337.450        9.432      857.539
11/11/2014  18:57:00        8.085       22.582       -2.039       12.058       11.044        6.864      145.394      121.973       47.118        0.045        0.016       23.986        4.902        0.042      337.432        9.402      857.564
11/11/2014  18:58:00       -7.347       30.133       -0.457        8.569        6.809        6.960       73.427       46.356       48.446        0.057        0.008       31.015        4.101        0.017      337.591        9.668      857.577
11/11/2014  18:59:00       -7.778       28.442        5.213       21.998       30.375       21.407      483.899      922.668      458.266        0.138        0.093       29.486       19.450        0.435      337.557        9.611      857.578
11/11/2014  19:00:00        4.739        2.429       12.286       18.356       30.658       13.058      336.947      939.921      170.516        0.081        0.072        5.326       12.073        5.139      337.261        9.116      857.567
11/11/2014  19:01:00      -13.326       17.565       -0.273       27.077       38.479       16.587      733.145     1480.617      275.142        0.149        0.124       22.048       17.415        0.624      337.425        9.391      857.558
11/11/2014  19:02:00      -72.705       42.341       -9.129       28.489       23.415       24.009      811.598      548.256      576.451        0.455        0.097       84.135        9.532        0.013      337.393        9.337      857.551
11/11/2014  19:03:00     -122.563       90.857      -27.640       27.782       27.136       20.435      771.849      736.340      417.596        1.298        0.096      152.567       18.940        0.015      337.273        9.137      857.556
11/11/2014  19:04:00     -112.581       56.921      -15.268       19.195       25.996       20.507      368.447      675.785      420.539        0.881        0.073      126.153       13.758        0.012      337.406        9.359      857.571
11/11/2014  19:05:00     -109.016      -40.973      -12.313       30.747       33.575       18.838      945.390     1127.304      354.865        0.807        0.121      116.462       10.180        0.008      337.380        9.315      857.594
11/11/2014  19:06:00      -42.036       -9.482       -5.812       35.539       44.047       19.435     1263.019     1940.146      377.730        0.274        0.179       43.093       15.519        0.130      337.276        9.141      857.599
11/11/2014  19:07:00      -12.606      -19.667       -3.946       19.402       34.396       13.305      376.439     1183.119      177.018        0.115        0.087       23.361       12.186        0.272      337.190        8.997      857.600
11/11/2014  19:08:00       15.580      -32.855        2.355       16.535       17.646       20.038      273.396      311.375      401.518        0.116        0.049       36.362       14.660        0.163      337.129        8.895      857.581
11/11/2014  19:09:00      -91.596       -6.523        0.325       54.723       34.961       22.573     2994.572     1222.294      509.519        0.658        0.236       91.828       24.809        0.073      337.194        9.003      857.571
11/11/2014  19:10:00     -119.171      -17.800       -5.368       68.783       42.988       31.610     4731.055     1847.988      999.219        1.106        0.379      120.493       26.501        0.048      336.980        8.644      857.586
11/11/2014  19:11:00     -165.620      -30.576      -18.724       37.394       32.184       21.639     1398.288     1035.821      468.243        1.581        0.145      168.419       20.266        0.014      336.790        8.328      857.624
11/11/2014  19:12:00     -152.719       36.014      -16.408       41.543       36.915       23.516     1725.823     1362.739      552.993        1.426        0.182      156.908       18.037        0.013      336.996        8.673      857.633
11/11/2014  19:13:00      -63.911       56.862      -14.333       46.798       41.118       20.734     2190.095     1690.726      429.907        0.592        0.216       85.545       18.160        0.045      337.013        8.700      857.633
11/11/2014  19:14:00      -71.485       50.214      -15.414       28.571       21.731       13.972      816.286      472.238      195.217        0.468        0.074       87.359       12.043        0.019      337.163        8.953      857.629
11/11/2014  19:15:00      -76.593       57.694      -14.884       23.015       23.018       19.361      529.706      529.836      374.861        0.543        0.072       95.891       12.889        0.018      337.346        9.258      857.618
11/11/2014  19:16:00      -55.491       13.909        0.846       20.156       28.931       14.771      406.268      837.005      218.196        0.237        0.073       57.208       11.498        0.040      337.460        9.449      857.613
11/11/2014  19:17:00      -70.890      -27.854       -5.497       14.328       17.231       13.346      205.280      296.893      178.124        0.326        0.034       76.166        8.840        0.013      336.981        8.646      857.615
11/11/2014  19:18:00      -87.264      -19.260      -14.249       26.010       26.392       16.486      676.523      696.526      271.778        0.492        0.082       89.364       14.053        0.025      336.783        8.317      857.616
11/11/2014  19:19:00      -67.314      -29.232        1.763       37.745       46.397       20.910     1424.679     2152.722      437.248        0.470        0.201       73.387       19.384        0.070      336.813        8.368      857.612
11/11/2014  19:20:00      -43.362       -5.708        1.429       53.622       31.271       25.113     2875.362      977.885      630.661        0.320        0.224       43.736       28.541        0.426      336.758        8.275      857.625
11/11/2014  19:21:00      -52.947        3.896       -4.487       31.465       45.561       16.069      990.028     2075.794      258.210        0.308        0.166       53.090       16.535        0.097      336.823        8.383      857.648
11/11/2014  19:22:00      -31.631       -3.287        6.163       26.512       28.555       13.554      702.907      815.379      183.705        0.138        0.085       31.801        9.658        0.092      336.849        8.427      857.652
11/11/2014  19:23:00      -39.884        8.908      -13.790       16.816       23.062       14.881      282.788      531.846      221.433        0.145        0.052       40.867       11.697        0.082      336.936        8.571      857.659
11/11/2014  19:24:00      -38.121       33.209       -6.192       22.184       19.517       17.258      492.144      380.897      297.833        0.188        0.059       50.557       13.182        0.068      337.212        9.033      857.663
11/11/2014  19:25:00      -21.147       23.906        8.197       22.554       26.841       16.940      508.672      720.430      286.973        0.130        0.076       31.917       11.643        0.133      336.879        8.476      857.660
11/11/2014  19:26:00      -41.355       -1.534      -10.666       52.411       26.008       12.952     2746.937      676.415      167.754        0.271        0.180       41.383        8.343        0.041      336.683        8.150      857.672
11/11/2014  19:27:00     -141.516      -53.595       -7.892       23.937       33.557       21.909      573.002     1126.057      479.996        1.257        0.109      151.325       14.682        0.009      336.501        7.846      857.693
11/11/2014  19:28:00     -179.640       -9.214      -11.759       79.861       48.458       35.668     6377.825     2348.153     1272.223        2.124        0.500      179.876       41.344        0.053      336.495        7.833      857.710
11/11/2014  19:29:00      -94.142       33.555      -12.026       60.212       47.013       30.731     3625.476     2210.239      944.382        0.846        0.339       99.943       32.534        0.106      336.727        8.223      857.702
11/11/2014  19:30:00      -47.933       43.928      -16.646       36.224       33.984       22.167     1312.174     1154.940      491.386        0.373        0.148       65.017        6.974        0.012      336.755        8.270      857.668
11/11/2014  19:31:00      -70.064       46.352      -16.964       14.774       16.007       12.576      218.272      256.208      158.159        0.399        0.032       84.009        7.993        0.009      337.276        9.141      857.647
11/11/2014  19:32:00      -63.669        3.629        0.765       32.348       28.090       18.073     1046.367      789.055      326.634        0.311        0.108       63.773       16.974        0.071      337.102        8.850      857.642
11/11/2014  19:33:00     -152.249      -29.740      -10.795       59.096       41.397       26.722     3492.387     1713.673      714.044        1.505        0.296      155.127       30.766        0.039      336.534        7.900      857.656
11/11/2014  19:34:00     -180.821       -8.847      -15.751       73.939       44.119       38.250     5466.934     1946.518     1463.071        2.095        0.444      181.037       42.463        0.055      336.446        7.749      857.697
11/11/2014  19:35:00     -106.229        9.385       -0.351       44.430       36.740       25.047     1973.999     1349.798      627.337        0.766        0.198      106.643       21.652        0.041      336.626        8.055      857.713
11/11/2014  19:36:00      -62.224       -4.317      -10.739       48.229       28.652       21.800     2326.000      820.923      475.239        0.381        0.181       62.374       19.054        0.093      336.477        7.805      857.706
11/11/2014  19:37:00      -12.871       -2.069        8.838       35.458       40.885       25.151     1257.284     1671.623      632.595        0.190        0.178       13.037       20.460        2.463      336.450        7.759      857.695
11/11/2014  19:38:00     -161.212       23.344      -16.720       99.585       43.910       30.805     9917.214     1928.053      948.942        1.980        0.640      162.894       38.913        0.057      336.594        7.998      857.712
11/11/2014  19:39:00     -167.775        1.452      -19.941       44.296       43.877       28.597     1962.146     1925.153      817.778        1.663        0.235      167.782       20.227        0.015      336.505        7.852      857.697
11/11/2014  19:40:00     -102.638       25.185       -5.575       45.235       33.637       27.253     2046.174     1131.454      742.743        0.756        0.196      105.683       29.042        0.076      336.502        7.848      857.679
11/11/2014  19:41:00      -31.347       10.208       -4.695       33.242       20.355        9.630     1105.061      414.319       92.734        0.136        0.081       32.967       11.240        0.116      336.713        8.200      857.670
11/11/2014  19:42:00      -44.389      -21.844       -9.022       24.970       27.040       11.868      623.495      731.138      140.858        0.201        0.075       49.473        5.557        0.013      336.614        8.035      857.655
11/11/2014  19:43:00      -80.548      -21.127       -9.212       35.566       22.321       23.144     1264.972      498.239      535.664        0.466        0.115       83.272       21.371        0.066      336.305        7.517      857.657
11/11/2014  19:44:00      -91.973        2.990       -5.985       42.617       30.451       20.802     1816.190      927.242      432.732        0.584        0.159       92.022       18.450        0.040      336.323        7.548      857.654
11/11/2014  19:45:00       13.341       21.676       -6.658       36.120       15.176       16.283     1304.645      230.311      265.133        0.125        0.090       25.453       20.830        0.670      336.659        8.110      857.628
11/11/2014  19:46:00       37.493       17.516       -3.703       22.956       24.114       18.425      526.971      581.469      339.483        0.159        0.072       41.383       16.904        0.167      336.686        8.156      857.625
11/11/2014  19:47:00       12.840       36.180       -7.697       19.532       16.439        9.386      381.488      270.234       88.098        0.114        0.037       38.391        6.562        0.029      336.750        8.262      857.626
11/11/2014  19:48:00      -36.664       28.038       -7.803       27.516       27.261       11.353      757.157      743.189      128.880        0.191        0.081       46.156       10.401        0.051      336.731        8.230      857.667
11/11/2014  19:49:00      -74.425      -10.681      -10.603       39.131       28.687       19.666     1531.271      822.964      386.762        0.425        0.137       75.188       14.369        0.037      336.730        8.228      857.694
11/11/2014  19:50:00     -172.280       10.261      -23.474       68.669       36.388       30.931     4715.423     1324.081      956.721        1.867        0.350      172.585       34.552        0.040      336.414        7.697      857.700
11/11/2014  19:51:00     -132.659       11.196      -22.584       53.356       30.271       21.731     2846.841      916.322      472.254        1.123        0.212      133.130       16.912        0.016      336.563        7.949      857.712
11/11/2014  19:52:00      -63.112       62.101      -20.852       39.607       46.309       24.085     1568.717     2144.491      580.071        0.628        0.215       88.542       26.837        0.092      336.896        8.507      857.687
11/11/2014  19:53:00       -7.272       97.293       -0.891       33.211       49.083       24.972     1102.945     2409.170      623.576        0.683        0.207       97.564       26.320        0.073      336.967        8.624      857.681
11/11/2014  19:54:00      -14.375      130.952      -18.242       29.359       35.513       15.128      861.937     1261.149      228.863        1.002        0.118      131.738       15.050        0.013      337.058        8.776      857.681
11/11/2014  19:55:00        0.125       71.846      -13.663       21.302       27.312       12.368      453.794      745.973      152.977        0.335        0.068       71.846        8.641        0.014      336.965        8.619      857.673
11/11/2014  19:56:00      -23.096       37.723       -9.313       17.531       17.174       11.976      307.340      294.950      143.418        0.139        0.037       44.232        3.729        0.007      337.078        8.809      857.683
11/11/2014  19:57:00       -5.034       41.318       -3.065       30.148       28.002       17.279      908.878      784.093      298.562        0.187        0.100       41.623        7.279        0.031      336.869        8.461      857.698
11/11/2014  19:58:00      -32.615        6.453       -7.249       30.961       31.775       13.753      958.599     1009.669      189.159        0.166        0.108       33.247       14.850        0.199      336.474        7.799      857.689
11/11/2014  19:59:00       37.101       46.074       14.076       23.154       18.956       13.687      536.090      359.313      187.346        0.239        0.054       59.155       11.749        0.039      336.824        8.387      857.666
11/11/2014  20:00:00       53.527       63.324       -0.654       26.126       31.643       22.571      682.569     1001.281      509.432        0.453        0.110       82.916       19.937        0.058      336.731        8.229      857.642
11/11/2014  20:01:00       34.230       42.097       -4.505       30.387       27.062       14.875      923.352      732.326      221.263        0.242        0.094       54.258       10.184        0.035      336.682        8.151      857.641
11/11/2014  20:02:00       11.523       86.420      -16.098       18.712       19.630       10.811      350.137      385.342      116.876        0.436        0.043       87.185        6.330        0.005      336.829        8.395      857.679
11/11/2014  20:03:00      -25.626       48.449      -11.039       26.731       41.845       13.994      714.572     1750.985      195.822        0.289        0.133       54.808       17.502        0.102      336.856        8.439      857.715
11/11/2014  20:04:00      -40.339        2.594      -10.509       20.351       23.432       10.703      414.178      549.060      114.563        0.141        0.054       40.422        9.591        0.056      336.597        8.005      857.731
11/11/2014  20:05:00      -59.241      -23.441      -15.088       23.472       17.020       10.234      550.945      289.667      104.744        0.262        0.047       63.710        7.036        0.012      336.292        7.497      857.745
11/11/2014  20:06:00      -72.400       -7.713      -15.589       35.029       17.447       13.128     1227.052      304.392      172.351        0.362        0.085       72.810        8.136        0.012      336.278        7.473      857.747
11/11/2014  20:07:00        3.541       25.143       -3.135       21.719       22.544       13.498      471.695      508.225      182.206        0.091        0.058       25.391       10.909        0.185      336.589        7.993      857.737
11/11/2014  20:08:00       -2.399       28.493        9.521       30.953       26.711       14.453      958.107      713.491      208.903        0.139        0.094       28.593       14.008        0.240      336.664        8.117      857.738
11/11/2014  20:09:00      -78.976      -15.343      -15.385       22.339       14.386        9.779      499.025      206.961       95.637        0.376        0.040       80.452        8.684        0.012      336.107        7.186      857.745
11/11/2014  20:10:00     -105.055      -35.084      -13.338       15.720       21.929       12.844      247.133      480.870      164.970        0.667        0.045      110.759        5.330        0.002      335.982        6.978      857.749
11/11/2014  20:11:00      -95.898      -58.413      -13.378       27.665       24.926       17.986      765.330      621.294      323.495        0.725        0.086      112.288        5.884        0.003      336.017        7.036      857.758
11/11/2014  20:12:00      -65.992      -24.143       -1.866       26.793       21.274       15.883      717.891      452.591      252.264        0.318        0.071       70.270       11.239        0.026      336.181        7.310      857.763
11/11/2014  20:13:00      -24.922       -7.488       -2.714       18.144       20.667       14.971      329.222      427.131      224.144        0.083        0.049       26.023       12.482        0.230      336.242        7.411      857.768
11/11/2014  20:14:00      -16.589       46.282       -6.157       26.418       32.583       17.064      697.908     1061.627      291.185        0.225        0.103       49.165       16.822        0.117      336.566        7.955      857.772
11/11/2014  20:15:00        4.929       46.644       -1.136       28.380       20.115       17.347      805.418      404.617      300.925        0.186        0.076       46.904       16.414        0.122      336.711        8.197      857.783
11/11/2014  20:16:00      -44.089        3.659       -7.582       18.285       34.526       13.487      334.344     1192.033      181.902        0.186        0.085       44.241       12.869        0.085      336.451        7.762      857.809
11/11/2014  20:17:00      -70.667      -29.293       -9.962       18.240       17.304       11.930      332.684      299.435      142.335        0.336        0.039       76.497        7.094        0.009      336.154        7.265      857.835
11/11/2014  20:18:00      -57.325      -30.191       -7.112       19.510       19.435       14.233      380.635      377.701      202.591        0.260        0.048       64.790       11.874        0.034      336.096        7.168      857.856
11/11/2014  20:19:00      -55.140       62.860      -10.871       29.063       65.238       18.937      844.638     4255.934      358.626        0.628        0.273       83.617       24.639        0.087      336.738        8.241      857.860
11/11/2014  20:20:00       23.554       80.346       -1.518       32.604       24.873       16.120     1063.048      618.649      259.851        0.448        0.097       83.728       11.458        0.019      336.914        8.535      857.845
11/11/2014  20:21:00       28.753       69.931       -1.015       20.793       26.711       17.523      432.332      713.483      307.066        0.359        0.073       75.611       16.320        0.047      336.789        8.327      857.827
11/11/2014  20:22:00       40.642       39.037       -2.252       17.920       20.372       16.630      321.140      415.014      276.562        0.210        0.051       56.353       15.199        0.073      336.599        8.010      857.813
11/11/2014  20:23:00       33.059       19.602        0.319       22.250       14.388       12.764      495.064      207.004      162.929        0.117        0.043       38.434        7.802        0.041      336.561        7.946      857.821
11/11/2014  20:24:00       -0.691        4.106       -2.923       14.998       16.272       10.929      224.942      264.770      119.441        0.032        0.030        4.164       10.084        5.865      336.531        7.897      857.842
11/11/2014  20:25:00      -48.100       -2.007      -10.552       31.009       14.860        9.856      961.536      220.823       97.131        0.185        0.064       48.142        6.435        0.018      336.296        7.503      857.870
11/11/2014  20:26:00      -96.371      -27.591      -14.967        8.676       13.165        8.867       75.276      173.326       78.617        0.530        0.016      100.242        5.934        0.004      336.168        7.288      857.894
11/11/2014  20:27:00      -82.849      -24.024      -16.116       16.764       16.188       12.810      281.020      262.041      164.104        0.420        0.035       86.262       10.038        0.014      336.090        7.158      857.912
11/11/2014  20:28:00      -63.688      -12.653       -7.480       28.014       13.385        9.844      784.793      179.154       96.914        0.267        0.053       64.933        9.650        0.022      336.115        7.200      857.915
11/11/2014  20:29:00      -25.037        5.439       -7.359       26.093       22.814       11.062      680.828      520.472      122.366        0.102        0.066       25.621       12.792        0.249      336.359        7.607      857.915
11/11/2014  20:30:00      -27.274       18.372       -4.482       18.794       18.769       18.123      353.213      352.289      328.448        0.107        0.052       32.884       15.630        0.226      336.704        8.186      857.913
11/11/2014  20:31:00       -2.703       24.786        0.708       17.938       21.916       12.757      321.774      480.331      162.729        0.079        0.048       24.933        9.137        0.134      336.644        8.086      857.911
11/11/2014  20:32:00       12.775       32.643        7.269       18.051       18.103       14.085      325.839      327.722      198.385        0.107        0.043       35.053       14.571        0.173      336.687        8.157      857.896
11/11/2014  20:33:00       39.520       40.575        6.848       12.868        9.432       14.464      165.573       88.968      209.208        0.186        0.023       56.641        6.841        0.015      336.740        8.246      857.880
11/11/2014  20:34:00       -9.026       20.420        3.441       19.589       21.539       14.959      383.743      463.911      223.775        0.079        0.054       22.326       14.417        0.417      336.540        7.912      857.876
11/11/2014  20:35:00      -55.213      -40.877       -3.045       20.241       13.847        8.954      409.708      191.731       80.171        0.270        0.034       68.698        5.133        0.006      336.254        7.433      857.891
11/11/2014  20:36:00     -129.253      -31.639      -18.525       14.526        9.889       10.253      210.991       97.802      105.116        0.923        0.021      133.069        9.260        0.005      335.974        6.963      857.901
11/11/2014  20:37:00     -132.787      -39.801      -19.797       18.826       17.806       13.945      354.420      317.046      194.458        1.024        0.043      138.624        9.225        0.004      335.892        6.828      857.916
11/11/2014  20:38:00     -140.036      -37.679       -9.406       16.752       13.144       10.884      280.617      172.774      118.456        1.084        0.029      145.016       10.455        0.005      335.930        6.892      857.909
11/11/2014  20:39:00      -83.004      -39.862       -4.639       23.100       18.131       13.957      533.606      328.725      194.807        0.478        0.053       92.079        8.144        0.008      335.888        6.822      857.909
11/11/2014  20:40:00      -85.499      -22.746       -7.586       19.263       14.279       12.979      371.064      203.878      168.454        0.431        0.037       88.473       11.952        0.018      335.922        6.877      857.907
11/11/2014  20:41:00      -97.979      -17.456       -9.598       17.299       14.100       11.579      299.238      198.804      134.065        0.531        0.032       99.522        7.120        0.005      335.951        6.925      857.916
11/11/2014  20:42:00      -50.473      -21.527       -0.888       11.347       11.673        5.942      128.764      136.257       35.311        0.166        0.015       54.872        4.374        0.006      336.043        7.079      857.907
11/11/2014  20:43:00      -56.257      -37.508       -6.500       12.861        8.446        7.893      165.417       71.332       62.306        0.246        0.015       67.614        6.535        0.009      336.026        7.050      857.900
11/11/2014  20:44:00     -109.659      -13.988      -15.442       18.319       10.949       10.378      335.569      119.889      107.697        0.651        0.028      110.547        7.614        0.005      336.044        7.081      857.900
11/11/2014  20:45:00     -113.705      -29.306      -21.003       12.170       10.828       11.423      148.098      117.256      130.483        0.731        0.020      117.421        7.752        0.004      336.005        7.015      857.914
11/11/2014  20:46:00     -125.577      -21.922      -18.354       15.325       15.377       13.121      234.864      236.462      172.159        0.862        0.032      127.476        8.963        0.005      335.977        6.968      857.925
11/11/2014  20:47:00     -111.293       -9.274       -9.737       32.158       25.566       18.756     1034.118      653.645      351.803        0.730        0.102      111.678       13.298        0.014      335.965        6.948      857.913
11/11/2014  20:48:00      -68.693      -14.032       -1.585       35.630       19.676       13.664     1269.498      387.135      186.706        0.338        0.092       70.111       16.500        0.055      335.937        6.903      857.891
11/11/2014  20:49:00      -19.050       -2.533       -0.154       17.806       20.886       19.793      317.060      436.205      391.750        0.076        0.057       19.217       18.946        0.972      336.050        7.090      857.872
11/11/2014  20:50:00      -24.318       -1.468       -9.780       20.547       17.255        7.689      422.166      297.724       59.116        0.073        0.039       24.363        5.670        0.054      336.179        7.306      857.871
11/11/2014  20:51:00      -16.332       -5.471       -1.351       19.785       18.069       10.815      391.458      326.474      116.954        0.057        0.042       17.224        8.957        0.270      336.132        7.228      857.860
11/11/2014  20:52:00      -77.023      -20.352       -7.387       26.281       17.370       12.640      690.696      301.709      159.769        0.378        0.058       79.667        9.820        0.015      336.034        7.065      857.862
11/11/2014  20:53:00     -115.342      -32.266      -10.922       19.415       23.941       12.954      376.952      573.170      167.795        0.779        0.056      119.770        8.248        0.005      335.976        6.967      857.881
11/11/2014  20:54:00     -136.198      -46.163      -10.788       25.570       19.797       14.093      653.824      391.908      198.600        1.102        0.062      143.809       12.502        0.008      335.795        6.666      857.908
11/11/2014  20:55:00     -126.184      -39.285       -9.025       24.568       22.069       14.421      603.607      487.037      207.960        0.942        0.065      132.158       11.916        0.008      335.787        6.653      857.918
11/11/2014  20:56:00     -112.166      -56.429      -14.130       28.683       18.440       16.809      822.740      340.025      282.542        0.870        0.072      125.561       15.889        0.016      335.797        6.670      857.936
11/11/2014  20:57:00      -72.003       -0.898       -6.815       40.155       38.924       17.228     1612.386     1515.095      296.804        0.433        0.171       72.009       20.223        0.079      335.873        6.796      857.958
11/11/2014  20:58:00      -62.192       36.476       -6.819       27.706       27.979       19.816      767.641      782.827      392.674        0.359        0.097       72.099       16.047        0.050      336.087        7.153      857.961
11/11/2014  20:59:00      -74.139       62.703      -18.929       31.810       37.961       26.677     1011.861     1441.031      711.636        0.647        0.158       97.100       16.191        0.028      336.348        7.590      857.956
11/11/2014  21:00:00      -70.557       58.307      -12.145       37.323       35.649       19.283     1392.989     1270.825      371.832        0.578        0.152       91.532       17.098        0.035      336.580        7.978      857.957
11/11/2014  21:01:00      -39.599        7.685        2.256       26.090       19.982       14.135      680.713      399.272      199.786        0.146        0.064       40.338       13.499        0.112      336.298        7.504      857.971
11/11/2014  21:02:00      -88.311      -29.409       -9.653       31.882       22.435       11.295     1016.477      503.348      127.566        0.520        0.082       93.079       12.241        0.017      335.919        6.873      857.998
11/11/2014  21:03:00     -105.833      -37.592       -9.540       17.152       16.071       12.765      294.181      258.291      162.941        0.671        0.036      112.311        7.141        0.004      335.878        6.804      858.023
11/11/2014  21:04:00      -74.625      -33.923       -0.778       33.448       23.626       15.247     1118.764      558.175      232.467        0.431        0.095       81.973       15.974        0.038      335.917        6.869      858.038
11/11/2014  21:05:00      -41.684      -14.040       -3.653       20.799       10.378        8.208      432.600      107.696       67.367        0.128        0.030       43.985       11.215        0.065      335.976        6.967      858.046
11/11/2014  21:06:00      -29.515       -6.150       -2.308       10.173       12.437        8.092      103.485      154.679       65.484        0.062        0.016       30.149        4.700        0.024      336.019        7.038      858.048
11/11/2014  21:07:00      -45.933        7.303       -3.545       19.967       18.348       12.127      398.668      336.659      147.073        0.153        0.044       46.510       11.325        0.059      336.135        7.232      858.052
11/11/2014  21:08:00      -22.705       -6.446       -1.246       15.952       15.935        7.355      254.451      253.935       54.096        0.056        0.028       23.603        5.595        0.056      336.167        7.286      858.066
11/11/2014  21:09:00      -27.545       27.541       -0.220       35.912       17.711       18.693     1289.704      313.688      349.416        0.173        0.098       38.952       11.097        0.081      336.312        7.529      858.066
11/11/2014  21:10:00       -1.805       28.929        2.944       19.470       13.829       14.622      379.082      191.238      213.794        0.082        0.039       28.985        6.909        0.057      336.286        7.485      858.072
11/11/2014  21:11:00       -0.589       12.349       -3.149       18.758       14.772        9.837      351.869      218.210       96.760        0.041        0.033       12.363        7.908        0.409      336.330        7.559      858.081
11/11/2014  21:12:00       34.323       28.981        7.387       14.290       14.099       13.705      204.213      198.791      187.840        0.133        0.030       44.922        6.706        0.022      336.287        7.487      858.080
11/11/2014  21:13:00       42.528       34.994       -5.658       17.210       13.049       15.500      296.196      170.288      240.258        0.189        0.035       55.074       10.035        0.033      336.390        7.660      858.088
11/11/2014  21:14:00      -44.119      -18.906       -0.719       25.416       25.477       13.038      645.964      649.063      169.998        0.188        0.073       47.999       13.566        0.080      336.097        7.169      858.115
11/11/2014  21:15:00      -32.862      -28.427        1.958       25.252       14.148       16.308      637.641      200.174      265.944        0.150        0.055       43.451       13.778        0.101      336.034        7.064      858.148
11/11/2014  21:16:00       -0.929      -23.522        9.764       27.252       21.583       16.821      742.676      465.840      282.936        0.107        0.075       23.541       14.596        0.384      335.914        6.865      858.175
11/11/2014  21:17:00        5.968      -40.199      -10.846       14.815       15.825       10.164      219.470      250.426      103.303        0.117        0.029       40.640        9.717        0.057      336.171        7.293      858.187
11/11/2014  21:18:00       16.312      -10.286        6.715       18.852       24.046       20.219      355.389      578.204      408.795        0.088        0.067       19.284       18.635        0.934      336.110        7.192      858.204
11/11/2014  21:19:00        3.197       12.328       18.818       11.058       21.336       15.832      122.270      455.234      250.665        0.067        0.041       12.735       11.855        0.867      336.036        7.067      858.216
11/11/2014  21:20:00        2.257       -1.297        9.810       10.535       15.690        9.121      110.991      246.173       83.192        0.027        0.022        2.603        6.927        7.081      336.048        7.089      858.224
11/11/2014  21:21:00       -4.549      -15.293        3.892       11.820       12.616        9.801      139.722      159.167       96.069        0.033        0.020       15.955        7.879        0.244      336.274        7.465      858.240
11/11/2014  21:22:00      -52.465      -21.203       -6.063       18.370       12.102        6.409      337.473      146.457       41.080        0.188        0.026       56.587        3.003        0.003      336.077        7.137      858.278
11/11/2014  21:23:00      -94.615      -29.559      -10.402       18.716       13.606        9.306      350.275      185.125       86.605        0.528        0.031       99.125        4.871        0.002      335.954        6.931      858.306
11/11/2014  21:24:00      -51.549      -32.099       -4.941       51.389       19.963       13.895     2640.862      398.515      193.075        0.347        0.162       60.727       22.173        0.133      335.876        6.802      858.310
11/11/2014  21:25:00      -26.000      -29.978       -0.844       23.829       11.246       11.933      567.808      126.472      142.394        0.121        0.042       39.682       10.521        0.070      336.021        7.043      858.302
11/11/2014  21:26:00      -42.647      -19.979       -8.062       12.664       12.432        9.501      160.375      154.551       90.275        0.134        0.020       47.095        5.857        0.015      336.144        7.248      858.300
11/11/2014  21:27:00      -49.283      -15.488      -12.748       12.235        7.603        9.213      149.694       57.801       84.872        0.156        0.015       51.660        5.304        0.011      336.229        7.391      858.308
11/11/2014  21:28:00      -15.164       -0.002       -6.604       12.761       13.902        8.073      162.851      193.272       65.180        0.035        0.021       15.164        9.153        0.364      336.319        7.540      858.326
11/11/2014  21:29:00       -1.667       10.402       -1.395       15.326        9.773        7.110      234.889       95.518       50.558        0.025        0.019       10.534        6.463        0.376      336.391        7.662      858.334
11/11/2014  21:30:00       13.294       20.936        4.534       10.510        7.488        4.928      110.451       56.069       24.289        0.041        0.010       24.800        5.422        0.048      336.500        7.845      858.342
11/11/2014  21:31:00       18.932        3.086        1.931        5.151        4.442        6.626       26.529       19.727       43.910        0.023        0.005       19.182        5.114        0.071      336.543        7.916      858.352
11/11/2014  21:32:00        3.796        7.008        1.115        6.657        4.617        3.139       44.322       21.315        9.853        0.007        0.004        7.970        1.245        0.024      336.512        7.863      858.356
11/11/2014  21:33:00       19.332        8.053        3.667        9.637        7.836        6.847       92.867       61.402       46.879        0.033        0.010       20.942        4.702        0.050      336.483        7.816      858.357
11/11/2014  21:34:00       14.926       11.437        6.378        6.313        5.827        5.563       39.852       33.956       30.952        0.025        0.005       18.804        2.636        0.020      336.383        7.648      858.356
11/11/2014  21:35:00        7.579       38.457       -3.542        9.813       11.807        5.643       96.299      139.410       31.846        0.091        0.013       39.197        5.995        0.023      336.522        7.881      858.351
11/11/2014  21:36:00       25.569       34.672       -3.753       14.107       15.916       10.306      198.994      253.312      106.205        0.121        0.028       43.081        5.643        0.017      336.464        7.784      858.346
11/11/2014  21:37:00       46.251       25.430       -8.533       17.580       16.296       16.984      309.060      265.555      288.445        0.186        0.043       52.781        9.937        0.035      335.895        6.832      858.339
11/11/2014  21:38:00       43.030       16.203       -2.060        7.617        7.005        9.249       58.016       49.068       85.541        0.116        0.010       45.980        6.088        0.018      335.914        6.865      858.345
11/11/2014  21:39:00       48.191       27.993       -3.580        9.007        8.627        7.670       81.124       74.427       58.827        0.167        0.011       55.731        4.515        0.007      335.980        6.974      858.349
11/11/2014  21:40:00       30.554       32.630       -2.773        8.390        9.555        6.945       70.400       91.291       48.234        0.111        0.010       44.702        5.009        0.013      336.016        7.036      858.355
11/11/2014  21:41:00       10.365       57.995       -7.887        5.733        8.746        4.132       32.870       76.490       17.074        0.183        0.006       58.914        1.214        0.000      336.298        7.506      858.363
11/11/2014  21:42:00       14.483       45.559       -5.491        7.109       18.814        9.119       50.539      353.972       83.153        0.140        0.024       47.805       11.110        0.054      336.267        7.454      858.369
11/11/2014  21:43:00       14.573       33.943       -6.195        8.601       12.966        7.743       73.973      168.126       59.947        0.085        0.015       36.939        6.977        0.036      336.255        7.433      858.379
11/11/2014  21:44:00        8.515       15.690       -2.445        9.136       19.319        7.791       83.467      373.229       60.694        0.042        0.026       17.852        6.853        0.147      336.245        7.417      858.386
11/11/2014  21:45:00       10.704       12.649       -0.778       13.538       14.943       11.005      183.285      223.294      121.106        0.040        0.026       16.570       10.330        0.389      336.303        7.514      858.388
11/11/2014  21:46:00       17.615       39.715       -5.686        8.745        9.495        6.885       76.469       90.154       47.407        0.107        0.011       43.446        5.614        0.017      336.393        7.664      858.383
11/11/2014  21:47:00        1.809       38.355       -6.875        4.982        9.181        3.769       24.824       84.282       14.207        0.082        0.006       38.398        3.052        0.006      336.395        7.669      858.387
11/11/2014  21:48:00      -24.367       28.692       -5.614       20.262       10.824        9.150      410.568      117.149       83.729        0.103        0.031       37.643        2.869        0.006      336.334        7.564      858.400
11/11/2014  21:49:00      -39.129       33.883       -5.842       15.527       17.989        9.256      241.079      323.603       85.678        0.168        0.033       51.760        9.100        0.031      336.148        7.254      858.396
11/11/2014  21:50:00       17.938       43.006        2.001       20.103       16.050       11.248      404.135      257.604      126.520        0.148        0.039       46.597        9.371        0.040      336.442        7.747      858.377
11/11/2014  21:51:00       44.522       36.909        1.819       15.580       14.309       13.319      242.750      204.754      177.396        0.199        0.031       57.832        8.776        0.023      336.313        7.532      858.352
11/11/2014  21:52:00       53.991       34.999        3.091       15.727       12.382       10.226      247.327      153.316      104.564        0.233        0.025       64.342        5.722        0.008      336.275        7.467      858.340
11/11/2014  21:53:00       42.795       18.597       -6.274       26.204       12.469       11.897      686.635      155.467      141.543        0.160        0.049       46.661       12.294        0.069      336.172        7.293      858.347
11/11/2014  21:54:00       23.908        2.960       -3.798       14.928        7.342        4.492      222.841       53.902       20.177        0.045        0.015       24.090        3.062        0.016      336.184        7.316      858.357
11/11/2014  21:55:00       -0.740       18.711       -2.543        7.849        8.664        4.003       61.599       75.072       16.020        0.025        0.008       18.725        3.727        0.040      336.376        7.633      858.378
11/11/2014  21:56:00        1.607       26.602       -3.660       15.860       15.847        7.506      251.550      251.112       56.340        0.064        0.028       26.651        5.588        0.044      336.339        7.575      858.398
11/11/2014  21:57:00       10.196       43.078       -5.829       11.332        8.633        5.455      128.404       74.523       29.756        0.111        0.012       44.268        4.774        0.012      336.478        7.806      858.406
11/11/2014  21:58:00       20.200       36.139       -6.784        9.405       11.815        6.504       88.450      139.605       42.307        0.102        0.014       41.402        4.680        0.013      336.486        7.818      858.414
11/11/2014  21:59:00       21.676       20.323       -1.839       11.701       10.711        7.590      136.903      114.734       57.610        0.060        0.015       29.713        7.080        0.057      336.437        7.737      858.427
11/11/2014  22:00:00       30.037       17.591        0.592        8.956        9.211        5.991       80.207       84.846       35.890        0.071        0.010       34.809        6.105        0.031      336.415        7.702      858.443
11/11/2014  22:01:00       20.996        1.685        7.182        8.426        8.373        8.380       71.003       70.099       70.231        0.035        0.011       21.063        7.126        0.114      336.290        7.493      858.450
11/11/2014  22:02:00       11.526        3.652       -7.123        9.014        8.412        9.010       81.261       70.769       81.175        0.022        0.012       12.091        1.946        0.026      336.262        7.446      858.457
11/11/2014  22:03:00       11.399       -2.432       -9.251       15.992       20.160        8.746      255.753      406.414       76.495        0.048        0.037       11.655        9.540        0.670      336.276        7.469      858.464
11/11/2014  22:04:00       26.640        2.700       13.095       13.501        9.074       10.286      182.266       82.338      105.797        0.063        0.019       26.777        6.518        0.059      336.292        7.495      858.476
11/11/2014  22:05:00       12.159       22.683       -2.418       12.366       16.003        8.152      152.919      256.096       66.458        0.057        0.024       25.736        7.469        0.084      336.378        7.640      858.475
11/11/2014  22:06:00        0.583       59.944      -12.926       15.446       12.311        9.245      238.583      151.569       85.469        0.212        0.024       59.947        6.410        0.011      336.417        7.706      858.480
11/11/2014  22:07:00      -12.442       89.160      -13.170       15.297       17.843        8.015      234.005      318.362       64.234        0.445        0.031       90.024        7.938        0.008      336.506        7.855      858.474
11/11/2014  22:08:00      -21.596       87.144      -13.238       13.833       11.845        7.524      191.357      140.308       56.604        0.431        0.019       89.780        5.113        0.003      336.549        7.926      858.468
11/11/2014  22:09:00      -10.828       93.921      -10.239       18.276       21.464       11.466      333.999      460.708      131.468        0.498        0.046       94.543        8.837        0.009      336.520        7.879      858.461
11/11/2014  22:10:00       -8.750      116.169      -14.351       11.366       16.202        8.325      129.183      262.515       69.310        0.712        0.023      116.498        6.582        0.003      336.586        7.986      858.458
11/11/2014  22:11:00      -20.861       99.371       -5.496       20.122       19.918       12.892      404.890      396.721      166.202        0.565        0.048      101.537        4.540        0.002      336.599        8.010      858.459
11/11/2014  22:12:00      -36.456      106.638      -11.147       28.879       24.091       15.043      833.984      580.371      226.293        0.723        0.082      112.697        7.171        0.004      336.649        8.094      858.456
11/11/2014  22:13:00      -24.089      116.727      -13.885       30.787       42.556       21.616      947.858     1811.015      467.268        0.881        0.161      119.187       20.282        0.029      336.570        7.961      858.467
11/11/2014  22:14:00       -3.491      124.143      -20.161       39.482       42.591       16.080     1558.864     1814.027      258.582        0.973        0.182      124.192       19.152        0.024      336.417        7.704      858.470
11/11/2014  22:15:00       24.958       93.727      -18.016       19.381       24.292       14.908      375.609      590.112      222.261        0.546        0.059       96.994       11.633        0.014      336.258        7.438      858.482
11/11/2014  22:16:00        1.483      128.143      -22.065       23.555       19.099       11.766      554.832      364.766      138.444        0.898        0.053      128.152        9.890        0.006      336.323        7.547      858.494
11/11/2014  22:17:00       -6.325      148.255      -20.400       23.707       47.673       17.749      562.023     2272.755      315.024        1.279        0.157      148.390       16.947        0.013      336.321        7.545      858.506
11/11/2014  22:18:00        1.356      120.703      -15.940       19.091       34.521       19.094      364.484     1191.673      364.562        0.837        0.096      120.710       14.710        0.015      336.256        7.436      858.512
11/11/2014  22:19:00        1.097      121.164      -21.641       23.706       20.586       19.440      561.982      423.785      377.898        0.826        0.068      121.169       13.241        0.012      336.205        7.351      858.506
11/11/2014  22:20:00      -77.733       81.870      -10.023       46.635       51.910       29.738     2174.865     2694.625      884.377        0.930        0.288      112.894       21.966        0.038      336.328        7.557      858.501
11/11/2014  22:21:00       -3.959      103.167      -14.507       38.461       56.169       23.074     1479.242     3154.989      532.421        0.802        0.258      103.243       31.240        0.092      336.228        7.388      858.502
11/11/2014  22:22:00      -19.224      101.858      -11.309       21.676       31.983       25.025      469.866     1022.895      626.230        0.650        0.106      103.656       20.641        0.040      336.311        7.529      858.501
11/11/2014  22:23:00      -16.636      137.810      -13.871       40.123       54.682       24.480     1609.852     2990.165      599.263        1.233        0.260      138.810       20.618        0.022      336.246        7.419      858.499
11/11/2014  22:24:00      -44.339      144.895      -11.915       38.455       93.370       32.621     1478.818     8717.931     1064.130        1.718        0.563      151.527       46.008        0.092      336.229        7.387      858.488
11/11/2014  22:25:00      -66.337      125.065      -12.197       47.090       46.234       31.534     2217.495     2137.595      994.375        1.277        0.267      141.569       28.030        0.039      336.244        7.416      858.492
11/11/2014  22:26:00     -116.918      167.132      -33.587       59.675       55.553       32.213     3561.136     3086.181     1037.667        2.521        0.384      203.967       36.117        0.031      336.255        7.432      858.515
11/11/2014  22:27:00      -91.451      165.003      -23.513       47.407       43.458       38.458     2247.468     1888.640     1479.026        2.088        0.281      188.651       37.605        0.040      336.213        7.363      858.542
11/11/2014  22:28:00      -81.553       71.948      -11.900       56.075       58.393       32.323     3144.445     3409.794     1044.783        0.978        0.380      108.754       36.771        0.114      336.227        7.386      858.563
11/11/2014  22:29:00      -67.350       52.631       -4.775       45.612       38.343       29.102     2080.425     1470.173      846.930        0.586        0.220       85.475       22.326        0.068      336.218        7.373      858.575
11/11/2014  22:30:00      -65.347       54.265       -8.836       55.687       47.353       27.355     3100.995     2242.316      748.285        0.669        0.305       84.941       20.287        0.057      336.224        7.383      858.572
11/11/2014  22:31:00      -60.456      115.064      -15.555       43.817       55.869       30.398     1919.940     3121.325      924.022        1.155        0.298      129.980       30.979        0.057      336.224        7.382      858.563
11/11/2014  22:32:00      -49.323      106.336       -8.316       37.476       38.918       23.875     1404.455     1514.579      570.027        0.865        0.174      117.218       18.622        0.025      336.322        7.546      858.572
11/11/2014  22:33:00      -90.711      208.755      -31.694       54.277       86.011       35.003     2945.971     7397.808     1225.238        3.219        0.578      227.612       33.200        0.021      336.331        7.557      858.561
11/11/2014  22:34:00      -41.025      134.507      -14.944       43.840       55.216       31.097     1921.933     3048.794      967.048        1.297        0.297      140.625       30.352        0.047      336.318        7.539      858.550
11/11/2014  22:35:00        0.031      170.446      -32.841       40.582       36.451       16.630     1646.880     1328.639      276.557        1.669        0.163      170.446       10.096        0.004      336.238        7.406      858.535
11/11/2014  22:36:00      -45.396      148.054      -17.824       60.982       61.092       31.605     3718.790     3732.230      998.873        1.637        0.422      154.857       38.165        0.061      336.292        7.494      858.534
11/11/2014  22:37:00      -53.398      142.997      -17.976       36.802       45.946       24.129     1354.421     2111.076      582.218        1.383        0.202      152.641       22.824        0.022      336.327        7.554      858.541
11/11/2014  22:38:00      -46.091      182.686      -24.809       46.745       60.217       26.989     2185.105     3626.145      728.394        2.133        0.327      188.411       27.963        0.022      336.319        7.539      858.548
11/11/2014  22:39:00     -100.513       96.863      -14.097       54.671       55.348       34.541     2988.920     3063.421     1193.059        1.346        0.362      139.590       31.722        0.052      336.319        7.539      858.564
11/11/2014  22:40:00     -121.582       91.520      -21.428       51.230       59.039       38.962     2624.533     3485.659     1518.061        1.562        0.381      152.178       43.319        0.081      336.260        7.442      858.594
11/11/2014  22:41:00      -72.120       89.437      -25.475       36.318       48.943       22.507     1318.977     2395.401      506.588        0.903        0.211      114.893       21.347        0.035      336.265        7.452      858.605
11/11/2014  22:42:00      -78.507       50.926      -19.536       31.091       41.401       23.516      966.626     1714.039      552.993        0.619        0.162       93.578       18.291        0.038      336.202        7.346      858.610
11/11/2014  22:43:00      -90.389      149.496      -28.004       41.186       43.453       25.635     1696.278     1888.142      657.153        1.777        0.212      174.698       21.969        0.016      336.190        7.322      858.629
11/11/2014  22:44:00      -84.495      120.585      -20.897       37.497       44.659       30.161     1406.045     1994.456      909.679        1.321        0.216      147.242       23.865        0.026      336.146        7.252      858.663
11/11/2014  22:45:00      -62.792      110.735      -18.367       42.532       71.568       29.265     1809.009     5121.959      856.466        1.216        0.389      127.300       34.015        0.071      336.122        7.212      858.677
11/11/2014  22:46:00      -81.682       38.210       -1.998       49.052       37.136       23.425     2406.069     1379.076      548.724        0.623        0.217       90.178       25.709        0.081      336.119        7.207      858.679
11/11/2014  22:47:00      -60.719      147.326      -17.148       40.955       51.047       30.956     1677.313     2605.805      958.288        1.546        0.262      159.348       24.303        0.023      336.061        7.109      858.699
11/11/2014  22:48:00      -75.786       68.487      -11.856       45.964       38.381       28.189     2112.682     1473.114      794.618        0.748        0.219      102.147       22.855        0.050      336.059        7.106      858.704
11/11/2014  22:49:00      -25.054       47.376       -4.049       36.616       33.967       17.091     1340.725     1153.734      292.101        0.284        0.139       53.593        9.449        0.031      336.044        7.083      858.717
11/11/2014  22:50:00        4.716       81.678      -19.385       31.690       33.598       28.086     1004.259     1128.811      788.843        0.500        0.146       81.814       21.028        0.066      336.024        7.048      858.737
11/11/2014  22:51:00        4.750       52.167        0.747       47.482       39.090       28.211     2254.565     1528.056      795.849        0.366        0.229       52.382       26.250        0.251      335.961        6.944      858.767
11/11/2014  22:52:00      -13.933       37.244       -0.463       58.027       27.977       21.906     3367.084      782.719      479.888        0.310        0.231       39.765       22.244        0.313      335.896        6.837      858.780
11/11/2014  22:53:00       -6.053      105.654      -10.006       38.709       53.955       20.335     1498.365     2911.176      413.527        0.806        0.241      105.828       23.274        0.048      335.890        6.826      858.792
11/11/2014  22:54:00        2.236       35.326       10.013       38.782       45.921       27.859     1504.069     2108.743      776.097        0.287        0.219       35.397       27.566        0.606      335.877        6.803      858.806
11/11/2014  22:55:00      -16.933       33.303       -0.832       23.920       27.014       17.924      572.162      729.762      321.283        0.151        0.081       37.360       14.124        0.143      335.894        6.832      858.822
11/11/2014  22:56:00      -40.509       56.921       -0.221       30.894       39.227       22.254      954.464     1538.745      495.234        0.393        0.149       69.864       15.055        0.046      335.993        6.998      858.826
11/11/2014  22:57:00      -56.512       72.606      -19.857       30.357       30.530       20.860      921.531      932.089      435.145        0.557        0.114       92.007       17.494        0.036      335.936        6.901      858.834
11/11/2014  22:58:00      -53.196       22.335       -0.629       46.588       24.142       18.484     2170.444      582.813      341.660        0.321        0.155       57.695       12.992        0.051      335.929        6.890      858.855
11/11/2014  22:59:00      -60.534       26.712       -9.861       33.159       16.554       17.735     1099.542      274.019      314.546        0.308        0.084       66.165       16.603        0.063      335.970        6.959      858.850
11/11/2014  23:00:00      -34.335       24.028      -20.785       18.401       17.285       11.129      338.608      298.779      123.856        0.147        0.038       41.907        5.188        0.015      335.955        6.933      858.837
11/11/2014  23:01:00      -11.812        4.998       -7.391       19.515       13.000       13.516      380.834      168.996      182.679        0.048        0.037       12.825        7.875        0.377      335.902        6.844      858.830
11/11/2014  23:02:00      -24.977      -39.391        5.215       27.192       19.373       23.234      739.391      375.317      539.811        0.193        0.083       46.643       15.326        0.108      335.957        6.936      858.821
11/11/2014  23:03:00       74.062       35.482       18.935       29.212       21.604       21.785      853.339      466.754      474.573        0.445        0.090       82.123       11.139        0.018      335.751        6.592      858.801
11/11/2014  23:04:00       60.181       29.668        2.631       22.569       19.910       20.011      509.340      396.411      400.444        0.291        0.065       67.096        5.918        0.008      335.809        6.691      858.806
11/11/2014  23:05:00       20.699       24.373       25.651       23.538       17.174       17.612      554.046      294.946      310.172        0.142        0.058       31.977       14.892        0.217      335.761        6.610      858.813
11/11/2014  23:06:00        9.792       26.711       -7.100       12.164       14.492       10.275      147.957      210.014      105.583        0.066        0.023       28.449        7.973        0.079      335.688        6.489      858.825
11/11/2014  23:07:00       31.310       21.486       -5.443       11.309       24.390       12.437      127.904      594.878      154.688        0.117        0.044       37.973        4.651        0.015      335.710        6.526      858.829
11/11/2014  23:08:00       10.211       45.962       -2.153       19.225       16.866       12.506      369.608      284.457      156.411        0.152        0.041       47.083       11.225        0.057      335.752        6.596      858.829
11/11/2014  23:09:00       28.139       41.128       -8.951       19.395       25.638       14.939      376.151      657.300      223.174        0.191        0.063       49.833       16.282        0.107      335.726        6.551      858.833
11/11/2014  23:10:00       42.565       36.624        0.965       23.755       19.753       15.105      564.290      390.199      228.176        0.217        0.059       56.153       11.164        0.040      335.684        6.482      858.809
11/11/2014  23:11:00       47.979       23.502       -3.688       18.419       29.669       15.184      339.270      880.261      230.546        0.216        0.073       53.426        9.127        0.029      335.606        6.352      858.795
11/11/2014  23:12:00       19.125       22.653        1.367       21.044       29.328       16.029      442.869      860.110      256.921        0.122        0.078       29.647       10.389        0.123      335.561        6.276      858.798
11/11/2014  23:13:00        3.553      102.807      -19.800       18.056       14.490        7.366      326.024      209.969       54.251        0.578        0.030      102.868        4.538        0.002      335.659        6.440      858.818
11/11/2014  23:14:00      -33.968       68.676      -11.681       30.007       43.701       11.711      900.437     1909.779      137.147        0.448        0.147       76.618       16.607        0.047      335.760        6.610      858.839
11/11/2014  23:15:00      -19.398       52.283       -6.277       19.173       30.627       13.446      367.617      937.983      180.789        0.232        0.074       55.766        6.909        0.015      335.786        6.651      858.847
11/11/2014  23:16:00        8.840       87.745       -6.010       31.348       28.660       16.314      982.706      821.388      266.133        0.494        0.104       88.189        9.781        0.012      335.701        6.510      858.849
11/11/2014  23:17:00      -50.390       37.663      -12.401       18.418       33.830       16.663      339.214     1144.460      277.648        0.294        0.088       62.910       20.724        0.109      335.712        6.529      858.851
11/11/2014  23:18:00        5.032      123.144      -23.115       32.912       37.138       16.356     1083.176     1379.236      267.529        0.923        0.136      123.247       16.861        0.019      335.699        6.506      858.863
11/11/2014  23:19:00       -0.746       91.218      -10.264       32.662       37.269       21.144     1066.785     1388.994      447.075        0.566        0.145       91.221       10.873        0.014      335.689        6.490      858.868
11/11/2014  23:20:00       -2.478      102.398      -12.221       14.963       17.434       13.515      223.896      303.932      182.660        0.568        0.036      102.428        8.667        0.007      335.702        6.512      858.863
11/11/2014  23:21:00       -1.370       89.548      -13.185       18.719       31.686       18.668      350.385     1003.980      348.512        0.495        0.085       89.559        9.364        0.011      335.761        6.610      858.869
11/11/2014  23:22:00       16.957       87.838      -17.742       19.217       21.011       11.163      369.300      441.467      124.620        0.463        0.047       89.460        9.197        0.011      335.673        6.464      858.880
11/11/2014  23:23:00       -0.137       81.064       -5.200       21.974       40.272       20.139      482.867     1621.799      405.592        0.455        0.126       81.064       20.686        0.065      335.673        6.464      858.887
11/11/2014  23:24:00       35.581       54.306       -5.013       21.269       32.123       18.663      452.370     1031.915      348.300        0.304        0.092       64.924       19.079        0.086      335.575        6.300      858.884
11/11/2014  23:25:00       33.755       99.335      -23.214       21.499       46.545       16.755      462.222     2166.468      280.724        0.723        0.145      104.914       17.077        0.026      335.743        6.581      858.867
11/11/2014  23:26:00       70.292       21.161       -3.809       27.976       19.604       12.985      782.673      384.299      168.600        0.337        0.067       73.408        2.338        0.001      335.659        6.441      858.866
11/11/2014  23:27:00       57.326       25.853       -0.686       33.234       18.215       13.348     1104.480      331.781      178.158        0.278        0.081       62.886        8.339        0.018      335.538        6.238      858.865
11/11/2014  23:28:00       45.220       38.760        9.354       29.701       22.609       20.948      882.148      511.179      438.813        0.273        0.092       59.559       16.179        0.074      335.490        6.156      858.848
11/11/2014  23:29:00       29.674       67.304      -14.321       19.971       32.985       11.020      398.853     1087.995      121.449        0.361        0.080       73.555        9.921        0.018      335.597        6.337      858.840
11/11/2014  23:30:00       22.173       45.815       -1.688       26.212       30.066       20.749      687.054      903.982      430.529        0.231        0.101       50.898       20.072        0.156      335.497        6.171      858.852
11/11/2014  23:31:00       13.594       67.119       -9.066       16.085       16.050        8.747      258.742      257.613       76.506        0.268        0.030       68.481        6.352        0.009      335.561        6.278      858.856
11/11/2014  23:32:00       15.392       69.646      -13.468       17.896       22.711       13.678      320.274      515.769      187.101        0.315        0.051       71.327       14.004        0.039      335.519        6.208      858.869
11/11/2014  23:33:00       22.813       70.949       -8.840       20.505       26.820       12.843      420.463      719.315      164.952        0.347        0.065       74.527       14.457        0.038      335.493        6.163      858.900
11/11/2014  23:34:00       -2.617      102.662      -17.302       22.169       17.039       12.851      491.444      290.312      165.153        0.590        0.047      102.696        5.756        0.003      335.490        6.158      858.928
11/11/2014  23:35:00       -5.371       68.950       -9.697       15.648       18.463       10.866      244.868      340.874      118.067        0.279        0.035       69.159        7.247        0.011      335.524        6.215      858.935
11/11/2014  23:36:00        7.180      111.127      -12.402       19.602       19.943       17.160      384.251      397.741      294.462        0.682        0.054      111.358       13.044        0.014      335.456        6.101      858.924
11/11/2014  23:37:00       23.969       89.246      -16.091       19.450       35.277       18.175      378.296     1244.467      330.326        0.538        0.098       92.409       21.919        0.056      335.360        5.942      858.922
11/11/2014  23:38:00       25.992       86.898      -13.695       19.668       15.382       13.271      386.813      236.615      176.128        0.461        0.040       90.702        9.326        0.011      335.419        6.038      858.932
11/11/2014  23:39:00       13.109       79.977      -14.483       10.253       11.271        7.176      105.119      127.039       51.496        0.353        0.014       81.044        5.339        0.004      335.488        6.154      858.955
11/11/2014  23:40:00       20.586       64.479       -6.469       17.750       20.437       12.917      315.064      417.684      166.849        0.276        0.045       67.685       11.555        0.029      335.354        5.932      858.968
11/11/2014  23:41:00        8.898       80.465       -9.359        8.559       10.715        6.240       73.258      114.808       38.936        0.343        0.011       80.956        2.830        0.001      335.413        6.028      858.974
11/11/2014  23:42:00        8.824       77.594      -14.717       13.130        9.475        7.533      172.386       89.768       56.752        0.332        0.016       78.094        4.544        0.003      335.422        6.044      858.982
11/11/2014  23:43:00        7.667       85.435      -14.323        7.667       14.117        7.559       58.776      199.302       57.131        0.394        0.016       85.778        5.560        0.004      335.405        6.016      858.980
11/11/2014  23:44:00       -1.245       90.292      -16.777       10.265       13.819        5.867      105.368      190.963       34.418        0.438        0.017       90.301        4.744        0.003      335.420        6.040      858.984
11/11/2014  23:45:00      -18.321       89.494      -10.182       18.283       18.697       12.142      334.255      349.568      147.417        0.464        0.042       91.350        8.481        0.009      335.482        6.145      858.991
11/11/2014  23:46:00      -27.616       89.647      -10.669       21.646       26.998       14.388      468.555      728.892      207.012        0.516        0.070       93.804       13.281        0.020      335.575        6.301      858.986
11/11/2014  23:47:00      -20.654      134.725      -11.184       22.966       29.268       18.882      527.431      856.621      356.513        1.022        0.087      136.299       14.747        0.012      335.548        6.256      858.978
11/11/2014  23:48:00      -22.908      110.244      -12.658       23.617       29.132       14.492      557.772      848.653      210.025        0.723        0.081      112.599       10.693        0.009      335.547        6.256      858.968
11/11/2014  23:49:00      -18.734      119.105      -15.590       22.211       30.358       13.069      493.331      921.584      170.794        0.818        0.079      120.569        8.607        0.005      335.455        6.100      858.960
11/11/2014  23:50:00      -12.045      139.084      -20.496        9.323       14.113        7.067       86.927      199.170       49.945        1.012        0.017      139.605        4.201        0.001      335.391        5.991      858.956
11/11/2014  23:51:00       -8.706      127.407      -18.598       10.503       15.712        7.499      110.319      246.854       56.240        0.853        0.021      127.704        5.335        0.002      335.394        5.999      858.965
11/11/2014  23:52:00       -3.850      148.855      -21.898       17.116       21.277       10.964      292.941      452.722      120.211        1.176        0.043      148.905       10.544        0.005      335.347        5.920      858.975
11/11/2014  23:53:00       -2.558      153.841      -23.577       12.912       26.940       12.073      166.719      725.789      145.746        1.263        0.052      153.862       10.743        0.005      335.252        5.761      858.977
11/11/2014  23:54:00        1.346      146.910      -23.455        8.067       18.032        9.654       65.082      325.165       93.194        1.131        0.024      146.916        7.047        0.002      335.327        5.888      858.971
11/11/2014  23:55:00       20.143      136.313      -24.055       19.923       16.538        9.836      396.910      273.511       96.744        1.017        0.038      137.794        6.611        0.002      335.332        5.893      858.963
11/11/2014  23:56:00       29.370      124.861      -21.632       16.999       17.873       12.215      288.958      319.459      149.212        0.884        0.038      128.269        7.029        0.003      335.265        5.785      858.966
11/11/2014  23:57:00       14.837       88.687      -15.099       14.998       33.187       16.857      224.942     1101.385      284.158        0.496        0.081       89.920       16.771        0.035      335.189        5.656      858.959
11/11/2014  23:58:00       25.569      101.863      -16.701       19.718       19.445       13.162      388.800      378.121      173.244        0.612        0.047      105.023        9.727        0.009      335.184        5.649      858.951
11/11/2014  23:59:00       21.773      110.333      -21.712       17.163       30.709       13.286      294.567      943.026      176.524        0.727        0.071      112.461       14.323        0.016      335.192        5.661      858.949
